[[{"header":{"parameterUnit":"m.s-1","parameterCategory":1,"la1":30.6,"la2":28.766,"lo1":-90.7593,"lo2":-88.6598,"dy":0.0162,"dx":0.0183,"nx":116,"ny":114,"refTime":"2023-11-03T00:00:00:Z","depth":0,"parameterNumber":2,"parameterNumberName":"U-component_of_WINDS"},"data":[0.0,0.0,0.0,0.0,0.0,0.0,0.0,0.0,0.0,0.0,0.0,0.0,0.0,0.0,0.0,0.0,0.0,0.0,0.0,0.0,0.0,0.0,0.0,0.0,0.0,0.0,0.0,0.0,0.0,0.0,0.0,0.0,0.0,0.0,0.0,0.0,0.0,0.0,0.0,0.0,0.0,0.0,0.0,0.0,0.0,0.0,0.0,0.0,0.0,0.0,0.0,0.0,0.0,0.0,0.0,0.0,0.0,0.0,0.0,0.0,0.0,0.0,0.0,0.0,0.0,0.0,0.0,0.0,0.0,0.0,0.0,0.0,0.0,0.0,0.0,0.0,0.0,0.0,0.0,0.0,0.0,0.0,0.0,0.0,0.0,0.0,0.0,0.0,0.0,0.0,0.0,0.0,0.0,0.0,0.0,0.0,0.0,0.0,0.0,0.0,0.0,0.0,0.0,0.0,0.0,0.0,0.0,0.0,0.0,0.0,0.0,0.0,0.0,0.0,0.0,0.0,0.0,0.0,0.0,0.0,0.0,0.0,0.0,0.0,0.0,0.0,0.0,0.0,0.0,0.0,0.0,0.0,0.0,0.0,0.0,0.0,0.0,0.0,0.0,0.0,0.0,0.0,0.0,0.0,0.0,0.0,0.0,0.0,0.0,0.0,0.0,0.0,0.0,0.0,0.0,0.0,0.0,0.0,0.0,0.0,0.0,0.0,0.0,0.0,0.0,0.0,0.0,0.0,0.0,0.0,0.0,0.0,0.0,0.0,0.0,0.0,0.0,0.0,0.0,0.0,0.0,0.0,0.0,0.0,0.0,0.0,0.0,0.0,0.0,0.0,0.0,0.0,0.0,0.0,0.0,0.0,0.0,0.0,0.0,0.0,0.0,0.0,0.0,0.0,0.0,0.0,0.0,0.0,0.0,0.0,0.0,0.0,0.0,0.0,0.0,0.0,0.0,0.0,0.0,0.0,0.0,0.0,0.0,0.0,0.0,0.0,0.0,0.0,0.0,0.0,0.0,0.0,0.0,0.0,0.0,0.0,0.0,0.0,0.0,0.0,0.0,0.0,0.0,0.0,0.0,0.0,0.0,0.0,0.0,0.0,0.0,0.0,0.0,0.0,0.0,0.0,0.0,0.0,0.0,0.0,0.0,0.0,0.0,0.0,0.0,0.0,0.0,0.0,0.0,0.0,0.0,0.0,0.0,0.0,0.0,0.0,0.0,0.0,0.0,0.0,0.0,0.0,0.0,0.0,0.0,0.0,0.0,0.0,0.0,0.0,0.0,0.0,0.0,0.0,0.0,0.0,0.0,0.0,0.0,0.0,0.0,0.0,0.0,0.0,0.0,0.0,0.0,0.0,0.0,0.0,0.0,0.0,0.0,0.0,0.0,0.0,0.0,0.0,0.0,0.0,0.0,0.0,0.0,0.0,0.0,0.0,0.0,0.0,0.0,0.0,0.0,0.0,0.0,0.0,0.0,0.0,0.0,0.0,0.0,0.0,0.0,0.0,0.0,0.0,0.0,0.0,0.0,0.0,0.0,0.0,0.0,0.0,0.0,0.0,0.0,0.0,0.0,0.0,0.0,0.0,0.0,0.0,0.0,0.0,0.0,0.0,0.0,0.0,0.0,0.0,0.0,0.0,0.0,0.0,0.0,0.0,0.0,0.0,0.0,0.0,0.0,0.0,0.0,0.0,0.0,0.0,0.0,0.0,0.0,0.0,0.0,0.0,0.0,0.0,0.0,0.0,0.0,0.0,0.0,0.0,0.0,0.0,0.0,0.0,0.0,0.0,0.0,0.0,0.0,0.0,0.0,0.0,0.0,0.0,0.0,0.0,0.0,0.0,0.0,0.0,0.0,0.0,0.0,0.0,0.0,0.0,0.0,0.0,0.0,0.0,0.0,0.0,0.0,0.0,0.0,0.0,0.0,0.0,0.0,0.0,0.0,0.0,0.0,0.0,0.0,0.0,0.0,0.0,0.0,0.0,0.0,0.0,0.0,0.0,0.0,0.0,0.0,0.0,0.0,0.0,0.0,0.0,0.0,0.0,0.0,0.0,0.0,0.0,0.0,0.0,0.0,0.0,0.0,0.0,0.0,0.0,0.0,0.0,0.0,0.0,0.0,0.0,0.0,0.0,0.0,0.0,0.0,0.0,0.0,0.0,0.0,0.0,0.0,0.0,0.0,0.0,0.0,0.0,0.0,0.0,0.0,0.0,0.0,0.0,0.0,0.0,0.0,0.0,0.0,0.0,0.0,0.0,0.0,0.0,0.0,0.0,0.0,0.0,0.0,0.0,0.0,0.0,0.0,0.0,0.0,0.0,0.0,0.0,0.0,0.0,0.0,0.0,0.0,0.0,0.0,0.0,0.0,0.0,0.0,0.0,0.0,0.0,0.0,0.0,0.0,0.0,0.0,0.0,0.0,0.0,0.0,0.0,0.0,0.0,0.0,0.0,0.0,0.0,0.0,0.0,0.0,0.0,0.0,0.0,0.0,0.0,0.0,0.0,0.0,0.0,0.0,0.0,0.0,0.0,0.0,0.0,0.0,0.0,0.0,0.0,0.0,0.0,0.0,0.0,0.0,0.0,0.0,0.0,0.0,0.0,0.0,0.0,0.0,0.0,0.0,0.0,0.0,0.0,0.0,0.0,0.0,0.0,0.0,0.0,0.0,0.0,0.0,0.0,0.0,0.0,0.0,0.0,0.0,0.0,0.0,0.0,0.0,0.0,0.0,0.0,0.0,0.0,0.0,0.0,0.0,0.0,0.0,0.0,0.0,0.0,0.0,0.0,0.0,0.0,0.0,0.0,0.0,0.0,0.0,0.0,0.0,0.0,0.0,0.0,0.0,0.0,0.0,0.0,0.0,0.0,0.0,0.0,0.0,0.0,0.0,0.0,0.0,0.0,0.0,0.0,0.0,0.0,0.0,0.0,0.0,0.0,0.0,0.0,0.0,0.0,0.0,0.0,0.0,0.0,0.0,0.0,0.0,0.0,0.0,0.0,0.0,0.0,0.0,0.0,0.0,0.0,0.0,0.0,0.0,0.0,0.0,0.0,0.0,0.0,0.0,0.0,0.0,0.0,0.0,0.0,0.0,0.0,0.0,0.0,0.0,0.0,0.0,0.0,0.0,0.0,0.0,0.0,0.0,0.0,0.0,0.0,0.0,0.0,0.0,0.0,0.0,0.0,0.0,0.0,0.0,0.0,0.0,0.0,0.0,0.0,0.0,0.0,0.0,0.0,0.0,0.0,0.0,0.0,0.0,0.0,0.0,0.0,0.0,0.0,0.0,0.0,0.0,0.0,0.0,0.0,0.0,0.0,0.0,0.0,0.0,0.0,0.0,0.0,0.0,0.0,0.0,0.0,0.0,0.0,0.0,0.0,0.0,0.0,0.0,0.0,0.0,0.0,0.0,0.0,0.0,0.0,0.0,0.0,0.0,0.0,0.0,0.0,0.0,0.0,0.0,0.0,0.0,0.0,0.0,0.0,0.0,0.0,0.0,0.0,0.0,0.0,0.0,0.0,0.0,0.0,0.0,0.0,0.0,0.0,0.0,0.0,0.0,0.0,0.0,0.0,0.0,0.0,0.0,0.0,0.0,0.0,0.0,0.0,0.0,0.0,0.0,0.0,0.0,0.0,0.0,0.0,0.0,0.0,0.0,0.0,0.0,0.0,0.0,0.0,0.0,0.0,0.0,0.0,0.0,0.0,0.0,0.0,0.0,0.0,0.0,0.0,0.0,0.0,0.0,0.0,0.0,0.0,0.0,0.0,0.0,0.0,0.0,0.0,0.0,0.0,0.0,0.0,0.0,0.0,0.0,0.0,0.0,0.0,0.0,0.0,0.0,0.0,0.0,0.0,0.0,0.0,0.0,0.0,0.0,0.0,0.0,0.0,0.0,0.0,0.0,0.0,0.0,0.0,0.0,0.0,0.0,0.0,0.0,0.0,0.0,0.0,0.0,0.0,0.0,0.0,0.0,0.0,0.0,0.0,0.0,0.0,0.0,0.0,0.0,0.0,0.0,0.0,0.0,0.0,0.0,0.0,0.0,0.0,0.0,0.0,0.0,0.0,0.0,0.0,0.0,0.0,0.0,0.0,0.0,0.0,0.0,0.0,0.0,0.0,0.0,0.0,0.0,0.0,0.0,0.0,0.0,0.0,0.0,0.0,0.0,0.0,0.0,0.0,0.0,0.0,0.0,0.0,0.0,0.0,0.0,0.0,0.0,0.0,0.0,0.0,0.0,0.0,0.0,0.0,0.0,0.0,0.0,0.0,0.0,0.0,0.0,0.0,0.0,0.0,0.0,0.0,0.0,0.0,0.0,0.0,0.0,0.0,0.0,0.0,0.0,0.0,0.0,0.0,0.0,0.0,0.0,0.0,0.0,0.0,0.0,0.0,0.0,0.0,0.0,0.0,0.0,0.0,0.0,0.0,0.0,0.0,0.0,0.0,0.0,0.0,0.0,0.0,0.0,0.0,0.0,0.0,0.0,0.0,0.0,0.0,0.0,0.0,0.0,0.0,0.0,0.0,0.0,0.0,0.0,0.0,0.0,0.0,0.0,0.0,0.0,0.0,0.0,0.0,0.0,0.0,0.0,0.0,0.0,0.0,0.0,0.0,0.0,0.0,0.0,0.0,0.0,0.0,0.0,0.0,0.0,0.0,0.0,0.0,0.0,0.0,0.0,0.0,0.0,0.0,0.0,0.0,0.0,0.0,0.0,0.0,0.0,0.0,0.0,0.0,0.0,0.0,0.0,0.0,0.0,0.0,0.0,0.0,0.0,0.0,0.0,0.0,0.0,0.0,0.0,0.0,0.0,0.0,0.0,0.0,0.0,0.0,0.0,0.0,0.0,0.0,0.0,0.0,0.0,0.0,0.0,0.0,0.0,0.0,0.0,0.0,0.0,0.0,0.0,0.0,0.0,0.0,0.0,0.0,0.0,0.0,0.0,0.0,0.0,0.0,0.0,0.0,0.0,0.0,0.0,0.0,0.0,0.0,0.0,0.0,0.0,0.0,0.0,0.0,0.0,0.0,0.0,0.0,0.0,0.0,0.0,0.0,0.0,0.0,0.0,0.0,0.0,0.0,0.0,0.0,0.0,0.0,0.0,0.0,0.0,0.0,0.0,0.0,0.0,0.0,0.0,0.0,0.0,0.0,0.0,0.0,0.0,0.0,0.0,0.0,0.0,0.0,0.0,0.0,0.0,0.0,0.0,0.0,0.0,0.0,0.0,0.0,0.0,0.0,0.0,0.0,0.0,0.0,0.0,0.0,0.0,0.0,0.0,0.0,0.0,0.0,0.0,0.0,0.0,0.0,0.0,0.0,0.0,0.0,0.0,0.0,0.0,0.0,0.0,0.0,0.0,0.0,0.0,0.0,0.0,0.0,0.0,0.0,0.0,0.0,0.0,0.0,0.0,0.0,0.0,0.0,0.0,0.0,0.0,0.0,0.0,0.0,0.0,0.0,0.0,0.0,0.0,0.0,0.0,0.0,0.0,0.0,0.0,0.0,0.0,0.0,0.0,0.0,0.0,0.0,0.0,0.0,0.0,0.0,0.0,0.0,0.0,0.0,0.0,0.0,0.0,0.0,0.0,0.0,0.0,0.0,0.0,0.0,0.0,0.0,0.0,0.0,0.0,0.0,0.0,0.0,0.0,0.0,0.0,0.0,0.0,0.0,0.0,0.0,0.0,0.0,0.0,0.0,0.0,0.0,0.0,0.0,0.0,0.0,0.0,0.0,0.0,0.0,0.0,0.0,0.0,0.0,0.0,0.0,0.0,0.0,0.0,0.0,0.0,0.0,0.0,0.0,0.0,0.0,0.0,0.0,0.0,0.0,0.0,0.0,0.0,0.0,0.0,0.0,0.0,0.0,0.0,0.0,0.0,0.0,0.0,0.0,0.0,0.0,0.0,0.0,0.0,0.0,0.0,0.0,0.0,0.0,0.0,0.0,0.0,0.0,0.0,0.0,0.0,0.0,0.0,0.0,0.0,0.0,0.0,0.0,0.0,0.0,0.0,0.0,0.0,0.0,0.0,0.0,0.0,0.0,0.0,0.0,0.0,0.0,0.0,0.0,0.0,0.0,0.0,0.0,-2.8852,-2.8798,0.0,0.0,0.0,0.0,0.0,0.0,0.0,0.0,0.0,0.0,0.0,0.0,0.0,0.0,0.0,0.0,0.0,0.0,0.0,0.0,0.0,0.0,0.0,0.0,0.0,0.0,0.0,0.0,0.0,0.0,0.0,0.0,0.0,0.0,0.0,0.0,0.0,0.0,0.0,0.0,0.0,0.0,0.0,0.0,0.0,0.0,0.0,0.0,0.0,0.0,0.0,0.0,0.0,0.0,0.0,0.0,0.0,0.0,0.0,0.0,0.0,0.0,0.0,0.0,0.0,0.0,0.0,0.0,0.0,0.0,0.0,0.0,0.0,0.0,0.0,0.0,0.0,0.0,0.0,0.0,0.0,0.0,0.0,0.0,0.0,0.0,0.0,0.0,0.0,0.0,0.0,0.0,0.0,0.0,0.0,0.0,0.0,0.0,0.0,0.0,0.0,0.0,0.0,0.0,0.0,0.0,0.0,0.0,0.0,0.0,0.0,0.0,0.0,0.0,-2.9594,-2.89,0.0,0.0,0.0,0.0,0.0,0.0,0.0,0.0,0.0,0.0,0.0,0.0,0.0,0.0,0.0,0.0,0.0,0.0,0.0,0.0,0.0,0.0,0.0,0.0,0.0,0.0,0.0,0.0,0.0,0.0,0.0,0.0,0.0,0.0,0.0,0.0,0.0,0.0,0.0,0.0,0.0,0.0,0.0,0.0,0.0,0.0,0.0,0.0,0.0,0.0,0.0,0.0,0.0,0.0,0.0,0.0,0.0,0.0,0.0,0.0,0.0,0.0,0.0,0.0,0.0,0.0,0.0,0.0,0.0,0.0,0.0,0.0,0.0,0.0,0.0,0.0,0.0,0.0,0.0,0.0,0.0,0.0,0.0,0.0,0.0,0.0,0.0,0.0,0.0,0.0,0.0,0.0,0.0,0.0,0.0,0.0,0.0,0.0,0.0,0.0,0.0,0.0,0.0,0.0,0.0,0.0,0.0,0.0,-3.1701,-3.2368,-3.2329,-3.306,-3.3458,-3.344,-3.0785,-2.9629,-2.9629,-2.9629,0.0,0.0,0.0,0.0,0.0,0.0,0.0,0.0,0.0,0.0,0.0,0.0,0.0,0.0,0.0,0.0,0.0,0.0,0.0,0.0,0.0,0.0,0.0,0.0,0.0,0.0,0.0,0.0,0.0,0.0,0.0,0.0,0.0,0.0,0.0,0.0,0.0,0.0,-3.0404,-3.0404,-3.0404,-3.0404,-3.0404,0.0,0.0,0.0,0.0,0.0,0.0,0.0,0.0,0.0,0.0,0.0,0.0,0.0,0.0,0.0,0.0,0.0,0.0,0.0,0.0,0.0,0.0,0.0,0.0,0.0,0.0,0.0,0.0,0.0,0.0,0.0,0.0,0.0,0.0,0.0,0.0,0.0,0.0,0.0,0.0,0.0,0.0,0.0,-2.7442,-2.7431,0.0,0.0,0.0,0.0,0.0,0.0,0.0,0.0,0.0,0.0,0.0,0.0,0.0,-3.0947,-3.0978,-3.1107,-3.1182,-3.1225,-3.1458,-3.1549,-3.1549,-3.1659,-3.21,-3.2729,-3.2307,0.0,-3.2124,-3.2124,0.0,0.0,0.0,0.0,0.0,0.0,0.0,0.0,0.0,0.0,0.0,0.0,0.0,0.0,0.0,0.0,0.0,0.0,0.0,0.0,0.0,0.0,0.0,0.0,0.0,0.0,0.0,0.0,0.0,0.0,0.0,0.0,0.0,0.0,0.0,0.0,-3.0404,-3.0404,-3.0404,-3.0404,-3.0404,-3.0404,-3.0404,-3.0404,-3.0404,-3.0404,0.0,0.0,0.0,0.0,0.0,0.0,0.0,0.0,0.0,0.0,0.0,0.0,0.0,0.0,0.0,0.0,0.0,0.0,0.0,0.0,0.0,0.0,0.0,0.0,0.0,0.0,0.0,0.0,0.0,0.0,0.0,0.0,0.0,0.0,0.0,0.0,0.0,0.0,0.0,-2.8079,-2.8316,-2.8281,-2.8555,-2.8761,0.0,0.0,0.0,0.0,0.0,0.0,0.0,0.0,0.0,-3.0733,-3.1219,-3.1661,-3.203,-3.2593,-3.3066,-3.3426,-3.4389,-3.483,-3.4848,-3.5293,-3.5697,-3.6032,-3.6032,-3.5771,-3.5202,-3.3366,-3.2137,-3.1452,0.0,0.0,0.0,0.0,-3.2742,-3.2742,0.0,0.0,0.0,0.0,0.0,0.0,0.0,0.0,0.0,0.0,0.0,0.0,0.0,0.0,0.0,-3.0406,0.0,0.0,0.0,0.0,0.0,0.0,0.0,0.0,0.0,0.0,0.0,-3.0404,-3.0404,-3.0519,-3.0731,-3.0731,-3.0846,-3.1038,-3.1038,-3.0808,-3.0404,-3.0404,-3.0404,0.0,0.0,0.0,0.0,0.0,0.0,0.0,0.0,0.0,0.0,0.0,0.0,0.0,0.0,0.0,0.0,0.0,0.0,0.0,0.0,0.0,0.0,0.0,0.0,0.0,0.0,0.0,0.0,0.0,0.0,0.0,0.0,0.0,0.0,0.0,0.0,0.0,0.0,-2.8858,-2.8966,-2.915,-2.9144,-2.9205,0.0,0.0,0.0,0.0,0.0,0.0,-3.1501,-3.1796,-3.2023,-3.2243,-3.2656,-3.3087,-3.3537,-3.4292,-3.49,-3.5353,-3.6597,-3.7199,-3.7217,-3.7808,-3.8193,-3.8395,-3.8395,-3.8046,-3.7309,-3.4853,-3.3385,-3.2706,-3.3311,-3.355,-3.361,-3.4229,-3.4431,-3.4431,0.0,0.0,0.0,0.0,0.0,0.0,0.0,0.0,0.0,0.0,0.0,0.0,0.0,0.0,-3.0477,-3.041,-3.0404,-3.0404,0.0,0.0,0.0,0.0,0.0,0.0,0.0,0.0,0.0,-3.0404,-3.0404,-3.0827,-3.1641,-3.1641,-3.2045,-3.2776,-3.2776,-3.1891,-3.0404,-3.0404,-3.0404,-3.0404,0.0,0.0,0.0,0.0,0.0,0.0,0.0,0.0,0.0,0.0,0.0,0.0,0.0,0.0,0.0,0.0,0.0,0.0,0.0,0.0,0.0,0.0,0.0,0.0,0.0,0.0,0.0,0.0,0.0,0.0,0.0,0.0,0.0,0.0,0.0,0.0,0.0,0.0,0.0,-3.002,-3.0058,0.0,0.0,0.0,0.0,-3.1234,-3.1228,-3.162,-3.2478,-3.3261,-3.4014,-3.4789,-3.5624,-3.6079,-3.6101,-3.6152,-3.6207,-3.6229,-3.6321,-3.6358,-3.6358,-3.6395,-3.685,-3.7566,-3.7566,-3.7547,-3.7492,-3.7327,-3.6776,-3.6064,-3.6101,-3.6101,-3.6119,-3.6156,-3.6156,-3.6156,0.0,0.0,0.0,0.0,0.0,0.0,0.0,0.0,0.0,0.0,0.0,0.0,0.0,-3.0455,-3.0422,-3.04,-3.0396,-3.0404,-3.0404,0.0,0.0,0.0,0.0,0.0,0.0,0.0,-3.1231,-3.1231,-3.1756,-3.2179,-3.2468,-3.2468,-3.2622,-3.2891,-3.2891,-3.2564,-3.1968,-3.1462,-3.0904,-3.0404,-3.0404,-3.0404,0.0,0.0,0.0,0.0,0.0,0.0,0.0,0.0,0.0,0.0,0.0,0.0,0.0,0.0,0.0,0.0,0.0,0.0,0.0,0.0,0.0,0.0,0.0,0.0,0.0,0.0,0.0,0.0,0.0,0.0,0.0,0.0,0.0,0.0,0.0,0.0,0.0,-3.0106,-3.0576,0.0,-3.2049,-3.2083,-3.2491,-3.3606,-3.368,-3.4073,-3.4926,-3.5257,-3.5532,-3.5826,-3.6138,-3.6556,-3.707,-3.707,-3.7603,-3.8615,-3.8615,-3.8891,-3.9405,-3.9405,-3.9551,-3.979,-3.9258,-3.9053,-3.9016,-3.8487,-3.7496,-3.634,-3.6868,-3.707,-3.7125,-3.7643,-3.7845,-3.7845,0.0,0.0,0.0,0.0,0.0,0.0,0.0,0.0,0.0,0.0,0.0,-3.0525,-3.0505,-3.0455,-3.0422,-3.04,-3.0396,-3.0404,-3.0404,0.0,0.0,0.0,0.0,0.0,0.0,-3.1404,-3.1833,-3.2102,-3.2641,-3.3045,-3.3333,-3.3333,-3.3506,-3.3776,-3.3776,-3.3609,-3.3295,-3.2775,-3.1878,-3.0846,-3.0846,-3.0654,-3.0404,0.0,0.0,0.0,0.0,0.0,0.0,0.0,0.0,0.0,0.0,0.0,0.0,0.0,0.0,0.0,0.0,0.0,0.0,0.0,0.0,0.0,0.0,0.0,0.0,0.0,0.0,0.0,0.0,0.0,0.0,0.0,0.0,0.0,0.0,-2.996,-3.0723,-3.1279,-3.1816,-3.2632,-3.386,-3.3852,-3.4284,-3.5468,-3.5496,-3.5922,-3.7055,-3.711,-3.7408,-3.8022,-3.7959,-3.8217,-3.8848,-3.8765,-3.9239,-4.0304,-4.0304,-4.0579,-4.1095,-4.1095,-4.1095,-4.1058,-4.0543,-4.0304,-4.0267,-3.9735,-3.8891,-3.7918,-3.79,-3.7915,-3.7955,-3.8505,-3.8707,-3.8707,0.0,0.0,0.0,0.0,0.0,0.0,0.0,0.0,0.0,0.0,-2.9515,-3.0579,-3.0509,-3.0504,-3.0477,-3.041,-3.0404,-3.0404,-3.0404,-3.0404,0.0,0.0,0.0,0.0,-3.1679,-3.1756,-3.216,-3.2949,-3.2987,-3.3449,-3.4282,-3.4302,-3.4776,-3.5577,-3.5584,-3.5104,-3.4314,-3.4295,-3.3333,-3.1814,-3.1756,-3.1218,-3.0442,0.0,0.0,0.0,0.0,0.0,0.0,0.0,0.0,0.0,0.0,0.0,0.0,0.0,0.0,0.0,0.0,0.0,0.0,0.0,0.0,0.0,0.0,0.0,0.0,0.0,0.0,0.0,0.0,0.0,0.0,0.0,0.0,0.0,-3.0241,-3.0875,-3.1999,-3.3628,-3.3875,-3.4652,-3.6551,-3.6533,-3.651,-3.6792,-3.6593,-3.7144,-3.8689,-3.8781,-3.9611,-4.1438,-4.1264,-4.1248,-4.1493,-4.1233,-4.113,-4.1132,-4.1132,-4.115,-4.1168,-4.1168,-4.1168,-4.1168,-4.115,-4.1132,-4.1132,-4.1113,-4.1095,-4.0948,-3.9371,-3.8781,-3.8781,-3.8781,-3.8781,-3.8781,0.0,0.0,0.0,0.0,0.0,0.0,0.0,0.0,0.0,0.0,-2.9515,-3.0579,-3.0509,-3.0504,-3.0477,-3.041,-3.0404,-3.0404,-3.0404,0.0,0.0,0.0,0.0,0.0,-3.1698,-3.2891,-3.3628,-3.384,-3.5064,-3.5776,-3.6026,-3.6715,-3.7152,-3.7383,-3.7391,-3.725,-3.6993,-3.6357,-3.5483,-3.4416,-3.3157,-3.2124,-3.1349,0.0,0.0,0.0,0.0,0.0,0.0,0.0,0.0,0.0,0.0,0.0,0.0,0.0,0.0,0.0,0.0,0.0,0.0,0.0,0.0,0.0,0.0,0.0,0.0,0.0,0.0,0.0,0.0,0.0,0.0,0.0,-3.2395,-3.2906,-3.2052,-3.2766,-3.3721,-3.4573,-3.5407,-3.6337,-3.7448,-3.8219,-3.8805,-3.9277,-3.9787,-4.0196,-4.0432,-4.0612,-4.0974,-4.1489,-4.1656,-4.167,-4.1508,-4.1423,-4.1588,-4.1974,-4.1974,-4.2286,-4.2837,-4.2837,-4.2837,-4.28,-4.2213,-4.1974,-4.1919,-4.1334,-4.1095,-4.1058,-4.06,-4.0435,-4.0435,-4.0435,-4.0435,-4.0435,0.0,0.0,0.0,0.0,0.0,0.0,0.0,0.0,0.0,0.0,-2.9515,-3.0567,-3.0514,-3.0504,-3.0477,-3.041,-3.0404,-3.0404,-3.0404,0.0,0.0,0.0,0.0,-3.2025,-3.2737,-3.3705,-3.4552,-3.5257,-3.6219,-3.6899,-3.7305,-3.7833,-3.8104,-3.8099,-3.8099,-3.8112,-3.8106,-3.7604,-3.6915,-3.6058,-3.5035,-3.368,-3.2212,-3.1848,-3.1388,-3.0902,-3.0525,-3.0404,-3.0404,-3.0404,0.0,0.0,0.0,0.0,0.0,0.0,0.0,0.0,0.0,0.0,0.0,0.0,0.0,0.0,0.0,0.0,0.0,0.0,0.0,0.0,0.0,0.0,0.0,0.0,-3.4068,-3.4985,-3.4831,-3.5075,-3.5484,-3.6145,-3.7103,-3.81,-3.9139,-3.9907,-4.0568,-4.114,-4.139,-4.1646,-4.1957,-4.2135,-4.2422,-4.2865,-4.2956,-4.2975,-4.2883,-4.2648,-4.2687,-4.3014,-4.2868,-4.3039,-4.3515,-4.3515,-4.3515,-4.3478,-4.3002,-4.28,-4.2763,-4.2304,-4.2121,-4.2047,0.0,0.0,0.0,0.0,-4.1095,-4.1095,0.0,0.0,0.0,0.0,0.0,0.0,0.0,0.0,0.0,0.0,0.0,-3.0471,-3.0505,-3.0509,-3.0463,-3.0416,-3.041,-3.041,0.0,0.0,0.0,-3.1666,-3.1795,-3.2583,-3.4167,-3.4302,-3.5122,-3.6692,-3.6788,-3.7317,-3.8252,-3.8329,-3.8388,-3.8402,-3.8402,-3.844,-3.8485,-3.8388,-3.7846,-3.7038,-3.6942,-3.538,-3.3051,-3.2284,-3.1867,-3.1605,-3.082,-3.0481,-3.0404,-3.0404,0.0,0.0,0.0,0.0,0.0,0.0,0.0,0.0,0.0,0.0,0.0,0.0,0.0,0.0,0.0,0.0,0.0,0.0,0.0,0.0,0.0,0.0,0.0,0.0,-3.5622,-3.686,-3.7932,-3.7571,-3.7441,-3.8093,-3.8936,-3.9933,-4.1139,-4.158,-4.1975,-4.2449,-4.2109,-4.2291,-4.3235,-4.3353,0.0,0.0,0.0,-4.4585,-4.4788,-4.4336,-4.4064,-4.4005,-4.3699,-4.3549,-4.3515,-4.3531,-4.3549,-4.3496,-4.3531,-4.3531,-4.3515,-4.3515,-4.3515,-4.3368,-4.1937,-4.137,-4.137,-4.137,-4.137,-4.137,0.0,0.0,0.0,0.0,0.0,0.0,0.0,0.0,0.0,-2.7926,-2.895,-2.9846,-3.0443,-3.051,-3.0465,-3.0411,-3.0406,-3.0406,0.0,0.0,-3.0791,-3.1657,-3.2326,-3.3141,-3.4186,-3.4891,-3.5731,-3.6692,-3.7411,-3.8202,-3.9085,-3.9795,-4.0158,-4.0211,-4.0243,-4.0294,-4.0243,-3.9547,-3.8754,-3.7883,-3.7174,-3.5739,-3.403,-3.3861,-3.2926,-3.1682,-3.1518,-3.1,-3.0404,-3.0404,-3.0404,-3.0404,-3.0404,0.0,0.0,0.0,0.0,0.0,0.0,0.0,0.0,0.0,0.0,0.0,0.0,0.0,0.0,0.0,0.0,0.0,0.0,0.0,0.0,-3.6227,-3.7451,-3.8445,-3.9102,-3.9792,-4.0157,-3.9872,-4.0979,-4.1858,-4.2121,-4.2989,-4.3365,-4.2998,-4.3705,-4.4065,-4.3867,-4.4253,-4.46,-4.4788,-4.5011,-4.5023,-4.48,-4.4688,-4.443,-4.4005,-4.3942,0.0,-4.3515,-4.3781,-4.3765,-4.3532,-4.3798,-4.3749,-4.3515,-4.3515,-4.3515,-4.3478,-4.3149,-4.3039,-4.3039,-4.3039,-4.3039,-4.3039,0.0,0.0,0.0,0.0,0.0,0.0,0.0,0.0,0.0,0.0,-2.8624,-2.9552,-2.9864,-3.0296,-3.0516,-3.0403,-3.04,0.0,0.0,-3.0398,-3.0981,-3.2289,-3.274,-3.3563,-3.4873,-3.5329,-3.6157,-3.739,-3.7833,-3.8721,-4.0009,-4.0454,-4.0694,-4.0746,-4.0784,-4.0797,-4.0777,-4.0332,-3.9398,-3.8154,-3.7729,-3.6524,-3.4947,-3.4475,-3.3494,-3.2289,-3.1869,-3.1133,-3.0404,-3.0404,-3.0404,-3.0404,-3.0404,-3.0404,-3.0404,0.0,0.0,0.0,0.0,0.0,0.0,0.0,0.0,0.0,0.0,0.0,0.0,0.0,0.0,-3.3602,-3.4448,0.0,-3.6874,-3.7528,-3.9026,-4.01,-4.0102,-4.1526,-4.2242,-4.1456,-4.2332,-4.305,-4.32,-4.3942,-4.4342,-4.4213,-4.4561,-4.4758,-4.4668,-4.4898,-4.5045,-4.5045,-4.5205,-4.5224,-4.5045,-4.4879,-4.4682,-4.4402,-4.4265,-4.4045,-4.3765,-4.3926,-4.391,-4.3749,-4.3749,-4.3749,-4.3732,-4.3565,-4.3515,-4.3515,-4.3515,-4.3515,-4.3551,-4.3956,-4.3846,-4.357,0.0,0.0,0.0,0.0,0.0,0.0,0.0,0.0,0.0,0.0,-2.8125,-2.9074,-2.9292,-2.995,-3.038,0.0,0.0,0.0,0.0,-3.0436,-3.1141,-3.2709,-3.2916,-3.3745,-3.5302,-3.552,-3.635,-3.7848,-3.8029,-3.891,-4.0449,-4.0623,-4.0739,-4.0797,-4.0802,-4.0814,-4.0814,-4.0639,-3.9663,-3.8222,-3.8023,-3.703,-3.5614,-3.4856,-3.3909,-3.291,-3.2201,-3.128,-3.0404,-3.0404,-3.0404,-3.0404,-3.0404,-3.0404,-3.0404,-3.0404,-3.0404,0.0,0.0,0.0,0.0,0.0,0.0,0.0,0.0,-3.1892,-3.2515,-3.2676,-3.3912,-3.5063,-3.5394,-3.7267,-3.8776,-3.8836,-4.0349,-4.1442,-4.1292,-4.2837,-4.3734,-4.3057,-4.354,-4.4026,-4.4225,-4.4646,-4.4969,-4.5184,-4.5023,-4.5,-4.5184,-4.5256,-4.5307,-4.5307,-4.5307,-4.5307,-4.5307,-4.5034,-4.4868,-4.4788,-4.4585,-4.4332,-4.4079,-4.4121,-4.4121,-4.4064,-4.3749,-4.3716,-4.3894,-4.3599,-4.3515,-4.3515,-4.3515,-4.3515,-4.3588,-4.4232,-4.4066,-4.3589,0.0,0.0,0.0,0.0,0.0,0.0,0.0,0.0,0.0,0.0,0.0,0.0,0.0,0.0,0.0,0.0,0.0,0.0,-3.0491,-3.0533,-3.0987,-3.1887,-3.2618,-3.345,-3.4428,-3.5206,-3.6035,-3.6955,-3.7713,-3.8601,-3.9561,-4.0333,-4.0739,-4.0803,-4.0867,-4.0888,-4.0835,-4.0058,-3.9213,-3.8309,-3.7409,-3.6517,-3.5691,-3.5586,-3.4491,-3.2987,-3.29,-3.1805,-3.0404,-3.0404,-3.0404,-3.0404,-3.0404,-3.0404,-3.0404,-3.0404,0.0,-3.0404,-3.0404,-3.0379,-3.0559,-3.1239,-3.1482,-3.173,0.0,-3.3211,-3.3987,-3.471,-3.5628,-3.6734,-3.8231,-3.8755,-3.9376,-4.0585,-4.1193,-4.1922,-4.3111,-4.3697,-4.4236,-4.4902,-4.5055,-4.5123,-4.5144,-4.5199,-4.5151,-4.4868,-4.5098,-4.5121,-4.4868,-4.5151,-4.5307,-4.5307,-4.5307,-4.5307,-4.5307,-4.5256,-4.5098,-4.4788,-4.4763,-4.4612,-4.4374,-4.4599,-4.4572,-4.4346,-4.406,-4.3798,-4.3548,-4.3532,-4.3515,-4.3515,-4.3515,-4.3515,-4.3515,-4.3606,-4.3588,-4.3497,0.0,0.0,0.0,0.0,0.0,0.0,0.0,0.0,0.0,0.0,0.0,0.0,0.0,0.0,0.0,0.0,0.0,0.0,-3.0621,-3.0633,-3.1025,-3.1879,-3.2193,-3.3006,-3.4396,-3.4731,-3.5535,-3.6856,-3.7229,-3.7854,-3.8716,-3.9064,-3.9286,-3.9344,-3.9369,-3.9388,-3.9373,-3.9031,-3.8377,-3.7482,-3.7109,-3.6445,-3.5631,-3.5145,-3.4124,-3.3006,-3.2995,-3.1875,0.0,0.0,-3.0404,-3.0404,-3.0404,-3.0404,-3.0404,-3.0404,-3.0404,-3.0519,-3.1019,-3.1507,-3.1924,-3.2217,-3.2651,-3.3082,-3.3414,-3.4507,-3.5551,-3.5897,-3.7016,-3.8171,-3.8877,-3.9412,-4.0053,-4.094,-4.1746,-4.2571,-4.3468,-4.4271,-4.4895,-4.5269,-4.5307,-4.5307,-4.5307,-4.5307,-4.5246,-4.5098,-4.5224,-4.5246,-4.5098,-4.5216,-4.5307,-4.5307,-4.5307,-4.5307,-4.5307,-4.5307,-4.5256,-4.5143,-4.5143,-4.5004,-4.4751,-4.4879,-4.4997,-4.5148,-4.5044,-4.5056,-4.5166,-4.498,-4.4892,-4.4892,-4.4892,-4.4599,-4.4195,-4.4195,-4.3901,-4.357,0.0,0.0,0.0,0.0,0.0,0.0,0.0,0.0,0.0,0.0,0.0,0.0,0.0,0.0,0.0,0.0,0.0,0.0,0.0,-3.0726,-3.1003,-3.16,-3.1813,-3.2489,-3.3763,-3.4216,-3.5,-3.6207,-3.6711,-3.7268,-3.7876,-3.8135,-3.8287,-3.833,-3.8358,-3.8369,-3.8334,-3.8146,-3.7657,-3.6977,-3.6502,-3.5933,-3.5306,-3.4395,-3.3467,-3.2665,-3.2665,-3.1694,0.0,0.0,-3.0404,-3.0404,-3.0404,-3.0404,-3.0442,-3.0692,-3.0917,-3.1219,-3.1865,-3.2462,-3.2948,-3.3112,-3.3595,-3.414,-3.4592,-3.5627,-3.6632,-3.7101,-3.8171,-3.9069,-3.9317,-3.9862,-4.0578,-4.1426,-4.2254,-4.3106,-4.3958,-4.4791,-4.5307,-4.5307,-4.5307,-4.5307,-4.5307,-4.5307,-4.5307,-4.5307,-4.5307,-4.5307,-4.5307,-4.5307,-4.5307,-4.5307,-4.5317,-4.5328,-4.5328,-4.5319,-4.535,-4.5409,-4.5409,-4.531,-4.5126,-4.5355,-4.5718,-4.6172,-4.6178,-4.6269,-4.6382,-4.6149,-4.5992,-4.5902,-4.5902,-4.5535,-4.5039,-4.5039,-4.4378,-4.3588,0.0,0.0,0.0,0.0,0.0,0.0,0.0,0.0,0.0,0.0,0.0,0.0,0.0,0.0,0.0,0.0,0.0,0.0,0.0,-3.0764,-3.0786,-3.073,-3.1485,-3.193,-3.1988,-3.3619,-3.4495,-3.4471,-3.6223,-3.7072,-3.7057,-3.7964,-3.84,-3.8406,-3.8467,-3.8487,-3.8448,-3.7591,-3.7255,-3.7127,-3.531,-3.4607,-3.4514,-3.3518,-3.2593,-3.1835,-3.1835,0.0,0.0,0.0,-3.0404,-3.0404,-3.0404,-3.0404,0.0,-3.141,-3.2212,-3.2827,-3.2865,-3.2885,-3.3089,-3.3876,-3.4087,-3.4508,-3.6082,-3.646,-3.6969,-3.86,-3.8954,-3.926,-4.0091,-4.0282,-4.0836,-4.2478,-4.2794,-4.3367,-4.5029,-4.5277,-4.5307,-4.5307,-4.5307,-4.5307,-4.5307,-4.5307,-4.5307,-4.5307,-4.5307,-4.5307,-4.5307,-4.5307,-4.5307,-4.5307,-4.5359,-4.5398,-4.5398,-4.539,-4.54,-4.54,-4.54,-4.54,-4.541,-4.6253,-4.6901,-4.7358,-4.7358,-4.6991,-4.6399,-4.6399,-4.62,-4.5902,-4.5902,-4.5883,-4.5865,-4.5865,-4.4856,-4.3515,0.0,0.0,0.0,0.0,0.0,0.0,0.0,0.0,0.0,0.0,0.0,0.0,0.0,0.0,0.0,0.0,0.0,0.0,0.0,-3.0855,-3.0856,-3.0832,-3.1059,-3.1445,-3.2028,-3.2561,-3.3116,-3.3669,-3.4279,-3.4561,-3.4539,-3.4873,-3.5039,-3.5088,-3.5105,-3.5111,-3.5093,-3.4798,-3.4676,-3.4585,-3.3955,-3.3683,-3.3572,-3.2599,-3.2052,-3.1719,0.0,0.0,0.0,-3.0404,-3.0404,-3.0404,-3.0404,-3.0404,-3.0577,-3.1448,-3.2673,-3.3763,-3.3757,-3.4153,-3.4611,-3.4839,-3.5296,-3.5841,-3.6389,-3.7347,-3.8322,-3.8877,-3.947,-3.9938,-4.0244,-4.0301,-4.0855,-4.2526,-4.2794,-4.3386,-4.5048,-4.5307,-4.5307,-4.5307,-4.5307,-4.5307,-4.5307,-4.5307,-4.5307,-4.5307,-4.5307,-4.5307,-4.5307,-4.5307,-4.5317,-4.5359,-4.5398,-4.5399,-4.54,-4.54,-4.5707,-4.633,-4.6925,-4.7194,-4.7194,-4.7492,-4.8,-4.866,-4.8379,-4.8427,-4.8683,-4.8178,-4.793,-4.7809,-4.7574,-4.7168,-4.6691,-4.6691,-4.603,-4.5021,0.0,0.0,0.0,0.0,0.0,0.0,0.0,0.0,0.0,0.0,0.0,0.0,0.0,0.0,0.0,0.0,0.0,0.0,0.0,0.0,-3.0898,-3.0898,-3.0832,-3.1053,-3.1616,-3.1892,-3.2298,-3.2839,-3.3169,-3.3331,-3.3334,-3.3333,-3.3352,-3.3407,-3.3407,-3.3407,-3.3408,-3.3397,-3.3373,-3.3319,-3.2996,-3.2839,-3.267,-3.1726,-3.1347,0.0,0.0,0.0,0.0,-3.0404,-3.0404,-3.0404,-3.0404,-3.0808,-3.1462,-3.2333,-3.3558,-3.4628,-3.4661,-3.5018,-3.5456,-3.5721,-3.6171,-3.6687,-3.7279,-3.8237,-3.9088,-3.9412,-3.99,-4.0301,-4.0301,-4.0301,-4.0855,-4.2526,-4.2794,-4.3386,-4.5048,-4.5307,-4.5307,-4.5307,-4.5307,-4.5307,-4.5307,-4.5307,-4.5307,-4.5307,-4.5564,-4.5736,-4.5736,-4.6023,-4.6226,-4.6289,-4.6328,-4.6339,-4.635,-4.635,-4.6666,-4.7271,-4.7837,-4.8259,-4.8567,-4.8567,-4.8991,-4.9717,-4.9457,-4.9536,-4.9811,-4.9224,-4.89,-4.8764,-4.8421,-4.7994,-4.7516,-4.7516,-4.7186,-4.6599,0.0,0.0,0.0,0.0,0.0,0.0,0.0,0.0,0.0,0.0,0.0,0.0,0.0,0.0,0.0,0.0,0.0,0.0,0.0,0.0,0.0,-3.0898,-3.0832,-3.0803,-3.0803,-3.1624,-3.2019,-3.1936,-3.2844,-3.3278,-3.3279,-3.3279,-3.3262,-3.3262,-3.3262,-3.3262,-3.3262,-3.3262,-3.3262,-3.3203,-3.2369,-3.1984,-3.1835,-3.0944,0.0,0.0,0.0,0.0,0.0,-3.0404,-3.0404,-3.0404,-3.0442,-3.1596,-3.3064,-3.3936,-3.4768,-3.5412,-3.5486,-3.5472,-3.5655,-3.648,-3.6707,-3.714,-3.8738,-3.9076,-3.9298,-4.0129,-4.0301,-4.0301,-4.0301,-4.0301,-4.0817,-4.2469,-4.2775,-4.3367,-4.4991,-4.5269,-4.5307,-4.5307,-4.5307,-4.5307,-4.5307,-4.5345,-4.5364,-4.5364,-4.6061,-4.6519,-4.6557,-4.7349,-4.7821,-4.7897,-4.7968,-4.8038,-4.8097,-4.8135,-4.8163,-4.8163,-4.8221,-4.8663,-4.9471,-4.9471,-4.9846,-5.0511,-5.0511,-5.0252,-4.9817,-4.9453,-4.9113,-4.8799,-4.8439,-4.8306,-4.8306,-4.8306,-4.8306,-4.8086,0.0,0.0,0.0,0.0,0.0,0.0,0.0,0.0,0.0,0.0,0.0,0.0,0.0,0.0,0.0,0.0,0.0,0.0,0.0,0.0,0.0,0.0,0.0,0.0,0.0,0.0,0.0,0.0,0.0,-3.1543,-3.1541,-3.1543,-3.1543,-3.1543,-3.1543,-3.1543,-3.1543,-3.1543,-3.1543,-3.1504,0.0,-3.1088,-3.0995,0.0,0.0,0.0,0.0,0.0,0.0,-3.0404,-3.0404,-3.0519,-3.1154,-3.2064,-3.3064,-3.3936,-3.4808,-3.546,-3.5427,-3.5893,-3.6396,-3.6508,-3.7518,-3.8565,-3.8943,-3.9508,-4.0034,-4.0244,-4.0301,-4.0301,-4.0301,-4.0301,-4.0635,-4.1667,-4.2374,-4.3157,-4.4188,-4.4895,-4.5307,-4.5307,-4.5307,-4.5307,-4.5307,-4.5831,-4.6194,-4.6194,-4.6385,-4.6787,-4.7425,-4.7674,-4.7843,-4.7968,-4.7988,-4.8039,-4.8106,-4.8731,-4.9067,-4.9086,-4.9721,-5.0144,-5.0366,-5.0366,-5.0462,-5.0643,-5.0603,-5.047,-5.0275,-4.9641,-4.9299,-4.9113,-4.8513,-4.8306,-4.8306,-4.8306,-4.8306,-4.8251,0.0,0.0,0.0,0.0,0.0,0.0,0.0,0.0,0.0,0.0,0.0,0.0,0.0,0.0,0.0,0.0,0.0,0.0,0.0,0.0,0.0,0.0,0.0,0.0,0.0,0.0,0.0,0.0,0.0,0.0,0.0,-3.0898,-3.0898,-3.0898,-3.0898,-3.0898,-3.0898,-3.0898,0.0,0.0,0.0,0.0,0.0,0.0,0.0,0.0,0.0,0.0,0.0,-3.0404,-3.0404,-3.0558,-3.1429,-3.2256,-3.3064,-3.3916,-3.4782,-3.5486,-3.5379,-3.6012,-3.6753,-3.702,-3.8087,-3.9179,-3.9498,-3.9938,-4.0301,-4.0301,-4.0301,-4.0301,-4.0301,-4.0301,-4.0559,-4.1361,-4.1915,-4.2641,-4.3834,-4.4418,-4.4876,-4.5239,-4.5307,-4.5307,-4.5307,-4.6023,-4.6672,-4.7043,-4.7417,-4.7857,-4.8334,-4.8739,-4.8985,-4.9081,-4.9131,-4.9182,-4.924,-4.9721,-4.9971,-4.9971,-5.0481,-5.0712,-5.0712,-5.0712,-5.0673,-5.0643,-5.0593,-5.0511,-5.0404,-4.9669,-4.9329,-4.9221,-4.8568,-4.8306,-4.8306,-4.8306,-4.8306,-4.8306,0.0,0.0,0.0,0.0,0.0,0.0,0.0,0.0,0.0,0.0,0.0,0.0,0.0,0.0,0.0,0.0,0.0,0.0,0.0,0.0,0.0,0.0,0.0,0.0,0.0,0.0,0.0,0.0,0.0,0.0,0.0,0.0,0.0,0.0,0.0,0.0,0.0,0.0,0.0,0.0,0.0,0.0,0.0,0.0,0.0,0.0,0.0,0.0,0.0,0.0,-3.0404,-3.0558,-3.1429,-3.2256,-3.3058,-3.3851,-3.4761,-3.546,-3.5323,-3.5963,-3.6834,-3.7464,-3.828,-3.9094,-3.9794,-3.9938,-3.9938,-3.9938,-3.9938,-3.9938,-3.9938,-4.0053,-4.0368,-4.1055,-4.1342,-4.2049,-4.3624,-4.393,-4.4312,-4.5201,-4.5307,-4.5307,-4.5307,-4.6137,-4.6997,-4.7731,-4.8708,-4.9263,-4.9263,-4.9996,-5.0435,-5.0511,-5.0582,-5.0633,-5.0712,-5.0712,-5.0712,-5.0712,-5.0712,-5.0712,-5.0712,-5.0712,-5.0663,-5.0613,-5.0542,-5.0489,-5.0359,-4.9669,-4.9375,-4.9302,-4.8641,-4.8364,-4.8364,-4.8325,-4.8306,-4.8306,0.0,0.0,0.0,0.0,0.0,0.0,0.0,0.0,0.0,0.0,-2.5703,0.0,0.0,0.0,0.0,0.0,0.0,0.0,0.0,0.0,0.0,0.0,0.0,0.0,0.0,0.0,0.0,0.0,0.0,0.0,0.0,0.0,0.0,0.0,0.0,0.0,0.0,0.0,0.0,0.0,0.0,0.0,0.0,0.0,0.0,0.0,0.0,0.0,0.0,0.0,-3.0404,-3.0558,-3.1429,-3.2256,-3.3058,-3.3851,-3.4721,-3.5398,-3.5324,-3.5902,-3.6572,-3.6678,-3.7339,-3.7969,-3.8113,-3.8151,-3.8151,-3.8151,-3.8151,-3.8151,-3.8151,-3.8744,-3.9279,-3.9412,-4.0597,-4.1839,-4.287,-4.3567,-4.4312,-4.5201,-4.5307,-4.5307,-4.5307,-4.6691,-4.7635,-4.7788,-4.9277,-5.016,-5.016,-5.0325,-5.0457,-5.0582,-5.0643,-5.0702,-5.0712,-5.0712,-5.0712,-5.0712,-5.0712,-5.0712,-5.0712,-5.0712,-5.0683,-5.0673,-5.0663,-5.0603,-5.0448,-5.005,-4.9806,-4.9646,-4.8984,-4.8711,-4.8694,-4.8402,-4.8306,-4.8306,0.0,0.0,0.0,0.0,0.0,0.0,0.0,0.0,0.0,0.0,-2.5703,-2.5703,0.0,0.0,0.0,0.0,0.0,0.0,0.0,0.0,0.0,0.0,0.0,0.0,0.0,-2.8301,-2.8301,-2.8301,0.0,-2.8301,-2.8301,-2.8301,-2.8516,-2.8926,0.0,0.0,0.0,0.0,0.0,0.0,0.0,0.0,0.0,0.0,0.0,0.0,0.0,0.0,0.0,0.0,-3.0404,-3.0462,-3.0885,-3.1891,-3.2974,-3.3325,-3.4354,-3.5383,-3.5285,-3.5851,-3.649,-3.6498,-3.7101,-3.7693,-3.7693,-3.7693,-3.7693,-3.7693,-3.7693,-3.7693,-3.7693,-3.8419,-3.9011,-3.9011,-4.0062,-4.117,-4.2011,-4.2851,-4.3692,-4.4513,-4.501,-4.5307,-4.5307,-4.6825,-4.7788,-4.7788,-4.9411,-5.0401,-5.0401,-5.0468,-5.0562,-5.0643,-5.0673,-5.0712,-5.0712,-5.0712,-5.0712,-5.0712,-5.0712,-5.0712,-5.0712,-5.0712,-5.0712,-5.0712,-5.0653,-5.0613,-5.0521,-5.0099,-4.9904,-4.9784,-4.9083,-4.8799,-4.8764,-4.842,-4.8306,-4.8306,0.0,0.0,0.0,0.0,0.0,0.0,0.0,-2.5703,-2.5703,-2.5703,-2.5703,-2.5703,-2.5703,-2.5703,-2.5703,0.0,0.0,0.0,0.0,0.0,0.0,0.0,0.0,0.0,0.0,0.0,0.0,-2.7734,-2.7734,0.0,0.0,0.0,0.0,0.0,-2.8027,-2.8125,-2.8301,0.0,0.0,0.0,0.0,-3.0019,0.0,0.0,0.0,0.0,0.0,0.0,0.0,0.0,-3.0404,-3.0404,-3.0404,-3.1423,-3.2641,-3.276,-3.3892,-3.5112,-3.5176,-3.5693,-3.6225,-3.6222,-3.67,-3.7158,-3.7158,-3.7158,-3.7158,-3.7158,-3.7158,-3.7158,-3.7158,-3.7884,-3.8514,-3.8686,-3.9451,-4.0368,-4.1361,-4.224,-4.31,-4.3892,-4.4762,-4.5307,-4.5307,-4.6825,-4.7818,-4.781,-4.9444,-5.0446,-5.0446,-5.0562,-5.0643,-5.0712,-5.0712,-5.0712,-5.0712,-5.0712,-5.0712,-5.0712,-5.0712,-5.0712,-5.0712,-5.0712,-5.0712,-5.0702,-5.0643,-5.0613,-5.0582,-5.0197,-5.0044,-4.9936,-4.9287,-4.8984,-4.8866,-4.8532,-4.8364,-4.8306,0.0,0.0,0.0,0.0,0.0,0.0,0.0,-2.5703,-2.5703,-2.5703,-2.5703,-2.5703,-2.5703,-2.5703,-2.5703,0.0,0.0,0.0,0.0,0.0,0.0,0.0,0.0,0.0,0.0,0.0,0.0,-2.5937,-2.5937,0.0,0.0,0.0,0.0,0.0,0.0,-2.7559,-2.8301,-2.8301,0.0,0.0,0.0,0.0,0.0,0.0,0.0,0.0,0.0,0.0,-3.0404,0.0,-3.0404,-3.0404,-3.0404,-3.1007,-3.1866,-3.2581,-3.3434,-3.4278,-3.4988,-3.5267,-3.5324,-3.5324,-3.5381,-3.5439,-3.5439,-3.5439,-3.5439,-3.5439,-3.5439,-3.5439,-3.5439,-3.6137,-3.6958,-3.7693,-3.8553,-3.968,-4.1285,-4.224,-4.31,-4.3892,-4.4762,-4.5307,-4.5307,-4.6825,-4.784,-4.7886,-4.9552,-5.0582,-5.0582,-5.0643,-5.0683,-5.0712,-5.0712,-5.0712,-5.0712,-5.0712,-5.0712,-5.0712,-5.0712,-5.0712,-5.0712,-5.0712,-5.0712,-5.0712,-5.0683,-5.0653,-5.0593,-5.0542,-5.0448,-5.0325,-4.9936,-4.9584,-4.9206,-4.8883,-4.855,-4.8306,0.0,0.0,0.0,0.0,0.0,0.0,0.0,-2.5701,-2.5702,-2.5703,-2.5703,-2.5703,-2.5703,-2.5703,-2.5703,0.0,0.0,0.0,0.0,0.0,0.0,0.0,0.0,0.0,0.0,0.0,-2.5703,-2.5703,-2.5703,0.0,0.0,0.0,0.0,0.0,0.0,-2.6406,-2.6738,-2.6738,0.0,0.0,0.0,0.0,0.0,0.0,0.0,0.0,0.0,0.0,-3.0404,-3.0404,-3.0373,-3.0342,-3.0398,-3.0567,0.0,-3.1819,-3.3362,-3.4749,-3.4538,-3.4827,-3.5209,-3.5209,-3.5209,-3.5209,-3.5209,-3.5209,-3.5209,-3.5209,-3.5209,-3.5209,-3.5209,-3.5908,-3.6748,-3.7559,0.0,0.0,-4.0616,-4.1953,-4.2928,-4.3252,-4.4475,-4.5307,-4.5307,-4.6825,-4.8253,-4.9375,-5.0178,-5.0613,-5.0653,-5.0692,-5.0712,-5.0712,-5.0712,-5.0712,-5.0712,-5.0712,-5.0712,-5.0712,-5.0712,-5.0712,-5.0712,-5.0712,-5.0712,-5.0712,-5.0712,-5.0673,-5.0653,-5.0613,-5.0532,-5.0416,-5.0044,-4.9784,-4.9527,-4.9001,-4.873,-4.8568,0.0,0.0,0.0,0.0,0.0,0.0,-2.5698,-2.5699,-2.57,-2.5702,-2.5703,-2.5703,-2.5703,-2.5703,-2.5703,-2.5703,0.0,0.0,0.0,0.0,0.0,0.0,0.0,0.0,0.0,0.0,-2.5703,-2.5703,-2.5703,-2.5703,0.0,0.0,-2.5703,-2.5703,0.0,0.0,0.0,0.0,0.0,0.0,0.0,0.0,0.0,0.0,0.0,0.0,0.0,0.0,0.0,0.0,0.0,-3.0342,0.0,0.0,0.0,0.0,-3.301,-3.4198,-3.4319,-3.4598,-3.4904,-3.5152,-3.5209,-3.5209,-3.5209,-3.5209,-3.5209,-3.5209,-3.5209,-3.5209,-3.5209,-3.5698,-3.6462,0.0,0.0,-3.9011,-4.0129,-4.1743,-4.2794,-4.2794,-4.4284,-4.5307,-4.5307,-4.6857,-4.8594,-5.0387,-5.0593,-5.0643,-5.0702,-5.0712,-5.0712,-5.0712,-5.0712,-5.0712,-5.0712,-5.0712,-5.0712,-5.0712,-5.0712,-5.0712,-5.0712,-5.0712,-5.0712,-5.0712,-5.0712,-5.0712,-5.0702,-5.0643,-5.0582,-5.0459,-5.0186,-4.9962,-4.9744,-4.9271,-4.9015,-4.89,0.0,0.0,0.0,0.0,0.0,0.0,0.0,-2.5698,-2.57,-2.5702,-2.5703,-2.5703,-2.5703,-2.5703,-2.5703,-2.5703,0.0,0.0,0.0,0.0,0.0,0.0,0.0,0.0,0.0,0.0,-2.5703,-2.5703,-2.5703,-2.5703,-2.5703,-2.5703,-2.5703,-2.5703,0.0,0.0,0.0,0.0,0.0,0.0,0.0,0.0,0.0,0.0,0.0,0.0,0.0,0.0,0.0,0.0,0.0,0.0,0.0,-3.0951,-3.1736,0.0,-3.2192,-3.2076,-3.4522,-3.4617,-3.4197,-3.4999,-3.5209,-3.5209,-3.5209,-3.5209,-3.5209,-3.5209,-3.5209,-3.5209,-3.5209,-3.5209,-3.5763,-3.7426,-3.7712,0.0,-4.0053,-4.1743,-4.2794,-4.2794,-4.4284,-4.5307,-4.5307,-4.6931,-4.8718,-5.0458,-5.0653,-5.0712,-5.0712,-5.0712,-5.0712,-5.0712,-5.0712,-5.0712,-5.0712,-5.0712,-5.0712,-5.0712,-5.0712,-5.0712,-5.0712,-5.0712,-5.0712,-5.0712,-5.0712,-5.0712,-5.0712,-5.0712,-5.0623,-5.05,-5.05,-5.0197,-4.9803,-4.9784,-4.957,-4.9256,0.0,0.0,0.0,0.0,0.0,0.0,0.0,-2.5691,-2.5695,-2.57,-2.5701,-2.5702,-2.5703,-2.5703,-2.5703,-2.5703,0.0,0.0,0.0,0.0,0.0,0.0,0.0,0.0,0.0,0.0,-2.5703,-2.5703,-2.5703,-2.5703,-2.5703,-2.5703,-2.5703,-2.5703,-2.5703,-2.5703,0.0,0.0,0.0,0.0,0.0,0.0,-2.8751,0.0,0.0,0.0,0.0,0.0,0.0,0.0,0.0,0.0,0.0,0.0,0.0,-3.1717,-3.2147,-3.2374,-3.2611,-3.2898,-3.3177,-3.3425,-3.3949,-3.4369,-3.4369,-3.4808,-3.5209,-3.5209,-3.5209,-3.5209,-3.5209,-3.5209,-3.5744,-3.7426,-3.7693,0.0,0.0,-4.1743,-4.2794,-4.2794,-4.4325,-4.5588,-4.6143,-4.7337,-4.8528,-4.9633,-5.0327,-5.0712,-5.0712,-5.0712,-5.0712,-5.0712,-5.0712,-5.0712,-5.0712,-5.0712,-5.0712,-5.0712,-5.0712,-5.0712,-5.0712,-5.0712,-5.0712,-5.0712,-5.0712,-5.0712,-5.0712,-5.0712,-5.0643,-5.0553,-5.0521,-5.0382,-5.0181,-4.9897,-4.973,-4.9584,0.0,0.0,0.0,0.0,0.0,0.0,0.0,-2.4713,-2.4834,-2.5172,-2.5212,-2.5331,-2.5664,-2.5703,-2.5703,-2.5703,0.0,0.0,0.0,0.0,0.0,0.0,0.0,0.0,0.0,-2.5703,-2.5703,-2.5703,-2.5703,-2.5703,-2.5703,-2.5703,-2.5703,-2.5703,-2.5703,-2.5703,0.0,0.0,0.0,0.0,0.0,0.0,-2.8359,0.0,0.0,0.0,0.0,0.0,0.0,0.0,0.0,0.0,0.0,0.0,0.0,0.0,-3.1419,-3.1782,-3.1916,-3.2107,-3.2317,-3.2623,-3.3356,-3.3995,-3.3995,-3.4617,-3.5209,-3.5209,-3.5209,-3.5209,-3.5209,-3.5209,-3.5744,-3.7426,-3.7729,-3.8331,-4.007,-4.1734,-4.3034,-4.3703,-4.4737,-4.5744,-4.6578,-4.753,-4.8443,-4.9278,-5.0183,-5.0712,-5.0712,-5.0712,-5.0712,-5.0712,-5.0712,-5.0712,-5.0712,-5.0712,-5.0712,-5.0712,-5.0712,-5.0712,-5.0712,-5.0712,-5.0712,-5.0712,-5.0712,-5.0712,0.0,-5.0712,-5.0653,-5.0593,-5.0542,-5.0478,-5.0359,-5.0113,-5.0006,-4.9942,0.0,0.0,0.0,0.0,0.0,0.0,0.0,0.0,0.0,0.0,-2.4315,-2.4648,-2.5508,-2.5605,-2.5625,0.0,0.0,0.0,0.0,0.0,0.0,0.0,0.0,0.0,0.0,-2.5703,-2.5703,-2.5703,-2.5703,-2.5703,-2.5703,-2.5703,-2.5703,-2.5703,-2.5703,-2.5703,-2.5703,-2.5703,-2.57,-2.5694,-2.5694,-2.6745,0.0,0.0,0.0,0.0,0.0,0.0,0.0,0.0,0.0,0.0,0.0,0.0,0.0,0.0,0.0,0.0,0.0,-3.1981,-3.1599,-3.2336,-3.3223,-3.3918,-3.3918,-3.4579,0.0,-3.5209,-3.5209,-3.5209,-3.5209,-3.5248,-3.5821,-3.7445,-3.7813,-3.847,-4.0077,-4.1742,-4.3455,-4.5178,-4.5399,-4.5764,-4.6618,-4.7549,-4.8443,-4.926,-5.0164,-5.0712,-5.0712,-5.0712,-5.0712,-5.0712,-5.0712,-5.0712,-5.0712,-5.0712,-5.0712,-5.0712,-5.0712,-5.0712,-5.0712,-5.0712,-5.0712,-5.0712,-5.0712,-5.0712,-5.0712,-5.0712,-5.0653,-5.0603,-5.0603,-5.0511,-5.0412,-5.0401,-5.0367,-5.0267,0.0,0.0,0.0,0.0,0.0,0.0,0.0,0.0,0.0,0.0,-2.3414,-2.3748,-2.4609,-2.4707,0.0,0.0,0.0,0.0,0.0,0.0,0.0,0.0,0.0,0.0,0.0,-2.5703,-2.5703,-2.5703,-2.5703,-2.5703,-2.5703,-2.5703,-2.5703,-2.5703,-2.5703,-2.5703,-2.5703,-2.5702,-2.57,-2.5694,-2.5694,-2.6745,0.0,0.0,0.0,0.0,-3.06,-3.0513,0.0,0.0,0.0,0.0,0.0,0.0,0.0,0.0,-3.0246,-3.0287,-3.0691,0.0,-3.0548,-3.0739,-3.1904,-3.3005,0.0,-3.4132,-3.5209,-3.5209,-3.5209,-3.5209,-3.5209,-3.5736,-3.6519,-3.754,-3.831,-3.9148,-4.0154,-4.1798,-4.3493,-4.5199,-4.5438,-4.5553,-4.5783,-4.7203,-4.8183,-4.8394,-4.9817,-5.0712,-5.0712,-5.0712,-5.0712,-5.0712,-5.0712,-5.0712,-5.0712,-5.0712,-5.0712,-5.0712,-5.0712,-5.0712,-5.0712,-5.0712,-5.0712,-5.0712,-5.0712,-5.0712,-5.0712,-5.0712,-5.0683,-5.0663,-5.0613,-5.0562,-5.0478,-5.0424,-5.0367,-5.029,0.0,0.0,0.0,0.0,0.0,0.0,0.0,0.0,0.0,0.0,0.0,0.0,0.0,0.0,0.0,0.0,0.0,0.0,0.0,0.0,0.0,0.0,0.0,0.0,-2.5703,-2.5703,-2.5703,-2.5703,-2.5703,-2.5703,-2.5703,-2.5703,-2.5703,-2.5703,-2.5703,-2.5703,-2.57,-2.5701,-2.5699,-2.5691,-2.5691,0.0,0.0,0.0,0.0,0.0,-3.0617,-3.0556,0.0,-3.0389,-3.0373,-3.0379,0.0,0.0,0.0,0.0,-3.0246,-3.0192,-3.02,-3.02,-3.0301,-3.0691,-3.1773,-3.2837,-3.3203,-3.4292,-3.5209,-3.5234,-3.5218,-3.5324,-3.5712,-3.6217,-3.6935,-3.8113,-3.8765,-3.9706,-4.1308,-4.2696,-4.4018,-4.5285,-4.5485,-4.5513,-4.5531,-4.676,-4.7702,-4.8067,-4.9336,-5.0289,-5.0673,-5.0712,-5.0712,-5.0712,-5.0712,-5.0712,-5.0712,-5.0712,-5.0712,-5.0712,-5.0712,-5.0712,-5.0712,-5.0712,-5.0712,-5.0712,-5.0712,-5.0712,-5.0712,-5.0712,-5.0712,-5.0702,-5.0653,-5.0603,-5.0532,-5.0468,-5.0393,-5.0337,0.0,0.0,0.0,0.0,0.0,0.0,0.0,0.0,0.0,0.0,0.0,0.0,0.0,0.0,0.0,0.0,0.0,0.0,0.0,0.0,0.0,0.0,0.0,-2.5703,-2.5703,-2.5703,-2.5703,-2.5703,-2.5703,-2.5703,-2.5703,-2.5703,-2.5703,-2.5703,-2.5703,-2.5701,-2.5694,-2.5698,-2.5696,-2.5707,-2.5707,0.0,0.0,0.0,0.0,0.0,0.0,0.0,0.0,-3.0378,-3.0348,-3.0398,-3.0342,0.0,0.0,0.0,0.0,0.0,-3.0214,-3.0304,-3.0591,-3.1325,-3.2154,-3.3008,-3.3827,0.0,0.0,0.0,0.0,-3.5643,-3.6372,-3.6763,-3.7436,-3.879,-3.9333,-4.0394,-4.2699,-4.3756,-4.461,-4.5417,-4.5513,-4.555,-4.5586,-4.6394,-4.7231,-4.8048,-4.8913,-4.9779,-5.0654,-5.0712,-5.0712,-5.0712,-5.0712,-5.0712,-5.0712,-5.0712,-5.0712,-5.0712,-5.0712,-5.0712,-5.0712,-5.0712,-5.0712,-5.0712,-5.0712,-5.0712,-5.0712,-5.0712,-5.0712,-5.0712,-5.0712,-5.0653,-5.0593,-5.0521,-5.0457,-5.039,0.0,0.0,0.0,0.0,0.0,0.0,0.0,0.0,0.0,0.0,0.0,0.0,0.0,0.0,0.0,0.0,0.0,0.0,0.0,0.0,0.0,0.0,-2.5703,-2.5703,-2.5703,-2.5703,-2.5703,-2.5703,-2.5703,-2.5703,-2.5703,-2.5703,-2.5703,-2.5703,-2.5702,-2.5699,-2.5694,-2.5694,-2.5692,-2.5707,-2.5707,0.0,0.0,0.0,0.0,0.0,0.0,0.0,0.0,-3.0411,-3.0379,-3.0404,-3.0398,0.0,0.0,0.0,0.0,0.0,-3.0273,-3.0823,-3.1424,-3.1545,-3.2194,-3.3041,-3.3894,0.0,0.0,0.0,0.0,0.0,0.0,-3.7742,-3.8797,-3.9037,-4.0334,-4.1728,-4.2915,-4.3788,-4.4615,-4.5481,-4.5586,-4.5586,-4.5594,-4.6394,-4.7231,-4.8048,-4.8913,-4.9779,-5.0654,-5.0712,-5.0712,-5.0712,-5.0712,-5.0712,-5.0712,-5.0712,-5.0712,-5.0712,-5.0712,-5.0712,-5.0712,-5.0712,-5.0712,-5.0712,-5.0712,-5.0712,-5.0712,-5.0712,-5.0712,-5.0712,-5.0712,-5.0653,-5.0593,-5.0521,-5.0457,-5.039,0.0,0.0,0.0,0.0,0.0,0.0,0.0,0.0,0.0,0.0,0.0,0.0,0.0,0.0,0.0,0.0,0.0,0.0,0.0,0.0,0.0,-2.5703,-2.5703,-2.5703,-2.5703,-2.5703,-2.5703,-2.5703,-2.5703,-2.5703,-2.5703,-2.5703,-2.5702,-2.5699,-2.57,-2.5697,-2.569,-2.5693,-2.5691,-2.5746,0.0,0.0,0.0,0.0,0.0,0.0,0.0,0.0,0.0,0.0,-3.0373,-3.0379,-3.0367,0.0,0.0,0.0,0.0,0.0,-3.0279,-3.0938,-3.1719,-3.2173,-3.2915,-3.3846,-3.515,0.0,0.0,0.0,0.0,0.0,0.0,-3.8634,-3.9314,-3.978,-4.1297,-4.2563,-4.3019,-4.4201,-4.5152,-4.5556,-4.5594,-4.5594,-4.5594,-4.5951,-4.6547,-4.7394,-4.7817,-4.8625,-4.9933,-4.999,-4.999,-4.999,-4.999,-4.976,-4.9298,-4.9298,-4.976,-5.0712,-5.0712,-5.0712,-5.0712,-5.0712,-5.0712,-5.0712,-5.0712,-5.0712,-5.0712,-5.0712,-5.0712,-5.0712,-5.0712,-5.0673,-5.0643,-5.0532,-5.0161,-4.9693,0.0,0.0,0.0,0.0,0.0,0.0,0.0,0.0,0.0,0.0,0.0,0.0,0.0,0.0,0.0,0.0,0.0,0.0,0.0,0.0,-2.5703,-2.5703,-2.5703,-2.5703,-2.5703,-2.5703,-2.5703,-2.5703,-2.5703,-2.5703,-2.5703,-2.5702,-2.5699,-2.5694,-2.5697,-2.5694,-2.5707,-2.5691,-2.5827,-2.6058,0.0,0.0,0.0,0.0,0.0,0.0,0.0,0.0,0.0,0.0,0.0,0.0,0.0,0.0,0.0,-3.0292,-3.0254,-3.0221,-3.0286,-3.1092,-3.2116,-3.2981,0.0,0.0,0.0,0.0,0.0,0.0,0.0,0.0,0.0,-3.9384,-3.9784,-4.0662,-4.2041,-4.3109,-4.3355,-4.4662,-4.5594,-4.5594,-4.5594,-4.5594,-4.5594,-4.5594,-4.5951,-4.6827,-4.6904,-4.7548,-4.9029,-4.9106,-4.9106,-4.9106,-4.9106,-4.8779,-4.8105,-4.8105,-4.8779,-5.0087,-5.0087,-5.0087,-5.0087,-5.0087,-5.0087,-5.0087,-5.0087,-5.0087,-5.0087,-5.0087,-5.0087,-5.0087,-5.0087,-5.0087,-5.0067,-4.9958,-4.9463,-4.8813,0.0,0.0,0.0,0.0,0.0,0.0,0.0,0.0,0.0,0.0,0.0,0.0,0.0,0.0,0.0,0.0,0.0,0.0,0.0,0.0,-2.5703,-2.5703,-2.5703,-2.5703,-2.5703,-2.5703,-2.5703,-2.5703,-2.5703,-2.5703,-2.5702,-2.5698,-2.5694,-2.5694,-2.571,-2.5708,-2.5707,-2.5707,-2.6176,-2.6918,-2.6977,0.0,0.0,0.0,0.0,0.0,0.0,0.0,0.0,0.0,0.0,0.0,0.0,0.0,-3.0298,-3.0299,-3.0292,-3.0292,-3.0299,-3.1533,-3.3026,-3.3898,-3.471,0.0,-3.6486,-3.7221,0.0,-3.7954,0.0,0.0,-3.9277,-3.9892,-4.0681,-4.1566,-4.2489,-4.3355,-4.4105,-4.5017,-4.5594,-4.5594,-4.5594,-4.5594,-4.5594,-4.5594,-4.5951,-4.6827,-4.6904,-4.7278,-4.8144,-4.8202,-4.8202,-4.8202,-4.8202,-4.8163,-4.8105,-4.8105,-4.8163,-4.8298,-4.8298,-4.8298,-4.8298,-4.8298,-4.8298,-4.8298,-4.8298,-4.8298,-4.8298,-4.8298,-4.8298,-4.8298,-4.8298,-4.825,-4.8183,-4.8183,-4.8103,-4.799,0.0,0.0,0.0,0.0,0.0,0.0,0.0,0.0,0.0,0.0,0.0,0.0,0.0,0.0,0.0,0.0,0.0,0.0,0.0,0.0,-2.5703,-2.5703,-2.5703,-2.5703,-2.5703,-2.5703,-2.5703,-2.5703,-2.5703,-2.5702,-2.5698,-2.5695,-2.5692,-2.571,-2.5708,-2.6,-2.6508,-2.6508,-2.7016,-2.7854,-2.8402,-2.8996,0.0,0.0,0.0,0.0,0.0,0.0,0.0,0.0,-3.0404,-3.0404,0.0,-3.0348,-3.0304,-3.0292,-3.0298,-3.0419,-3.0964,-3.2056,-3.3343,-3.4726,-3.6143,0.0,0.0,-3.8196,-3.8344,-3.9457,-3.9522,-3.9662,-4.0658,-4.1104,-4.1585,-4.247,-4.3297,-4.3951,-4.4259,-4.5056,-4.5594,-4.5594,-4.5594,-4.5594,-4.5594,-4.5594,-4.5748,-4.6067,-4.6086,-4.6451,-4.7317,-4.7346,-4.7346,-4.7346,-4.7346,-4.7086,-4.6547,-4.6547,-4.6547,-4.6547,-4.7605,-4.8105,-4.8105,-4.8105,-4.8105,-4.8105,-4.8105,-4.8105,-4.8105,-4.8105,-4.8105,-4.8105,-4.8105,-4.8068,-4.8049,-4.802,-4.7635,-4.7143,0.0,0.0,0.0,0.0,0.0,0.0,0.0,0.0,0.0,0.0,0.0,0.0,0.0,0.0,0.0,0.0,0.0,0.0,0.0,-2.5703,-2.5703,-2.5703,-2.5703,-2.5703,-2.5703,-2.5703,-2.5703,-2.5703,-2.5702,-2.5699,-2.5694,-2.5692,-2.569,-2.5707,-2.598,-2.645,-2.7016,-2.7289,-2.7889,-2.8699,-2.9305,-2.9654,0.0,0.0,0.0,0.0,0.0,0.0,0.0,0.0,-3.0404,0.0,0.0,0.0,0.0,0.0,-3.0519,-3.0906,-3.1478,-3.2747,-3.426,-3.5679,0.0,0.0,-3.9718,-3.9411,-3.9287,-4.0483,-4.0434,-4.0443,-4.1251,-4.1835,-4.2412,-4.3008,-4.3778,-4.4393,-4.4662,-4.5229,-4.5594,-4.5594,-4.5594,-4.5594,-4.5594,-4.5594,-4.5594,-4.5594,-4.5594,-4.5864,-4.6471,-4.649,-4.649,-4.649,-4.649,-4.6201,-4.5614,-4.5594,-4.5594,-4.5614,-4.6759,-4.7317,-4.7317,-4.7317,-4.7317,-4.7317,-4.7317,-4.7317,-4.7317,-4.7317,-4.7317,-4.7317,-4.7317,-4.7317,-4.7317,-4.7261,-4.6849,-4.6321,0.0,0.0,0.0,0.0,0.0,0.0,0.0,0.0,0.0,0.0,0.0,0.0,0.0,0.0,0.0,0.0,0.0,0.0,-2.5703,-2.5703,-2.5703,-2.5703,-2.5703,-2.5703,-2.5703,-2.5703,-2.5702,-2.5702,-2.5698,-2.5694,-2.5694,-2.5709,-2.5707,-2.5746,-2.6606,-2.7016,-2.7074,-2.7952,-2.8733,-2.9418,-2.9416,-2.9891,-3.0593,0.0,0.0,0.0,0.0,0.0,0.0,0.0,-3.0404,-3.0404,0.0,0.0,0.0,-3.0316,-3.1009,-3.1792,-3.1724,-3.3658,-3.5912,-3.6782,0.0,0.0,-4.0783,-4.0894,-4.0791,-4.081,-4.1377,-4.1622,-4.07,-4.1931,-4.3104,-4.3124,-4.3797,-4.4605,-4.5479,-4.5594,-4.5594,-4.5594,-4.5594,-4.5594,-4.5594,-4.5594,-4.5594,-4.5594,-4.5594,-4.5594,-4.5594,-4.5594,-4.5594,-4.5594,-4.5594,-4.5594,-4.5594,-4.5594,-4.5594,-4.5594,-4.5594,-4.5594,-4.5594,-4.5594,-4.5594,-4.5594,-4.5594,-4.5594,-4.5594,-4.5594,-4.5594,-4.5594,-4.5594,-4.5594,-4.5594,-4.5594,-4.5559,-4.5495,0.0,0.0,0.0,0.0,0.0,0.0,0.0,0.0,0.0,0.0,0.0,0.0,0.0,0.0,0.0,0.0,0.0,0.0,-2.5703,-2.5703,-2.5703,-2.5703,-2.5703,-2.5703,-2.5703,-2.5702,-2.57,-2.5697,-2.5695,-2.5692,-2.5709,-2.5708,-2.6039,-2.6625,-2.6879,-2.7679,-2.885,-2.904,-2.9606,-3.0314,-3.0253,-3.0365,-3.0522,0.0,0.0,0.0,0.0,0.0,0.0,0.0,0.0,0.0,0.0,0.0,0.0,-3.0373,-3.103,-3.1877,-3.2512,-3.4167,-3.606,-3.7608,0.0,0.0,0.0,-4.0992,0.0,0.0,-4.0937,-4.1332,-4.2175,-4.2758,-4.3489,-4.4671,-4.5056,-4.5306,-4.5556,-4.5594,-4.5594,-4.5594,-4.5594,-4.5594,-4.5594,-4.5594,-4.5594,-4.5594,-4.5594,-4.5594,-4.5594,-4.5594,-4.5594,-4.5594,-4.5594,-4.5594,-4.5594,-4.5594,-4.5594,-4.5594,-4.5594,-4.5594,-4.5594,-4.5594,-4.5594,-4.5594,-4.5594,-4.5594,-4.5594,-4.5594,-4.5594,-4.5594,-4.5594,-4.5594,-4.5594,-4.5594,-4.5559,-4.5495,0.0,0.0,0.0,0.0,0.0,0.0,0.0,0.0,0.0,0.0,0.0,0.0,0.0,0.0,0.0,0.0,0.0,0.0,0.0,0.0,-2.5703,-2.5703,-2.5703,-2.5703,-2.5703,-2.57,-2.5696,-2.5691,-2.5691,-2.571,-2.5707,-2.6058,-2.6508,-2.7035,-2.7668,-2.854,-2.9533,-2.982,-3.0191,-3.0614,-3.0587,-3.0528,-3.0456,0.0,0.0,0.0,0.0,0.0,0.0,0.0,0.0,0.0,-3.0404,0.0,0.0,-3.0857,-3.1586,-3.2498,-3.3447,-3.5246,-3.7116,-3.822,-3.9415,-4.0444,-4.0973,0.0,0.0,0.0,-4.1092,-4.1577,-4.2454,-4.3181,-4.3967,-4.493,-4.5364,-4.5594,-4.5594,-4.5594,-4.5594,-4.5594,-4.5594,-4.5594,-4.5594,-4.5594,-4.5594,-4.5594,-4.5594,-4.5594,-4.5594,-4.5594,-4.5594,-4.5594,-4.5594,-4.5594,-4.5594,-4.5594,-4.5594,-4.5594,-4.5594,-4.5594,-4.5594,-4.5594,-4.5594,-4.5594,-4.5594,-4.5594,-4.5594,-4.5594,-4.5594,-4.5594,-4.5594,-4.5594,-4.5594,-4.5594,-4.5577,-4.5522,0.0,0.0,0.0,0.0,0.0,0.0,0.0,0.0,0.0,0.0,-2.1406,0.0,0.0,0.0,0.0,0.0,0.0,0.0,0.0,0.0,-2.5703,-2.5703,-2.5703,-2.5703,-2.57,-2.5696,-2.5692,-2.5707,-2.5707,-2.5746,-2.5844,-2.6625,-2.7073,-2.7285,-2.8755,-2.9455,-2.9562,-3.0283,-3.056,-3.0496,-3.0487,-3.0446,-3.0404,-3.0404,0.0,0.0,0.0,0.0,0.0,0.0,0.0,0.0,-3.0404,-3.0442,-3.0683,-3.154,-3.2514,-3.349,-3.4356,-3.6532,-3.8588,-3.8591,-3.986,-4.1109,-4.1109,-4.1109,-4.1078,-4.1006,-4.1572,-4.2089,-4.2032,-4.3331,-4.4404,-4.4424,-4.5092,-4.5612,-4.5594,-4.5594,-4.5594,-4.5594,-4.5594,-4.5594,-4.5594,-4.5594,-4.5594,-4.5594,-4.5594,-4.5594,-4.5594,-4.5594,-4.5594,-4.5594,-4.5594,-4.5594,-4.5594,-4.5594,-4.5594,-4.5594,-4.5594,-4.5594,-4.5594,-4.5594,-4.5594,-4.5594,-4.5594,-4.5594,-4.5594,-4.5594,-4.5594,-4.5594,-4.5594,-4.5594,-4.5594,-4.5594,-4.5594,-4.5586,0.0,0.0,0.0,0.0,0.0,0.0,0.0,0.0,0.0,0.0,0.0,0.0,0.0,0.0,0.0,0.0,0.0,0.0,0.0,0.0,-2.5703,-2.5703,-2.5703,-2.5701,-2.5696,-2.5694,-2.5692,-2.5707,-2.5707,-2.6058,-2.6723,-2.6918,-2.7707,-2.8985,-2.9325,-2.9805,-3.0358,-3.0474,-3.0519,-3.0492,-3.0444,-3.0408,-3.0404,-3.0404,-3.0404,0.0,0.0,0.0,0.0,0.0,0.0,0.0,-3.0404,-3.0865,-3.1454,-3.1657,-3.2838,-3.4124,-3.4435,-3.6436,0.0,-3.8566,-3.986,-4.1109,-4.1109,-4.1109,-4.1078,-4.1006,-4.1146,-4.1625,-4.2854,-4.3372,-4.405,-4.5276,-4.5621,-4.5712,-4.5612,-4.5594,-4.5594,-4.5594,-4.5594,-4.5594,-4.5594,-4.5594,-4.5594,-4.5594,-4.5594,-4.5594,-4.5594,-4.5594,-4.5594,-4.5594,-4.5594,-4.5594,-4.5594,-4.5594,-4.5594,-4.5594,-4.5594,-4.5594,-4.5594,-4.5594,-4.5594,-4.5594,-4.5594,-4.5594,-4.5594,-4.5594,-4.5594,-4.5594,-4.5594,-4.5594,-4.5594,-4.5594,-4.5594,-4.5586,0.0,0.0,0.0,0.0,0.0,0.0,0.0,0.0,0.0,0.0,0.0,0.0,0.0,0.0,0.0,0.0,0.0,0.0,0.0,0.0,0.0,-2.5702,-2.57,-2.5698,-2.5694,-2.6102,-2.6315,-2.6313,-2.6741,-2.6956,-2.7016,-2.7855,-2.8699,-2.9513,-2.9877,-3.0218,-3.0548,-3.0487,-3.046,-3.0455,-3.0377,-3.0373,-3.0404,-3.0354,-3.0373,-3.0404,-3.0404,0.0,0.0,0.0,0.0,0.0,0.0,0.0,-3.1877,-3.2777,-3.3679,-3.4523,-3.5067,-3.6828,0.0,-3.9582,0.0,-4.1109,-4.1109,-4.1109,-4.1083,-4.1061,-4.1054,-4.1543,-4.3144,-4.3458,-4.3972,-4.5594,-4.5809,-4.5778,-4.5715,-4.5646,-4.5594,-4.5594,-4.5594,-4.5594,-4.5594,-4.5594,-4.5594,-4.5594,-4.5594,-4.5594,-4.5594,-4.5594,-4.5594,-4.5594,-4.5594,-4.5594,-4.5594,-4.5594,-4.5594,-4.5594,-4.5594,-4.5594,-4.5594,-4.5594,-4.5594,-4.5594,-4.5594,-4.5594,-4.5594,-4.5594,-4.5594,-4.5594,-4.5594,-4.5594,-4.5594,-4.5594,-4.5594,-4.5605,0.0,0.0,0.0,0.0,0.0,0.0,0.0,0.0,0.0,0.0,0.0,0.0,0.0,0.0,0.0,0.0,0.0,0.0,0.0,0.0,0.0,0.0,-2.6067,-2.6142,-2.6142,-2.6861,-2.7211,-2.7211,-2.8108,-2.8166,-2.7484,-2.8929,-2.9632,-2.9715,-3.0328,-3.056,-3.0487,-3.0431,-3.0404,-3.0404,-3.0342,-3.0348,-3.0379,-3.0342,-3.0348,-3.0404,-3.0404,-3.0404,-3.0423,-3.0577,0.0,0.0,0.0,0.0,-3.2449,-3.4016,-3.4606,-3.4945,-3.5929,-3.7473,-3.9138,-4.0524,-4.0992,0.0,-4.1109,-4.1109,-4.1109,-4.1109,-4.1109,-4.1548,-4.3044,-4.3422,-4.4007,-4.5478,-4.5774,-4.5815,-4.5807,-4.5684,-4.5594,-4.5594,-4.5594,-4.5594,-4.5594,-4.5594,-4.5594,-4.5594,-4.5594,-4.5594,-4.5594,-4.5594,-4.5594,-4.5594,-4.5594,-4.5594,-4.5594,-4.5594,-4.5594,-4.5594,-4.5594,-4.5594,-4.5594,-4.5594,-4.5594,-4.5594,-4.5594,-4.5594,-4.5594,-4.5594,-4.5594,-4.5594,-4.5594,-4.5594,-4.5594,-4.5594,-4.5594,-4.5594,0.0,0.0,0.0,0.0,0.0,0.0,0.0,0.0,0.0,0.0,-2.4258,0.0,0.0,0.0,0.0,0.0,0.0,0.0,0.0,0.0,0.0,0.0,-2.7548,-2.7956,-2.7953,-2.8069,-2.8127,-2.8127,-2.9007,-2.9378,-2.9261,-2.9495,-2.9911,-3.0451,-3.0561,-3.0527,-3.0408,-3.039,-3.0404,-3.0404,-3.0398,-3.0379,-3.0404,-3.0398,-3.0379,-3.0404,-3.0404,-3.0404,-3.0519,-3.1269,-3.1525,0.0,0.0,0.0,-3.4011,-3.4249,-3.4983,-3.5883,-3.6735,0.0,-3.9683,0.0,-4.0542,-4.1109,0.0,0.0,-4.1109,-4.1109,-4.1109,-4.14,-4.237,-4.317,-4.3955,-4.4805,-4.5478,-4.5863,-4.5801,-4.5684,-4.5594,-4.5594,-4.5594,-4.5594,-4.5594,-4.5594,-4.5594,-4.5594,-4.5594,-4.5594,-4.5594,-4.5594,-4.5594,-4.5594,-4.5594,-4.5594,-4.5594,-4.5594,-4.5594,-4.5594,-4.5594,-4.5594,-4.5594,-4.5594,-4.5594,-4.5594,-4.5594,-4.5594,-4.5594,-4.5594,-4.5594,-4.5594,-4.5594,-4.5594,-4.5594,-4.5594,-4.5594,-4.5594,0.0,0.0,0.0,0.0,0.0,0.0,0.0,0.0,0.0,0.0,0.0,-2.5273,0.0,0.0,0.0,0.0,0.0,0.0,0.0,0.0,0.0,0.0,-2.8091,-2.8305,-2.8303,-2.8771,-2.9025,-2.9025,-2.9865,-3.0274,0.0,-3.0274,-3.0394,0.0,0.0,0.0,0.0,-3.0404,-3.0404,-3.0404,-3.0367,-3.0394,-3.0499,0.0,0.0,0.0,0.0,0.0,-3.1872,-3.2237,-3.242,-3.2618,-3.3429,0.0,0.0,0.0,-3.5535,-3.6092,-3.6978,-3.8149,-3.9234,0.0,-4.0464,-4.1109,-4.1109,-4.1109,-4.1109,-4.1109,-4.1109,-4.1363,-4.224,-4.2708,-4.325,-4.4048,-4.438,-4.453,-4.4455,-4.4336,-4.4415,-4.4814,-4.4874,-4.5056,-4.5556,-4.5594,-4.5594,-4.5594,-4.5594,-4.5594,-4.5594,-4.5594,-4.5594,-4.5594,-4.5594,-4.5594,-4.5594,-4.5594,-4.5594,-4.5594,-4.5594,-4.5594,-4.5594,-4.5594,-4.5594,-4.5594,-4.5594,-4.5594,-4.5594,-4.5594,-4.5594,-4.5594,-4.5594,-4.5594,-4.5594,-4.5594,-4.5594,-4.5594,0.0,0.0,0.0,0.0,0.0,0.0,0.0,0.0,0.0,0.0,0.0,0.0,0.0,0.0,0.0,0.0,0.0,0.0,0.0,0.0,0.0,0.0,0.0,-2.8947,-2.8947,-2.9572,-2.9905,-2.9905,0.0,0.0,-3.08,-3.08,-3.0726,0.0,-3.0593,-3.0531,0.0,-3.0416,-3.0402,-3.0411,-3.0375,-3.0427,0.0,0.0,0.0,0.0,0.0,-3.2979,-3.3018,-3.323,-3.3367,-3.3606,-3.4396,-3.4756,0.0,0.0,0.0,-3.6367,0.0,0.0,-3.8747,-3.9351,-4.0132,-4.0836,0.0,0.0,-4.1109,-4.1109,-4.1109,-4.1304,-4.1947,-4.2259,-4.2611,-4.3255,-4.3448,-4.3482,-4.3436,-4.3302,-4.3405,-4.3967,-4.4014,-4.4239,-4.4902,-4.496,-4.496,-4.496,-4.5152,-4.5267,-4.5267,-4.5479,-4.5594,-4.5594,-4.5594,-4.5594,-4.5594,-4.5594,-4.5594,-4.5594,-4.5594,-4.5594,-4.5594,-4.5594,-4.5594,-4.5594,-4.5594,-4.5594,-4.5594,-4.5594,-4.5594,-4.5594,-4.5594,-4.5594,-4.5594,-4.5594,-4.5594,-4.5594,0.0,0.0,0.0,0.0,0.0,0.0,0.0,0.0,0.0,0.0,0.0,0.0,0.0,0.0,-2.6932,-2.6932,0.0,0.0,0.0,0.0,0.0,0.0,0.0,0.0,0.0,-3.0703,-3.0742,0.0,0.0,0.0,-3.08,-3.08,-3.0726,-3.0593,-3.0593,-3.0568,-3.0487,0.0,0.0,0.0,0.0,0.0,0.0,0.0,-3.1891,0.0,-3.287,-3.3184,-3.3316,-3.4148,-3.4424,-3.4579,-3.5363,-3.5712,-3.5847,0.0,0.0,0.0,0.0,-3.7301,0.0,-3.865,-3.9273,-4.0073,0.0,0.0,-4.1109,-4.1109,-4.1109,-4.1109,-4.1168,-4.1849,-4.2415,-4.2454,-4.3058,-4.35,-4.3497,-4.3313,-4.3207,-4.3258,-4.3193,-4.3181,-4.322,-4.3239,-4.3239,-4.3239,-4.3932,-4.4374,-4.4374,-4.5152,-4.5594,-4.5594,-4.5594,-4.5594,-4.5594,-4.5594,-4.5594,-4.5594,-4.5594,-4.5594,-4.5594,-4.5594,-4.5594,-4.5594,-4.5594,-4.5594,-4.5594,-4.5594,-4.5594,-4.5594,-4.5594,-4.5594,-4.5594,-4.5594,-4.5594,-4.5594,0.0,0.0,0.0,0.0,0.0,0.0,0.0,0.0,0.0,0.0,0.0,0.0,0.0,-2.6816,-2.7225,-2.7792,-2.8628,0.0,0.0,0.0,0.0,0.0,0.0,0.0,0.0,-3.08,0.0,0.0,0.0,-3.08,-3.08,-3.08,-3.0758,-3.0659,-3.0617,-3.0535,-3.0433,-3.0465,0.0,-3.1332,-3.139,-3.1773,-3.2414,-3.3245,-3.3602,-3.3745,-3.4517,-3.4793,-3.4851,-3.5162,-3.5332,-3.5451,-3.5739,-3.5897,-3.5955,-3.5955,0.0,0.0,0.0,0.0,0.0,-3.8454,-3.9195,-4.0034,-4.0894,-4.1109,-4.1109,-4.1109,-4.1109,-4.1109,-4.1109,-4.1363,-4.1576,-4.1576,-4.1798,-4.1932,-4.1893,-4.1836,-4.1922,-4.2312,-4.2349,-4.2529,-4.3055,-4.3104,-4.3104,-4.3104,-4.3374,-4.3528,-4.3528,-4.3835,-4.3989,-4.3989,-4.3989,-4.4239,-4.4759,-4.5325,-4.5594,-4.5594,-4.5594,-4.5594,-4.5594,-4.5594,-4.5594,-4.5594,-4.5594,-4.5594,-4.5594,-4.5594,-4.5594,-4.5594,-4.5594,-4.5594,-4.5594,-4.5594,-4.5594,-4.5594,0.0,0.0,0.0,0.0,0.0,0.0,0.0,0.0,0.0,0.0,0.0,0.0,0.0,0.0,-2.8201,-2.9078,-2.9699,-3.0262,-3.0826,-3.0822,0.0,0.0,0.0,0.0,0.0,0.0,0.0,0.0,0.0,0.0,0.0,-3.08,-3.076,-3.0661,-3.0642,-3.056,0.0,-3.0801,-3.1306,-3.1891,-3.2234,-3.2756,-3.346,-3.4575,-3.5029,-3.5166,-3.5969,-3.6245,-3.6187,-3.5895,-3.5864,-3.5936,-3.5936,-3.5955,-3.5992,0.0,0.0,0.0,-3.5992,0.0,0.0,0.0,-3.8786,-3.9624,-4.0464,-4.0894,-4.1109,-4.1109,-4.1109,-4.1109,-4.1109,-4.1109,-4.1109,-4.1109,-4.1109,-4.1081,-4.105,-4.1006,-4.1151,-4.1548,-4.1536,-4.1699,-4.2236,-4.2252,-4.222,-4.222,-4.2508,-4.2662,-4.2662,-4.2931,-4.3104,-4.3104,-4.3104,-4.3355,-4.3893,-4.447,-4.4902,-4.5171,-4.5171,-4.5325,-4.5594,-4.5594,-4.5594,-4.5594,-4.5594,-4.5594,-4.5594,-4.5594,-4.5594,-4.5594,-4.5594,-4.5594,-4.5594,-4.5594,-4.5594,-4.5594,0.0,0.0,0.0,0.0,0.0,0.0,0.0,0.0,0.0,0.0,0.0,0.0,0.0,0.0,0.0,-3.0725,-3.0865,-3.0866,-3.0801,-3.08,0.0,0.0,0.0,0.0,0.0,0.0,0.0,0.0,0.0,0.0,0.0,0.0,-3.0726,-3.0597,-3.0706,-3.0698,-3.0687,-3.1474,-3.1903,-3.215,-3.3035,-3.3429,-3.367,-3.5407,-3.6051,-3.6148,-3.7028,-3.734,-3.7204,-3.6324,-3.6031,-3.6031,-3.6012,0.0,0.0,0.0,0.0,0.0,0.0,0.0,0.0,-3.7087,-3.7947,-3.8786,-3.9605,-4.0444,-4.107,-4.109,-4.1109,-4.1109,-4.1109,-4.1109,-4.1109,-4.1109,-4.1109,-4.1109,-4.1109,-4.1033,-4.0994,-4.099,-4.0825,-4.0706,-4.07,-4.0574,-4.0504,-4.0504,-4.1296,-4.175,-4.175,-4.2566,-4.3028,-4.3028,-4.3047,-4.3066,-4.3066,-4.3085,-4.3489,-4.4259,-4.4259,-4.472,-4.5556,-4.5556,-4.5575,-4.5594,-4.5594,-4.5594,-4.5594,-4.5594,-4.5594,-4.5594,-4.5594,-4.5594,-4.5594,-4.5594,-4.5594,-4.5594,0.0,0.0,0.0,0.0,0.0,0.0,0.0,0.0,0.0,0.0,0.0,0.0,0.0,0.0,-3.064,-3.0853,-3.0889,-3.0888,-3.0866,-3.0823,-3.08,-3.08,-3.08,0.0,0.0,0.0,0.0,0.0,0.0,0.0,0.0,0.0,0.0,0.0,-3.1329,-3.1593,-3.1552,-3.1838,-3.2692,-3.3951,-3.4878,-3.5264,-3.5465,-3.7223,-3.7497,-3.7048,-3.7927,-3.824,-3.8103,-3.7223,-3.6931,-3.6833,-3.6207,0.0,0.0,0.0,0.0,0.0,-3.5992,0.0,0.0,0.0,0.0,0.0,-3.9468,-3.9995,-4.0346,-4.0973,-4.1109,-4.1109,-4.1109,-4.1109,-4.1109,-4.1109,-4.1109,-4.1109,-4.1109,-4.108,-4.104,-4.1016,-4.0956,-4.0885,-4.0776,-4.0699,-4.0642,0.0,-4.0769,-4.0854,-4.0854,-4.1093,-4.1227,-4.1227,-4.1835,-4.2162,-4.2162,-4.2777,-4.3201,-4.3431,-4.3431,-4.3855,-4.4662,-4.4662,-4.4998,-4.5594,-4.5594,-4.5594,-4.5594,-4.5594,-4.5594,-4.5594,-4.5594,-4.5594,-4.5594,-4.5594,-4.5594,-4.5594,0.0,0.0,0.0,0.0,0.0,0.0,0.0,0.0,0.0,0.0,0.0,0.0,0.0,0.0,-3.0893,-3.085,-3.0889,-3.0887,-3.0865,-3.0822,-3.08,-3.08,-3.08,-3.08,0.0,0.0,0.0,0.0,0.0,0.0,0.0,0.0,0.0,0.0,0.0,0.0,0.0,-3.307,-3.3863,-3.519,-3.6096,-3.667,-3.716,-3.8566,-3.8572,-3.7908,-3.8415,-3.8376,-3.7927,-3.7048,-3.6755,-3.6677,-3.6168,-3.5992,0.0,0.0,0.0,0.0,0.0,0.0,0.0,-3.6636,0.0,0.0,-3.898,-3.9566,-4.0054,-4.0914,-4.1109,-4.1109,-4.1109,-4.1109,-4.1109,-4.1109,-4.1109,-4.1109,-4.1109,-4.1109,-4.1081,-4.1054,-4.1028,-4.0974,-4.089,-4.0801,-4.0734,-4.07,-4.0622,-4.0564,-4.0496,-4.0496,-4.0496,-4.0496,-4.0989,-4.1258,-4.1258,-4.1758,-4.22,-4.2566,-4.2582,-4.3025,-4.3797,-4.3794,-4.4256,-4.5056,-4.5056,-4.5267,-4.5594,-4.5594,-4.5594,-4.5594,-4.5594,-4.5594,-4.5594,-4.5594,-4.5594,-4.5594,0.0,0.0,0.0,0.0,0.0,0.0,0.0,0.0,0.0,0.0,0.0,0.0,0.0,0.0,0.0,0.0,-3.0943,-3.0963,-3.0801,-3.0898,0.0,0.0,-3.08,-3.08,0.0,0.0,0.0,0.0,0.0,0.0,0.0,0.0,0.0,0.0,0.0,0.0,0.0,-3.47,-3.5218,-3.6014,-3.6782,-3.7525,-3.8255,-3.9279,-3.9156,-3.8474,-3.8572,-3.8103,-3.7301,-3.6441,-3.607,-3.5992,-3.5992,-3.5992,-3.5992,0.0,-3.5992,0.0,0.0,0.0,0.0,0.0,-3.6578,0.0,-3.8259,-3.9019,-3.9761,-4.0641,-4.0816,-4.0855,-4.0934,-4.0953,-4.0992,-4.109,-4.1109,-4.1109,-4.1109,-4.1109,-4.1109,-4.1109,-4.1054,-4.1003,-4.1003,-4.0898,-4.0806,-4.0748,-4.0724,-4.0668,-4.0537,-4.053,-4.053,-4.053,-4.053,-4.053,-4.053,-4.053,-4.0927,-4.1674,-4.1754,-4.221,-4.2967,-4.2957,-4.342,-4.4171,-4.4259,-4.4739,-4.546,-4.5556,-4.5594,-4.5594,-4.5594,-4.5594,-4.5594,-4.5594,-4.5594,-4.5594,0.0,0.0,0.0,0.0,0.0,0.0,0.0,0.0,0.0,0.0,0.0,0.0,0.0,0.0,0.0,0.0,-3.1447,-3.1564,-3.0859,-3.1465,-3.1524,-3.0839,-3.08,-3.08,-3.08,0.0,0.0,0.0,0.0,0.0,0.0,0.0,0.0,0.0,0.0,0.0,0.0,-3.5346,-3.612,-3.6854,-3.7036,-3.6848,-3.6646,-3.8237,-3.8298,-3.7653,-3.8357,-3.8494,-3.8201,-3.734,-3.6578,-3.5992,-3.5992,-3.5992,-3.5992,-3.5992,-3.5992,0.0,0.0,0.0,0.0,-3.5992,-3.6129,0.0,-3.734,-3.7672,-3.8043,-3.8903,-3.9099,-3.9294,-3.9937,-4.0054,-4.0288,-4.0992,-4.1109,-4.1109,-4.1109,-4.1109,-4.1109,-4.1109,-4.1083,-4.1078,-4.1078,-4.1011,-4.0963,-4.0929,-4.0844,-4.0771,-4.0751,-4.0745,-4.0745,-4.0745,-4.0745,-4.0745,-4.0745,-4.0732,-4.0793,-4.092,-4.0974,-4.1416,-4.214,-4.2182,-4.2625,-4.3365,-4.4025,-4.4393,-4.4605,-4.5306,-4.5594,-4.5594,-4.5594,-4.5594,-4.5594,-4.5594,-4.5594,-4.5594,0.0,0.0,0.0,0.0,0.0,0.0,0.0,0.0,0.0,0.0,0.0,0.0,0.0,0.0,0.0,0.0,0.0,0.0,0.0,0.0,-3.2558,-3.2128,-3.2108,-3.2108,-3.2108,-3.2108,0.0,0.0,0.0,0.0,0.0,0.0,0.0,0.0,0.0,0.0,0.0,-3.5727,-3.6158,-3.6584,-3.6952,-3.713,-3.729,-3.8232,-3.8064,-3.7419,-3.8298,-3.8591,-3.8533,-3.8103,-3.7653,-3.7223,-3.6794,-3.6656,-3.6558,-3.6129,-3.5992,-3.5992,-3.5992,-3.5992,-3.5992,-3.5992,-3.5992,0.0,0.0,-3.7301,-3.7555,-3.8415,-3.8591,-3.8728,-3.9138,-3.9195,-3.9333,-3.9782,-4.0192,-4.0307,-3.9918,-4.0563,-4.1109,-4.1109,-4.1109,-4.1109,-4.1109,-4.1072,-4.1044,-4.0994,-4.0882,-4.081,-4.081,-4.081,-4.081,-4.081,-4.0805,-4.079,-4.079,-4.0792,-4.0779,-4.0747,-4.0824,-4.1027,-4.1341,-4.1341,-4.177,-4.2519,-4.2903,-4.3297,-4.3778,-4.4605,-4.496,-4.4998,-4.5441,-4.5594,-4.5594,-4.5594,-4.5594,-4.5594,-2.6191,0.0,0.0,0.0,0.0,0.0,0.0,0.0,0.0,0.0,0.0,0.0,0.0,0.0,0.0,0.0,0.0,0.0,0.0,-3.3552,-3.3572,-3.3416,0.0,-3.3396,-3.3396,-3.3396,0.0,0.0,0.0,0.0,0.0,0.0,0.0,0.0,0.0,0.0,0.0,0.0,-3.5947,-3.6048,-3.664,-3.7403,-3.8205,-3.8307,-3.8025,-3.7633,-3.8357,-3.8591,-3.8591,-3.8591,-3.8591,-3.8474,-3.777,-3.7555,-3.7379,-3.65,-3.6246,-3.6207,-3.6051,-3.5992,-3.5992,-3.5992,-3.5992,-3.6187,0.0,0.0,0.0,-3.7947,-3.8103,-3.8142,-3.8318,-3.8357,-3.8357,-3.8357,-3.9039,-3.9273,0.0,-3.9665,0.0,-4.0621,-4.0894,-4.1031,-4.0875,-4.0992,-4.1076,-4.1014,-4.0921,-4.0863,-4.0863,-4.0863,-4.0863,-4.0863,-4.0867,-4.0859,-4.0859,-4.0857,-4.0841,-4.0847,-4.0919,-4.0926,-4.0848,-4.0781,-4.111,-4.1704,-4.181,-4.2237,-4.2941,-4.3737,-4.4162,-4.4393,-4.5267,-4.5594,-4.5594,-4.5594,-4.5594,-4.5594,-2.8008,-2.8086,0.0,0.0,0.0,0.0,0.0,0.0,0.0,0.0,0.0,0.0,-3.324,-3.3338,-3.3396,-3.3396,-3.412,-3.4217,-3.3455,-3.412,0.0,0.0,-3.3396,-3.3396,-3.3396,-3.3396,0.0,0.0,0.0,0.0,0.0,0.0,0.0,0.0,-3.5504,0.0,0.0,-3.5988,-3.5989,-3.6012,-3.6085,-3.6651,-3.7432,-3.7437,-3.7869,-3.8474,-3.8552,-3.8591,-3.8591,-3.8591,-3.8591,-3.8572,-3.8474,-3.8454,-3.8279,-3.7419,-3.7145,-3.6989,-3.6207,-3.5992,-3.5992,-3.5992,-3.5992,-3.6031,-3.6129,0.0,-3.6187,-3.6265,0.0,-3.6539,-3.7301,0.0,0.0,-3.7458,-3.8162,-3.8435,-3.7575,-3.8279,-3.8884,-3.8884,-4.0192,-4.0797,-4.0015,-4.0659,-4.1108,-4.1083,-4.108,-4.1076,-4.1076,-4.1076,-4.1076,-4.1076,-4.1065,-4.1069,-4.1069,-4.1062,-4.1038,-4.0986,-4.1103,-4.1093,-4.0984,-4.0964,-4.098,-4.1041,-4.1701,-4.2009,-4.2111,-4.2899,-4.3662,-4.4393,-4.5267,-4.5594,-4.5594,-4.5594,-4.5594,-4.5594,-2.8398,-2.8711,0.0,0.0,0.0,0.0,0.0,0.0,0.0,0.0,0.0,0.0,-3.4159,-3.4606,-3.4919,-3.4919,-3.5231,-3.5309,-3.4938,-3.5251,0.0,0.0,-3.4919,-3.4919,-3.4919,-3.4919,0.0,0.0,-3.4919,0.0,0.0,0.0,0.0,0.0,-3.5836,-3.5992,-3.5992,-3.5992,-3.6285,-3.6755,-3.6755,-3.7555,-3.8648,-3.7672,-3.8121,-3.9292,-3.9292,-3.9626,-4.0055,-4.0055,-4.0055,-3.9958,-3.9468,-3.9292,-3.9136,-3.8298,-3.8045,-3.7869,-3.6989,-3.6755,-3.6636,-3.6129,-3.5992,-3.5992,-3.5992,-3.5992,-3.5992,-3.5992,0.0,0.0,0.0,0.0,0.0,0.0,-3.7282,-3.7536,-3.6677,-3.7731,-3.8591,-3.8591,-3.9216,-3.9684,-3.98,-3.9704,-4.0055,-4.1031,-4.062,-4.0561,-4.107,-4.1093,-4.1095,-4.1095,-4.1103,-4.1108,-4.1108,-4.1131,-4.1131,-4.1126,-4.1171,-4.1149,-4.1067,-4.1019,-4.0979,-4.0977,-4.1207,-4.1281,-4.1324,-4.2162,-4.2666,-4.2995,-4.3875,-4.4784,-4.5594,-4.5594,-4.5594,-4.5594,-2.941,0.0,0.0,0.0,0.0,0.0,0.0,0.0,-3.3754,-3.3768,-3.453,-3.5154,-3.5389,-3.5758,-3.6109,-3.6344,-3.6148,-3.5992,-3.5992,-3.5992,-3.5992,-3.5992,-3.5992,-3.5992,-3.5992,-3.5992,0.0,0.0,0.0,0.0,0.0,0.0,0.0,0.0,0.0,-3.5992,-3.5992,-3.5992,-3.65,-3.7301,-3.7301,-3.8297,-3.9683,-3.8707,-3.9097,-4.0151,-4.0151,-4.0561,-4.1109,-4.1109,-4.1109,-4.0992,-4.0366,-4.0151,-3.9995,-3.9177,-3.8923,-3.8747,-3.7887,-3.7653,-3.7458,-3.6578,-3.6363,-3.6285,-3.6051,-3.5992,-3.5992,-3.5992,-3.5992,0.0,0.0,0.0,0.0,0.0,0.0,-3.6638,-3.5778,-3.6931,-3.7888,-3.7888,-3.8103,-3.8572,0.0,-3.8942,-3.9196,-4.0641,-4.0151,-4.0172,-4.1054,-4.1097,-4.1099,-4.1101,-4.1108,-4.1092,-4.1092,-4.1172,-4.1191,-4.1191,-4.1191,-4.1172,-4.1132,-4.1082,-4.1049,-4.1019,-4.0919,-4.0855,-4.0898,-4.1498,-4.1833,-4.202,-4.2653,-4.3747,-4.498,-4.5169,-4.5402,-4.5594,-3.1825,-3.138,0.0,0.0,-3.2041,-3.2349,-3.3222,-3.41,-3.4666,-3.4666,-3.5426,-3.6285,-3.7126,-3.648,-3.6344,-3.7184,-3.648,-3.5992,-3.5992,-3.5992,-3.5992,-3.5992,-3.5992,-3.5992,-3.5992,-3.5992,-3.5992,0.0,0.0,0.0,0.0,0.0,0.0,0.0,-3.5992,-3.5992,-3.5992,-3.5992,-3.65,-3.7301,-3.7301,-3.8297,-3.9897,-4.068,-4.1012,-4.1051,-4.1051,-4.109,-4.1109,-4.1109,-4.1109,-4.1109,-4.107,-4.1051,-4.0894,-4.0015,-3.9761,-3.9585,-3.8786,-3.8552,-3.8357,-3.7477,-3.7262,-3.7048,-3.6187,-3.5992,-3.5992,-3.5992,-3.5992,-3.5992,-3.5992,0.0,0.0,0.0,0.0,0.0,0.0,-3.5525,-3.607,-3.607,-3.6833,-3.7672,-3.8552,-3.8611,-3.8942,-3.978,-3.9819,-4.0174,-4.1059,-4.1098,-4.1101,-4.1107,-4.1091,-4.1092,-4.1092,-4.1172,-4.1191,-4.1191,-4.1191,-4.1191,-4.1191,-4.1191,-4.1152,-4.1091,-4.1028,-4.1001,-4.0992,-4.0883,-4.1334,-4.2097,-4.2116,-4.261,-4.3361,-4.4086,-4.4874,-4.5594,0.0,0.0,0.0,-3.2914,-3.2955,-3.3247,-3.4121,-3.4998,-3.5779,-3.6345,-3.6677,-3.7184,-3.8064,-3.7908,-3.7849,-3.8123,-3.7888,-3.7711,-3.7711,-3.7711,-3.7458,-3.6891,-3.6852,-3.6597,-3.6012,-3.5992,-3.5992,-3.5992,0.0,0.0,0.0,0.0,0.0,0.0,0.0,-3.5992,-3.6031,-3.6617,-3.736,-3.8259,-3.9372,-4.0153,-4.0698,-4.0992,-4.1109,-4.1109,-4.1109,-4.1109,-4.1109,-4.1109,-4.1109,-4.1109,-4.1109,-4.1109,-4.1031,-4.0758,-4.0659,-4.0483,-3.9624,-3.939,-3.9195,-3.8376,-3.8162,-3.7927,-3.7067,-3.6852,-3.6696,-3.6129,-3.5992,-3.5992,-3.5992,0.0,0.0,0.0,0.0,0.0,0.0,-3.5817,-3.5992,-3.5992,-3.6265,-3.6774,-3.7653,-3.7223,-3.7477,-3.8903,-3.8473,-3.8789,-4.022,-4.0302,-4.054,-4.1071,-4.1132,-4.1172,-4.1172,-4.1191,-4.1191,-4.1191,-4.1191,-4.1191,-4.1191,-4.1191,-4.1191,-4.1152,-4.1108,-4.1061,-4.1052,-4.1014,-4.1148,-4.1361,-4.1361,-4.1829,-4.2551,-4.331,-4.3732,-4.4008,-3.3806,-3.3866,-3.3866,-3.3866,-3.4122,-3.4611,-3.5487,-3.6091,-3.6774,-3.7653,-3.775,-3.8084,-3.8923,-3.8767,-3.8728,-3.9001,-3.8767,-3.8591,-3.8591,-3.8591,-3.8357,-3.7789,-3.775,-3.734,-3.648,-3.6461,-3.6305,-3.5992,-3.5992,-3.5992,0.0,0.0,0.0,0.0,0.0,-3.6168,-3.65,-3.7067,-3.7965,-3.9157,-4.0543,-4.1109,-4.1109,-4.1109,-4.1109,-4.1109,-4.1109,-4.1109,-4.1109,-4.1109,-4.1109,-4.1109,-4.1109,-4.1109,-4.1109,-4.1109,-4.1109,-4.0973,-4.0408,-4.0253,-4.0078,-3.9261,-3.9066,-3.8832,-3.7951,-3.7754,-3.752,-3.664,-3.6463,-3.6366,-3.6058,0.0,0.0,0.0,0.0,0.0,0.0,-3.5992,-3.5992,-3.5992,-3.5992,-3.6226,-3.6774,-3.6324,-3.6597,-3.8025,-3.7614,-3.8068,-3.9814,-3.9895,-4.0289,-4.1112,-4.1172,-4.1191,-4.1191,-4.1191,-4.1191,-4.1191,-4.1191,-4.1191,-4.1191,-4.1191,-4.1191,-4.1191,-4.1152,-4.1111,-4.1108,-4.1104,-4.1067,-4.103,-4.1047,-4.1315,-4.179,-4.2491,-4.2891,-4.3162,-3.4608,-3.4803,-3.4842,-3.4881,-3.5545,-3.6363,-3.7223,-3.736,-3.7672,-3.8552,-3.8669,-3.8962,-3.978,-3.9177,-3.9021,-3.98,-3.9177,-3.8728,-3.8728,-3.8728,-3.8708,-3.8669,-3.8669,-3.8259,-3.7379,-3.736,-3.6931,-3.6051,-3.6051,0.0,0.0,0.0,0.0,0.0,-3.6051,0.0,-3.7301,-3.7399,-3.8375,-3.9937,-4.0777,-4.1109,-4.1109,-4.1109,-4.1109,-4.1109,-4.1109,-4.1109,-4.1109,-4.1109,-4.1109,-4.1109,-4.1109,-4.1109,-4.1109,-4.109,-4.109,-4.1091,-4.1098,-4.1099,-4.0925,-4.0148,-3.9955,-3.9739,-3.8856,-3.866,-3.8425,-3.7546,-3.7326,-3.7053,-3.6223,0.0,0.0,0.0,0.0,0.0,0.0,0.0,-3.5992,-3.5992,-3.5992,-3.5992,-3.5992,-3.5992,-3.6344,-3.7165,-3.7243,-3.7972,-3.9681,-3.9818,-4.0231,-4.1113,-4.1172,-4.1191,-4.1191,-4.1191,-4.1191,-4.1191,-4.1191,-4.1191,-4.1191,-4.1191,-4.1191,-4.1191,-4.1191,-4.1152,-4.1092,-4.1108,-4.1104,-4.1098,-4.1093,-4.1064,-4.1071,-4.164,-4.2353,-4.3052,-3.5621,-3.6189,-3.6833,-3.7498,-3.7243,-3.7262,-3.8123,-3.8279,-3.8552,-3.937,-3.9488,-3.9819,-4.068,-4.0582,-4.0543,-4.0758,-4.0582,-4.0465,-4.0465,-4.0465,-4.0172,-3.9527,-3.9488,-3.9117,-3.8279,-3.8279,-3.7849,-3.697,-3.697,0.0,-3.5992,0.0,0.0,0.0,0.0,-3.7087,-3.7379,-3.8629,-3.978,-4.0797,-4.1012,-4.1109,-4.1109,-4.1109,-4.1093,-4.1095,-4.1091,-4.1093,-4.1095,-4.1091,-4.1093,-4.1097,-4.1097,-4.1097,-4.1098,-4.1102,-4.11,-4.1098,-4.1104,-4.1102,-4.1042,-4.0833,-4.0794,-4.058,-3.9758,-3.9563,-3.9328,-3.845,-3.7747,-3.7238,-3.7003,0.0,0.0,0.0,0.0,0.0,0.0,0.0,-3.5992,-3.5992,-3.5992,-3.5992,-3.5992,-3.5992,-3.609,-3.6324,-3.6324,-3.682,-3.7904,-3.8588,-3.9334,-4.0215,-4.0859,-4.1191,-4.1191,-4.1191,-4.1191,-4.1191,-4.1191,-4.1191,-4.1191,-4.1191,-4.1191,-4.1191,-4.1191,-4.1152,-4.1092,-4.1091,-4.1107,-4.1098,-4.1097,-4.1051,-4.1,-4.1067,-4.1618,-4.2366,-3.7145,-3.7536,-3.8123,-3.8982,-3.8726,-3.8551,-3.9058,-3.9118,-3.9409,-4.0268,-4.0366,-4.0561,-4.1051,-4.1109,-4.1109,-4.1109,-4.1109,-4.1109,-4.1109,-4.1109,-4.0875,-4.0385,-4.0366,-3.9976,-3.9138,-3.9118,-3.8708,-3.7869,-3.7869,0.0,-3.7145,0.0,0.0,0.0,0.0,-3.8063,-3.8473,-3.9819,-4.0659,-4.1109,-4.1093,-4.1094,0.0,-4.1098,-4.11,-4.1102,-4.11,-4.11,-4.1102,-4.1099,-4.11,-4.1102,-4.1102,-4.1102,-4.1103,-4.1106,-4.1105,-4.1104,-4.1108,-4.1108,-4.1107,-4.115,-4.1131,-4.1014,-4.0524,-4.0426,-4.0191,-3.9332,-3.8784,-3.8198,-3.7438,-3.6907,0.0,0.0,0.0,0.0,0.0,-3.5992,-3.5992,-3.5992,-3.5992,-3.5992,-3.5992,-3.5992,-3.5992,-3.5992,-3.5992,-3.637,-3.7241,-3.7768,-3.8611,-3.9863,-4.0371,-4.0801,-4.1191,-4.1191,-4.1191,-4.1191,-4.1191,-4.1191,-4.1191,-4.1191,-4.1191,-4.1191,-4.1191,-4.1172,-4.1132,-4.1112,-4.111,-4.1105,-4.11,-4.1083,-4.1028,-4.0958,-4.119,-4.1524,-3.8747,-3.8767,-3.9001,-3.9839,-3.9976,-3.9976,-3.9976,-3.9976,-4.0249,-4.0992,-4.1109,-4.1109,-4.1109,-4.1109,-4.1109,-4.1109,-4.1109,-4.1109,-4.1109,-4.1109,-4.1109,-4.1109,-4.1109,-4.0758,-3.9995,-3.9976,-3.9566,-3.8767,-3.8767,0.0,0.0,0.0,0.0,0.0,0.0,0.0,0.0,-4.0777,-4.1109,-4.1109,-4.1097,-4.1098,-4.1099,-4.1105,-4.1108,-4.1108,-4.1108,-4.1108,-4.1108,-4.1108,-4.1108,-4.1108,-4.1108,-4.1108,-4.1108,-4.1108,-4.1108,-4.1108,-4.1111,-4.1112,-4.1112,-4.1172,-4.1191,-4.1172,-4.1132,-4.1112,-4.0916,-4.0213,-3.9977,-3.9431,-3.7929,-3.7458,0.0,0.0,0.0,0.0,-3.5995,-3.5995,-3.5994,-3.5994,-3.5994,0.0,-3.5992,-3.5992,-3.5992,-3.5992,-3.5992,-3.6331,-3.7085,0.0,-3.8045,-3.9687,-3.9844,-4.0312,-4.1191,-4.1191,-4.1191,-4.1191,-4.1191,-4.1191,-4.1191,-4.1191,-4.1191,-4.1191,-4.1191,-4.1191,-4.1191,-4.1132,-4.1112,-4.1091,-4.1103,-4.1095,-4.1091,-4.1109,-4.0981,-4.0846,-3.9468,-3.9585,-3.9858,-4.0719,-4.0875,-4.0875,-4.0875,-4.0875,-4.0934,-4.109,-4.1109,-4.1109,-4.1109,-4.1109,-4.1109,-4.1109,-4.1109,-4.1109,-4.1109,-4.1109,-4.1109,-4.1109,-4.1109,-4.1031,-4.0875,-4.0875,-4.0444,-3.9585,-3.9585,0.0,0.0,0.0,0.0,0.0,0.0,0.0,-4.0875,-4.1031,0.0,-4.1109,-4.1097,-4.1098,-4.1099,-4.1105,-4.1109,-4.1091,-4.1091,-4.1091,-4.1091,-4.1108,-4.1109,-4.1091,-4.1091,-4.1091,-4.1111,-4.1171,-4.1132,-4.1111,-4.1172,-4.1132,-4.1112,-4.1172,-4.1191,-4.1191,-4.1191,-4.1172,-4.1133,-4.0996,-4.039,-3.9804,-3.9492,-3.8278,0.0,0.0,0.0,-3.6004,-3.6008,-3.6005,-3.6002,-3.6002,-3.6002,-3.6,-3.5992,-3.5992,-3.5992,-3.5992,-3.5992,-3.6077,-3.6225,0.0,-3.7771,0.0,-3.9531,-4.0312,0.0,-4.1191,-4.1191,-4.1191,-4.1191,-4.1191,-4.1191,-4.1191,-4.1191,-4.1191,-4.1191,-4.1191,-4.1191,-4.1191,-4.1152,-4.1091,-4.1103,-4.1098,-4.1097,-4.1091,-4.1081,-4.1048,-4.0405,-4.0464,-4.06,-4.1031,-4.1109,-4.1109,-4.1109,-4.1109,-4.1109,-4.1109,-4.1109,-4.1109,-4.1109,-4.1109,-4.1109,-4.1109,-4.1109,-4.1109,-4.1109,-4.1109,-4.1109,-4.1109,-4.1109,-4.1109,-4.1109,-4.1109,-4.0894,-4.0464,-4.0464,-4.0289,0.0,0.0,0.0,0.0,0.0,-4.0717,0.0,0.0,-4.1094,-4.1095,-4.1104,-4.1107,-4.1107,-4.113,-4.1151,-4.1152,-4.1152,-4.1152,-4.1152,-4.1151,-4.1151,-4.1152,-4.1152,-4.1152,-4.1152,-4.1191,-4.1172,-4.1152,-4.1191,-4.1172,-4.1152,-4.1191,-4.1191,-4.1191,-4.1191,-4.1191,-4.1191,-4.1191,-4.0879,-4.0449,-3.998,-3.8475,-3.7165,-3.6733,-3.6283,-3.6009,-3.5991,-3.6009,-3.6008,-3.6008,-3.6008,-3.6006,-3.6,-3.5999,-3.5999,-3.5999,-3.5995,-3.6,-3.5993,0.0,-3.7224,0.0,0.0,0.0,-4.1191,0.0,-4.1191,-4.1191,-4.1191,-4.1191,-4.1191,-4.1191,-4.1191,-4.1191,-4.1191,-4.1191,-4.1191,-4.1191,-4.1152,-4.1092,-4.1108,-4.1103,-4.1098,-4.1095,-4.1093,-4.1109,-4.1109,-4.1109,-4.1109,-4.1109,-4.1109,-4.1109,-4.1109,-4.1109,-4.1109,-4.1109,-4.1109,-4.1109,-4.1109,-4.1109,-4.1109,-4.1109,-4.1109,-4.1109,-4.1109,-4.1109,-4.1109,-4.1109,-4.1109,-4.1109,-4.1109,-4.1109,-4.1109,-4.1109,-4.1109,-4.1012,0.0,0.0,0.0,0.0,0.0,0.0,0.0,-4.1098,-4.11,-4.1101,-4.1109,-4.1092,-4.1112,-4.1172,-4.1191,-4.1191,-4.1191,-4.1191,-4.1191,-4.1191,-4.1191,-4.1191,-4.1191,-4.1191,-4.1191,-4.1191,-4.1191,-4.1191,-4.1191,-4.1191,-4.1191,-4.1191,-4.1191,-4.1191,-4.1191,-4.1191,-4.1191,-4.1191,-4.1191,-4.0937,-4.0058,-3.8788,-3.7733,-3.7361,-3.6715,-3.6207,-3.6032,-3.5992,-3.5992,-3.5992,-3.5992,-3.5991,-3.6006,-3.6005,-3.6005,-3.6006,-3.6,-3.6002,-3.5994,0.0,0.0,0.0,-3.8496,-3.9355,-4.0918,0.0,-4.1191,-4.1191,-4.1191,-4.1191,-4.1191,-4.1191,-4.1191,-4.1191,-4.1191,-4.1191,-4.1191,-4.1191,-4.1172,-4.1112,-4.1112,-4.1108,-4.1102,-4.1101,-4.1097,-4.1091,-4.1109,-4.1109,-4.1109,-4.1109,-4.1109,-4.1109,-4.1109,-4.1109,-4.1109,-4.1109,-4.1109,-4.1109,-4.1109,-4.1109,-4.1109,-4.1109,-4.1109,-4.1109,-4.1109,-4.1109,-4.1109,-4.1109,-4.1109,-4.1109,-4.1109,-4.1109,-4.1109,-4.1109,-4.1109,-4.0698,-3.9937,0.0,0.0,0.0,0.0,-4.1098,-4.1098,-4.1104,-4.1107,-4.1107,-4.1091,-4.1092,-4.1112,-4.1172,-4.1191,-4.1191,-4.1191,-4.1191,-4.1191,-4.1191,-4.1191,-4.1191,-4.1191,-4.1191,-4.1191,-4.1191,-4.1191,-4.1191,-4.1191,-4.1191,-4.1191,-4.1191,-4.1191,-4.1191,-4.1191,-4.1191,-4.1191,-4.1191,-4.1191,-4.0937,-4.0058,-3.9766,-3.9141,-3.7558,-3.7226,-3.6893,-3.6113,-3.5995,-3.5995,-3.5995,-3.5995,-3.5994,-3.5991,-3.6007,-3.6006,-3.5991,-3.6006,-3.6006,-3.5991,0.0,0.0,-3.7382,-3.8183,-3.9062,-4.0019,-4.0801,-4.1191,-4.1191,-4.1191,-4.1191,-4.1191,-4.1191,-4.1191,-4.1191,-4.1191,-4.1191,-4.1191,-4.1191,-4.1191,-4.1172,-4.1112,-4.1091,-4.1091,-4.1108,-4.1103,-4.1098,-4.1109,-4.1109,-4.1109,-4.1109,-4.1537,-4.1888,-4.1888,-4.2318,-4.2651,-4.2651,-4.2201,-4.2084,-4.2593,-4.2651,-4.2651,-4.2651,-4.2181,-4.1888,-4.1888,-4.1382,-4.1109,-4.1109,-4.1109,-4.1109,-4.1109,-4.1109,-4.1109,-4.1109,-4.1109,-4.0914,-4.0581,0.0,0.0,0.0,-4.1098,-4.11,-4.1104,-4.1108,-4.109,-4.1091,-4.1132,-4.1152,-4.1152,-4.1191,-4.1191,-4.1191,-4.1191,-4.1191,-4.1191,-4.1191,-4.1191,-4.1191,-4.1191,-4.1191,-4.1191,-4.1191,-4.1191,-4.1191,-4.1191,-4.1191,-4.1191,-4.1191,-4.1191,-4.1191,-4.1191,-4.1191,-4.1191,-4.1191,-4.1191,-4.1094,-4.0742,-4.0254,-3.9668,-3.8965,-3.7988,-3.7187,-3.6836,-3.6328,-3.5996,-3.5996,-3.5996,-3.5995,-3.5994,-3.5991,-3.6008,-3.6007,-3.6001,-3.6003,-3.5993,0.0,0.0,-3.8047,0.0,-3.9277,-4.0664,-4.1035,-4.1191,-4.1191,-4.1191,-4.1191,-4.1191,-4.1191,-4.1191,-4.1191,-4.1191,-4.1191,-4.1191,-4.1191,-4.1191,-4.1191,-4.1172,-4.1132,-4.1092,-4.1091,-4.1108,-4.1104,-4.142,-4.1479,-4.1557,-4.1812,-4.2376,-4.2786,-4.2786,-4.3294,-4.3782,-4.4055,-4.3548,-4.3294,-4.3665,-4.3705,-4.3705,-4.3705,-4.3138,-4.2669,-4.2415,-4.181,-4.1363,-4.1109,-4.1109,-4.1109,-4.1109,-4.1109,-4.1109,-4.1109,-4.1109,-4.0973,-4.0717,-4.0717,-4.0857,-4.1097,-4.11,-4.1103,-4.1108,-4.1111,-4.1132,-4.1132,-4.1172,-4.1191,-4.1191,-4.1191,-4.1191,-4.1191,-4.1191,-4.1191,-4.1191,-4.1191,-4.1191,-4.1191,-4.1191,-4.1191,-4.1191,-4.1191,-4.1191,-4.1191,-4.1191,-4.1191,-4.1191,-4.1191,-4.1191,-4.1191,-4.1191,-4.1191,-4.1191,-4.1191,-4.1191,-4.1191,-4.1191,-4.0703,-4.0195,-3.9941,-3.8867,-3.7891,-3.7363,-3.6777,-3.6289,-3.6035,-3.5996,-3.5996,-3.5995,-3.5994,-3.5991,-3.6009,-3.6003,-3.6004,-3.5993,-3.6248,-3.6952,0.0,0.0,0.0,-4.0801,-4.1074,-4.1191,-4.1191,-4.1191,-4.1191,-4.1191,-4.1191,-4.1191,-4.1191,-4.1191,-4.1191,-4.1191,-4.1191,-4.1191,-4.1191,-4.1191,-4.1172,-4.1132,-4.1132,-4.1111,-4.1108,-4.222,-4.2376,-4.2669,-4.3528,-4.3686,-4.3686,-4.3686,-4.3686,-4.4016,-4.4875,-4.4971,-4.4641,-4.3782,-4.3705,-4.3705,-4.3705,-4.3686,-4.3313,-4.2454,-4.2396,-4.2006,-4.1148,-4.1109,-4.1109,-4.1109,-4.1109,-4.1109,-4.1109,-4.1109,-4.0659,-3.9819,-3.9819,-4.0288,-4.109,-4.1103,-4.1107,-4.1108,-4.1171,-4.1191,-4.1191,-4.1191,-4.1191,-4.1191,-4.1191,-4.1191,-4.1191,-4.1191,-4.1191,-4.1191,-4.1191,-4.1191,-4.1191,-4.1191,-4.1191,-4.1191,-4.1191,-4.1191,-4.1191,-4.1191,-4.1191,-4.1191,-4.1191,-4.1191,-4.1191,-4.1191,-4.1191,-4.1191,-4.1191,-4.1191,-4.1191,-4.1191,-4.1191,-4.0898,-4.0039,-3.9883,-3.9277,-3.7539,-3.7285,-3.6953,-3.6094,-3.5996,-3.5996,-3.5996,-3.5995,-3.5995,-3.5995,-3.5992,-3.5991,-3.5991,-3.6816,-3.7285,-3.7323,-3.8984,-3.9883,-3.9921,-4.0762,-4.1191,-4.1191,-4.1191,-4.1191,-4.1191,-4.1191,-4.1191,-4.1191,-4.1191,-4.1191,-4.1191,-4.1191,-4.1191,-4.1191,-4.1191,-4.1191,-4.1191,-4.1191,-4.1152,-4.1092,-4.3235,-4.3294,-4.3372,-4.3647,-4.4192,-4.4582,-4.4582,-4.509,-4.5578,-4.5851,-4.589,-4.5773,-4.55,-4.546,-4.546,-4.546,-4.4933,-4.4465,-4.419,-4.306,-4.2279,-4.2006,-4.142,-4.1109,-4.1109,-4.1109,-4.1109,-4.1109,-4.1109,-4.0953,-4.0698,-4.0698,-4.0821,-4.1103,-4.1106,-4.1129,-4.1171,-4.1191,-4.1191,-4.1191,-4.1191,-4.1191,-4.1191,-4.1191,-4.1191,-4.1191,-4.1191,-4.1191,-4.1191,-4.1191,-4.1191,-4.1191,-4.1191,-4.1191,-4.1191,-4.1191,-4.1191,-4.1191,-4.1191,-4.1191,-4.1191,-4.1191,-4.1191,-4.1191,-4.1191,-4.1191,-4.1191,-4.1191,-4.1191,-4.1191,-4.1191,-4.1191,-4.1113,-4.082,-4.0293,-3.9707,-3.9141,-3.8555,-3.7851,-3.6992,-3.6894,-3.6641,-3.6055,-3.5995,-3.5995,-3.5995,-3.5994,-3.5994,-3.5994,-3.6835,-3.7578,-3.8164,-3.9297,0.0,-4.0781,-4.1055,-4.1191,-4.1191,-4.1191,-4.1191,-4.1191,-4.1191,-4.1191,-4.1191,-4.1191,-4.1191,-4.1191,-4.1191,-4.1191,-4.1191,-4.1191,-4.1191,-4.1191,-4.1191,-4.1191,-4.1172,-4.4114,-4.4192,-4.4291,-4.4626,-4.513,-4.548,-4.5483,-4.595,-4.63,-4.63,-4.63,-4.63,-4.63,-4.63,-4.63,-4.63,-4.5792,-4.5343,-4.501,-4.3975,-4.3079,-4.2435,-4.1888,-4.1439,-4.1109,-4.1109,-4.1109,-4.1109,-4.1109,-4.1109,-4.1109,-4.1093,-4.1098,-4.1104,-4.1108,-4.1111,-4.1152,-4.1191,-4.1191,-4.1191,-4.1191,-4.1191,-4.1191,-4.1191,-4.1191,-4.1191,-4.1191,-4.1191,-4.1191,-4.1191,-4.1191,-4.1191,-4.1191,-4.1191,-4.1191,-4.1191,-4.1191,-4.1191,-4.1191,-4.1191,-4.1191,-4.1191,-4.1191,-4.1191,-4.1191,-4.1191,-4.1191,-4.1191,-4.1191,-4.1191,-4.1191,-4.1191,-4.1191,-4.1191,-4.0742,-4.0273,-3.9941,-3.9434,-3.8769,-3.7891,-3.7793,-3.7578,-3.7031,-3.6972,-3.6972,-3.6972,-3.6972,-3.6972,-3.6972,-3.7499,-3.8183,-3.9062,-3.9922,-4.0644,-4.1191,-4.1191,-4.1191,-4.1191,-4.1191,-4.1191,-4.1191,-4.1191,-4.1191,-4.1191,-4.1191,-4.1191,-4.1191,-4.1191,-4.1191,-4.1191,-4.1191,-4.1191,-4.1191,-4.1191,-4.1191,-4.1191,-4.4933,-4.509,-4.5347,-4.6155,-4.6306,-4.6305,-4.6293,-4.6306,-4.6302,-4.6302,-4.6302,-4.63,-4.63,-4.63,-4.63,-4.63,-4.63,-4.5968,-4.5148,-4.5029,-4.4288,-4.265,-4.2454,-4.2025,-4.1207,-4.1129,-4.1109,-4.1109,-4.1109,-4.1109,-4.1109,-4.1095,-4.1099,-4.11,-4.1109,-4.1092,-4.1112,-4.1172,-4.1191,-4.1191,-4.1191,-4.1191,-4.1191,-4.1191,-4.1191,-4.1191,-4.1191,-4.1191,-4.1191,-4.1191,-4.1191,-4.1191,-4.1191,-4.1191,-4.1191,-4.1191,-4.1191,-4.1191,-4.1191,-4.1191,-4.1191,-4.1191,-4.1191,-4.1191,-4.1191,-4.1191,-4.1191,-4.1191,-4.1191,-4.1191,-4.1191,-4.1191,-4.1191,-4.1191,-4.1191,-4.0918,-4.0098,-3.998,-3.9668,-3.8789,-3.8691,-3.8672,-3.8613,-3.8594,-3.8594,-3.8594,-3.8594,-3.8633,-3.8691,-3.8691,-3.9062,-3.9863,-4.0742,-4.1191,-4.1191,-4.1191,-4.1191,-4.1191,-4.1191,-4.1191,-4.1191,-4.1191,-4.1191,-4.1191,-4.1191,-4.1191,-4.1191,-4.1191,-4.1191,-4.1191,-4.1191,-4.1191,-4.1191,-4.1191,-4.1191,-4.1191,-4.5948,-4.5992,-4.6057,-4.6254,-4.6296,-4.6299,-4.63,-4.6295,-4.629,-4.629,-4.6305,-4.63,-4.63,-4.63,-4.63,-4.63,-4.63,-4.6202,-4.6007,-4.5363,-4.4815,-4.4405,-4.3118,-4.2298,-4.2103,-4.1439,-4.1109,-4.1109,-4.1109,-4.1109,-4.1109,-4.1095,-4.1101,-4.1106,-4.109,-4.1132,-4.1172,-4.1191,-4.1191,-4.1191,-4.1191,-4.1191,-4.1191,-4.1191,-4.1191,-4.1191,-4.1191,-4.1191,-4.1191,-4.1191,-4.1191,-4.1191,-4.1191,-4.1191,-4.1191,-4.1191,-4.1191,-4.1191,-4.1191,-4.1191,-4.1191,-4.1191,-4.1191,-4.1191,-4.1191,-4.1191,-4.1191,-4.1191,-4.1191,-4.1191,-4.1191,-4.1191,-4.1191,-4.1191,-4.1191,-4.1133,-4.0918,-4.0898,-4.0566,-3.9707,-3.959,-3.9336,-3.8652,-3.8594,-3.8594,-3.8594,-3.8594,-3.8887,-3.9551,-3.959,-3.9687,-3.9883,-4.0742,-4.1191,-4.1191,-4.1191,-4.1191,-4.1191,-4.1191,-4.1191,-4.1191,-4.1191,-4.1191,-4.1191,-4.1191,-4.1191,-4.1191,-4.1191,-4.1191,-4.1191,-4.1191,-4.1191,-4.1191,-4.1191,-4.1191,-4.1191,-4.6305,-4.629,-4.6295,-4.6301,-4.6301,-4.6302,-4.6304,-4.6299,-4.6293,-4.6293,-4.6306,-4.63,-4.63,-4.63,-4.63,-4.63,-4.63,-4.63,-4.63,-4.5851,-4.5421,-4.501,-4.4092,-4.3216,-4.2415,-4.1947,-4.1498,-4.1109,-4.1109,-4.1091,-4.1094,-4.11,-4.1105,-4.111,-4.1132,-4.1172,-4.1191,-4.1191,-4.1191,-4.1191,-4.1191,-4.1191,-4.1191,-4.1191,-4.1191,-4.1191,-4.1191,-4.1191,-4.1191,-4.1191,-4.1191,-4.1191,-4.1191,-4.1191,-4.1191,-4.1191,-4.1191,-4.1191,-4.1191,-4.1191,-4.1191,-4.1191,-4.1191,-4.1191,-4.1191,-4.1191,-4.1191,-4.1191,-4.1191,-4.1191,-4.1191,-4.1191,-4.1191,-4.1191,-4.1191,-4.1191,-4.1191,-4.1191,-4.1016,-4.0547,-4.0488,-4.0312,-3.9824,-3.9785,-3.9785,-3.9785,-3.9785,-4.0,-4.0469,-4.0488,-4.0488,-4.0488,-4.0957,-4.1191,-4.1191,-4.1191,-4.1191,-4.1191,-4.1191,-4.1191,-4.1191,-4.1191,-4.1191,-4.1191,-4.1191,-4.1191,-4.1191,-4.1191,-4.1191,-4.1191,-4.1191,-4.1191,-4.1191,-4.1191,-4.1191,-4.1191,-4.6293,-4.6295,-4.6299,-4.6306,-4.6305,-4.6305,-4.6307,-4.6301,-4.6294,-4.6294,-4.6306,-4.63,-4.63,-4.63,-4.63,-4.63,-4.63,-4.63,-4.63,-4.63,-4.5968,-4.5226,-4.5068,-4.425,-4.263,-4.2337,-4.1849,-4.1109,-4.1109,-4.1093,-4.1099,-4.1105,-4.1109,-4.1092,-4.1172,-4.1191,-4.1191,-4.1191,-4.1191,-4.1191,-4.1191,-4.1191,-4.1191,-4.1191,-4.1191,-4.1191,-4.1191,-4.1191,-4.1191,-4.1191,-4.1191,-4.1191,-4.1191,-4.1191,-4.1191,-4.1191,-4.1191,-4.1191,-4.1191,-4.1191,-4.1191,-4.1191,-4.1191,-4.1191,-4.1191,-4.1191,-4.1191,-4.1191,-4.1191,-4.1191,-4.1191,-4.1191,-4.1191,-4.1191,-4.1171,-4.1171,-4.1171,-4.117,-4.1169,-4.1169,-4.1169,-4.1169,-4.1169,-4.1169,-4.1169,-4.1169,-4.1169,-4.1169,-4.1169,-4.1171,-4.1171,-4.1169,-4.1191,-4.1191,-4.1191,-4.1191,-4.1191,-4.1191,-4.1191,-4.1191,-4.1191,-4.1191,-4.1191,-4.1191,-4.1191,-4.1191,-4.1191,-4.1191,-4.1191,-4.1191,-4.1191,-4.1191,-4.1191,-4.1191,-4.1191,-4.1191,-4.63,-4.6304,-4.6306,-4.6307,-4.6308,-4.6308,-4.6308,-4.6306,-4.6301,-4.6301,-4.629,-4.63,-4.63,-4.63,-4.63,-4.63,-4.63,-4.63,-4.63,-4.63,-4.6241,-4.6105,-4.5382,-4.4524,-4.3528,-4.2066,-4.1246,-4.1109,-4.1109,-4.1093,-4.1099,-4.1105,-4.1109,-4.1092,-4.1172,-4.1191,-4.1191,-4.1191,-4.1191,-4.1191,-4.1191,-4.1191,-4.1191,-4.1191,-4.1191,-4.1191,-4.1191,-4.1191,-4.1191,-4.1191,-4.1191,-4.1191,-4.1191,-4.1191,-4.1191,-4.1191,-4.1191,-4.1191,-4.1191,-4.1191,-4.1191,-4.1191,-4.1191,-4.1191,-4.1191,-4.1191,-4.1191,-4.1191,-4.1191,-4.1171,-4.1139,-4.1168,-4.1171,-4.112,-4.1116,-4.1116,-4.1116,-4.1068,-4.102,-4.102,-4.102,-4.102,-4.102,-4.102,-4.102,-4.102,-4.102,-4.102,-4.102,-4.108,-4.1083,-4.1022,-4.1143,-4.117,-4.1116,-4.117,-4.117,-4.1116,-4.117,-4.1191,-4.1191,-4.1191,-4.1191,-4.1191,-4.1191,-4.1191,-4.1191,-4.1191,-4.1191,-4.1191,-4.1191,-4.1191,-4.1191,-4.1191,-4.1191,-4.1191,-4.6304,-4.6306,-4.6307,-4.6308,-4.6308,-4.6308,-4.6308,-4.6307,-4.6305,-4.6305,-4.6296,-4.6308,-4.6308,-4.6303,-4.63,-4.63,-4.63,-4.63,-4.63,-4.63,-4.63,-4.63,-4.5909,-4.507,-4.3725,-4.2454,-4.1576,-4.1109,-4.1093,-4.1098,-4.1103,-4.1108,-4.1111,-4.1152,-4.1191,-4.1191,-4.1191,-4.1191,-4.1191,-4.1191,-4.1191,-4.1191,-4.1191,-4.1191,-4.1191,-4.1191,-4.1191,-4.1191,-4.1191,-4.1191,-4.1191,-4.1191,-4.1191,-4.1191,-4.1191,-4.1191,-4.1191,-4.1191,-4.1191,-4.1191,-4.1191,-4.1191,-4.1191,-4.1191,-4.1191,-4.1191,-4.1191,-4.1147,-4.1145,-4.1139,-4.1064,-4.1072,-4.1078,-4.1057,-4.1054,-4.1054,-4.1054,-4.1011,-4.099,-4.099,-4.099,-4.099,-4.099,-4.099,-4.099,-4.099,-4.099,-4.099,-4.099,-4.1039,-4.1022,-4.0994,-4.1064,-4.1076,-4.1054,-4.1074,-4.1074,-4.1054,-4.1076,-4.1083,-4.1083,-4.1083,-4.1083,-4.1085,-4.1121,-4.1145,-4.1146,-4.1191,-4.1191,-4.1191,-4.1191,-4.1191,-4.1191,-4.1191,-4.1191,-4.1191,-4.6307,-4.6307,-4.6308,-4.6308,-4.6308,-4.6308,-4.6308,-4.6308,-4.6307,-4.6307,-4.6301,-4.6295,-4.6293,-4.6308,-4.6303,-4.63,-4.63,-4.63,-4.63,-4.63,-4.63,-4.63,-4.6105,-4.5363,-4.4036,-4.2942,-4.2064,-4.1402,-4.1193,-4.1102,-4.1107,-4.1091,-4.1132,-4.1191,-4.1191,-4.1191,-4.1191,-4.1191,-4.1191,-4.1191,-4.1191,-4.1191,-4.1191,-4.1191,-4.1191,-4.1191,-4.1191,-4.1191,-4.1191,-4.1191,-4.1191,-4.1191,-4.1191,-4.1191,-4.1191,-4.1191,-4.1191,-4.1191,-4.1191,-4.1191,-4.1191,-4.1191,-4.1191,-4.1191,-4.1191,-4.1191,-4.1168,-4.1114,-4.1083,-4.1061,-4.0981,-4.0981,-4.0987,-4.099,-4.0986,-4.0986,-4.0986,-4.0953,-4.0961,-4.0961,-4.0961,-4.0961,-4.0961,-4.0961,-4.0961,-4.0961,-4.0961,-4.0961,-4.0961,-4.0976,-4.0986,-4.0986,-4.0984,-4.0984,-4.0986,-4.0984,-4.0984,-4.0986,-4.0984,-4.099,-4.099,-4.099,-4.099,-4.0994,-4.104,-4.1076,-4.108,-4.1146,-4.1171,-4.1171,-4.1191,-4.1191,-4.1191,-4.1191,-4.1191,-4.1191,-4.6308,-4.6308,-4.6308,-4.6308,-4.6308,-4.6308,-4.6308,-4.6308,-4.6307,-4.6307,-4.6304,-4.63,-4.6294,-4.6293,-4.6309,-4.6302,-4.63,-4.63,-4.63,-4.63,-4.63,-4.63,-4.5539,-4.5029,-4.4912,-4.3255,-4.2376,-4.2298,-4.1505,-4.1102,-4.1107,-4.1091,-4.1132,-4.1191,-4.1191,-4.1191,-4.1191,-4.1191,-4.1191,-4.1191,-4.1191,-4.1191,-4.1191,-4.1191,-4.1191,-4.1191,-4.1191,-4.1191,-4.1191,-4.1191,-4.1191,-4.1191,-4.1191,-4.1191,-4.1191,-4.1191,-4.1191,-4.1191,-4.1191,-4.1191,-4.1191,-4.1191,-4.1191,-4.1191,-4.1191,-4.1147,-4.1112,-4.1109,-4.1057,-4.0997,-4.0915,-4.0964,-4.099,-4.0911,-4.0917,-4.0917,-4.0917,-4.0856,-4.0802,-4.0802,-4.0802,-4.0802,-4.0802,-4.0802,-4.0802,-4.0802,-4.0802,-4.0802,-4.0802,-4.0868,-4.0917,-4.0917,-4.0976,-4.0979,-4.0917,-4.0979,-4.0979,-4.0921,-4.0979,-4.099,-4.099,-4.099,-4.099,-4.099,-4.1016,-4.1019,-4.1003,-4.1078,-4.1112,-4.1115,-4.117,-4.1191,-4.1191,-4.1191,-4.1191,-4.1191,-4.6308,-4.6308,-4.6308,-4.6308,-4.6308,-4.6308,-4.6308,-4.6308,-4.6308,-4.6308,-4.6306,-4.6301,-4.6299,-4.6291,-4.6305,-4.6302,-4.63,-4.63,-4.63,-4.63,-4.63,-4.63,-4.5987,-4.5558,-4.501,-4.4346,-4.3489,-4.2396,-4.2075,-4.1632,-4.1108,-4.1132,-4.1172,-4.1191,-4.1191,-4.1191,-4.1191,-4.1191,-4.1191,-4.1191,-4.1191,-4.1191,-4.1191,-4.1191,-4.1191,-4.1191,-4.1191,-4.1191,-4.1191,-4.1191,-4.1191,-4.1191,-4.1191,-4.1191,-4.1191,-4.1191,-4.1191,-4.1191,-4.1191,-4.1191,-4.1191,-4.1146,-4.1143,-4.1139,-4.1099,-4.1061,-4.1037,-4.0977,-4.0964,-4.0911,-4.0846,-4.0862,-4.0877,-4.0834,-4.0848,-4.0848,-4.0848,-4.0827,-4.0797,-4.0797,-4.0797,-4.0797,-4.0797,-4.0797,-4.0797,-4.0797,-4.0797,-4.0797,-4.0797,-4.082,-4.0848,-4.0848,-4.0867,-4.0853,-4.0848,-4.0867,-4.0867,-4.0848,-4.0853,-4.0868,-4.0868,-4.0868,-4.0868,-4.0873,-4.0915,-4.0941,-4.0949,-4.1003,-4.1047,-4.105,-4.1068,-4.1074,-4.1074,-4.1074,-4.1074,-4.1078,-4.6348,-4.6308,-4.6308,-4.6308,-4.6308,-4.6308,-4.6308,-4.6308,-4.6308,-4.6308,-4.6307,-4.6303,-4.6301,-4.6293,-4.6303,-4.63,-4.63,-4.63,-4.63,-4.63,-4.63,-4.63,-4.63,-4.6027,-4.5421,-4.5148,-4.4289,-4.2806,-4.2524,-4.1945,-4.1108,-4.1151,-4.1172,-4.1191,-4.1191,-4.1191,-4.1191,-4.1191,-4.1191,-4.1191,-4.1191,-4.1191,-4.1191,-4.1191,-4.1191,-4.1191,-4.1191,-4.1191,-4.1191,-4.1191,-4.1191,-4.1191,-4.1191,-4.1191,-4.1191,-4.1191,-4.1191,-4.1191,-4.1191,-4.1171,-4.1168,-4.1114,-4.108,-4.1061,-4.1003,-4.0974,-4.0961,-4.0902,-4.0883,-4.0856,-4.0809,-4.0797,-4.0797,-4.0797,-4.0797,-4.0797,-4.0797,-4.0797,-4.0797,-4.0797,-4.0797,-4.0797,-4.0797,-4.0797,-4.0797,-4.0797,-4.0797,-4.0797,-4.0797,-4.0797,-4.0797,-4.0797,-4.0797,-4.0797,-4.0797,-4.0797,-4.0797,-4.0797,-4.0797,-4.0797,-4.0797,-4.0797,-4.0797,-4.0803,-4.0846,-4.0877,-4.0868,-4.0945,-4.0976,-4.096,-4.0984,-4.099,-4.099,-4.099,-4.099,-4.1016,-4.6484,-4.6328,-4.6328,-4.6308,-4.6308,-4.6308,-4.6308,-4.6308,-4.6308,-4.6308,-4.6308,-4.6306,-4.6302,-4.6296,-4.6309,-4.6302,-4.63,-4.63,-4.63,-4.63,-4.63,-4.63,-4.63,-4.63,-4.63,-4.5441,-4.4582,-4.3705,-4.2834,-4.1962,-4.1107,-4.1091,-4.1132,-4.1191,-4.1191,-4.1191,-4.1191,-4.1191,-4.1191,-4.1191,-4.1191,-4.1191,-4.1191,-4.1191,-4.1191,-4.1191,-4.1191,-4.1191,-4.1191,-4.1191,-4.1191,-4.1191,-4.1191,-4.1191,-4.1191,-4.1191,-4.1191,-4.1191,-4.1191,-4.1146,-4.1109,-4.1109,-4.1057,-4.099,-4.101,-4.0953,-4.0907,-4.0907,-4.084,-4.0797,-4.0797,-4.0797,-4.0797,-4.0797,-4.0797,-4.0797,-4.0797,-4.0797,-4.0797,-4.0797,-4.0797,-4.0797,-4.0797,-4.0797,-4.0797,-4.0797,-4.0797,-4.0797,-4.0797,-4.0797,-4.0797,-4.0797,-4.0797,-4.0797,-4.0797,-4.0797,-4.0797,-4.0797,-4.0797,-4.0797,-4.0797,-4.0797,-4.0797,-4.0797,-4.0797,-4.0797,-4.0803,-4.0863,-4.0907,-4.0917,-4.0963,-4.101,-4.101,-4.101,-4.101,-4.101,-4.8183,-4.8125,-4.793,-4.7324,-4.7207,-4.7012,-4.6387,-4.6308,-4.6308,-4.6308,-4.6308,-4.6306,-4.6302,-4.6296,-4.6309,-4.6302,-4.63,-4.63,-4.63,-4.63,-4.63,-4.63,-4.63,-4.63,-4.63,-4.6046,-4.55,-4.4602,-4.3736,-4.2863,-4.2004,-4.1424,-4.1172,-4.1191,-4.1191,-4.1191,-4.1191,-4.1191,-4.1191,-4.1191,-4.1191,-4.1191,-4.1191,-4.1191,-4.1191,-4.1191,-4.1191,-4.1191,-4.1191,-4.1191,-4.1191,-4.1191,-4.1191,-4.1191,-4.1191,-4.1191,-4.1191,-4.1191,-4.1144,-4.1078,-4.102,-4.102,-4.097,-4.0911,-4.0863,-4.084,-4.0831,-4.0831,-4.0802,-4.0797,-4.0797,-4.0797,-4.0797,-4.0797,-4.0797,-4.0797,-4.0797,-4.0797,-4.0797,-4.0797,-4.0797,-4.0797,-4.0797,-4.0797,-4.0797,-4.0797,-4.0797,-4.0797,-4.0797,-4.0797,-4.0797,-4.0797,-4.0797,-4.0797,-4.0797,-4.0797,-4.0797,-4.0797,-4.0797,-4.0797,-4.0797,-4.0797,-4.0797,-4.0797,-4.0797,-4.0797,-4.0797,-4.0814,-4.0831,-4.0837,-4.0851,-4.0862,-4.0862,-4.0862,-4.0862,-4.0872,-4.8965,-4.8906,-4.873,-4.8203,-4.8105,-4.7812,-4.6953,-4.6816,-4.6699,-4.6348,-4.6308,-4.6306,-4.6302,-4.6296,-4.6309,-4.6302,-4.63,-4.63,-4.63,-4.63,-4.63,-4.63,-4.63,-4.63,-4.63,-4.63,-4.5872,-4.4997,-4.4478,-4.3585,-4.2397,-4.1893,-4.1504,-4.1191,-4.1191,-4.1191,-4.1191,-4.1191,-4.1191,-4.1191,-4.1191,-4.1191,-4.1191,-4.1191,-4.1191,-4.1191,-4.1191,-4.1191,-4.1191,-4.1191,-4.1191,-4.1191,-4.1191,-4.1191,-4.1191,-4.1169,-4.1168,-4.1145,-4.1076,-4.1006,-4.0968,-4.0968,-4.0902,-4.0846,-4.0815,-4.0797,-4.0797,-4.0797,-4.0797,-4.0797,-4.0797,-4.0797,-4.0797,-4.0797,-4.0797,-4.0797,-4.0797,-4.0797,-4.0797,-4.0797,-4.0797,-4.0797,-4.0797,-4.0797,-4.0797,-4.0797,-4.0797,-4.0797,-4.0797,-4.0797,-4.0797,-4.0797,-4.0797,-4.0797,-4.0797,-4.0797,-4.0797,-4.0797,-4.0797,-4.0797,-4.0797,-4.0797,-4.0797,-4.0797,-4.0797,-4.0797,-4.0797,-4.0797,-4.0797,-4.0797,-4.0797,-4.0797,-4.0797,-4.0797,-4.0797,-4.0809,-4.9277,-4.9121,-4.9101,-4.9023,-4.9023,-4.8711,-4.7851,-4.7656,-4.7324,-4.6523,-4.6347,-4.6306,-4.6302,-4.6297,-4.6291,-4.6302,-4.6302,-4.63,-4.63,-4.63,-4.63,-4.63,-4.63,-4.63,-4.63,-4.6302,-4.5914,-4.5121,-4.5044,-4.4191,-4.2635,-4.2479,-4.2011,-4.1308,-4.123,-4.1191,-4.1191,-4.1191,-4.1191,-4.1191,-4.1191,-4.1191,-4.1191,-4.1191,-4.1191,-4.1191,-4.1191,-4.1191,-4.1191,-4.1191,-4.1191,-4.1191,-4.1191,-4.1191,-4.1191,-4.1117,-4.1109,-4.108,-4.1003,-4.0953,-4.0907,-4.0898,-4.0859,-4.0797,-4.0797,-4.0797,-4.0797,-4.0797,-4.0797,-4.0797,-4.0797,-4.0797,-4.0797,-4.0797,-4.0797,-4.0797,-4.0797,-4.0797,-4.0797,-4.0797,-4.0797,-4.0797,-4.0797,-4.0797,-4.0797,-4.0797,-4.0797,-4.0797,-4.0797,-4.0797,-4.0797,-4.0797,-4.0797,-4.0797,-4.0797,-4.0797,-4.0797,-4.0797,-4.0797,-4.0797,-4.0797,-4.0797,-4.0797,-4.0797,-4.0797,-4.0797,-4.0797,-4.0797,-4.0797,-4.0797,-4.0797,-4.0797,-4.0797,-4.0797,-4.0797,-4.0797,-5.0898,-5.0859,-5.0664,-5.0039,-4.9922,-4.9629,-4.875,-4.8047,-4.7539,-4.7344,-4.6719,-4.6308,-4.6306,-4.6303,-4.6297,-4.6291,-4.6305,-4.63,-4.63,-4.63,-4.63,-4.63,-4.63,-4.63,-4.63,-4.6306,-4.6213,-4.6019,-4.5325,-4.4801,-4.4412,-4.3046,-4.2305,-4.2109,-4.1484,-4.1191,-4.1191,-4.1191,-4.1191,-4.1191,-4.1191,-4.1191,-4.1191,-4.1191,-4.1191,-4.1191,-4.1191,-4.1191,-4.1191,-4.1191,-4.1191,-4.1191,-4.1191,-4.1191,-4.1191,-4.1117,-4.1109,-4.1074,-4.0941,-4.0902,-4.0888,-4.0823,-4.0815,-4.0797,-4.0797,-4.0797,-4.0797,-4.0797,-4.0797,-4.0797,-4.0797,-4.0797,-4.0797,-4.0797,-4.0797,-4.0797,-4.0797,-4.0797,-4.0797,-4.0797,-4.0797,-4.0797,-4.0797,-4.0797,-4.0797,-4.0797,-4.0797,-4.0797,-4.0797,-4.0797,-4.0797,-4.0797,-4.0797,-4.0797,-4.0797,-4.0797,-4.0797,-4.0797,-4.0797,-4.0797,-4.0797,-4.0797,-4.0797,-4.0797,-4.0797,-4.0797,-4.0797,-4.0797,-4.0797,-4.0797,-4.0797,-4.0797,-4.0797,-4.0797,-4.0797,-4.0797,-5.1406,-5.1406,-5.1269,-5.0859,-5.0762,-5.0488,-4.9648,-4.8789,-4.8066,-4.7656,-4.6836,-4.6308,-4.6307,-4.6304,-4.6299,-4.6308,-4.6303,-4.63,-4.63,-4.63,-4.63,-4.63,-4.63,-4.63,-4.63,-4.6293,-4.6297,-4.6297,-4.5836,-4.5409,-4.498,-4.4062,-4.3203,-4.2383,-4.1953,-4.1562,-4.1191,-4.1191,-4.1191,-4.1191,-4.1191,-4.1191,-4.1191,-4.1191,-4.1191,-4.1191,-4.1191,-4.1191,-4.1191,-4.1191,-4.1191,-4.1191,-4.1168,-4.1147,-4.1122,-4.1025,-4.1,-4.0977,-4.0878,-4.0851,-4.0834,-4.0809,-4.0797,-4.0797,-4.0797,-4.0797,-4.0797,-4.0797,-4.0797,-4.0797,-4.0797,-4.0797,-4.0797,-4.0797,-4.0797,-4.0797,-4.0797,-4.0797,-4.0797,-4.0797,-4.0797,-4.0797,-4.0797,-4.0797,-4.0797,-4.0797,-4.0797,-4.0797,-4.0797,-4.0797,-4.0797,-4.0797,-4.0797,-4.0797,-4.0797,-4.0797,-4.0797,-4.0797,-4.0797,-4.0797,-4.0797,-4.0797,-4.0797,-4.0797,-4.0797,-4.0797,-4.0797,-4.0797,-4.0797,-4.0797,-4.0797,-4.0797,-4.0797,-4.0797,-4.0797,-4.0797,-5.1406,-5.1406,-5.1406,-5.1406,-5.1406,-5.1172,-5.0508,-4.9668,-4.8808,-4.7949,-4.7051,-4.6465,-4.6327,-4.6305,-4.6297,-4.6302,-4.63,-4.63,-4.63,-4.63,-4.63,-4.63,-4.6302,-4.6303,-4.6303,-4.6297,-4.6302,-4.6301,-4.6306,-4.5937,-4.5215,-4.5078,-4.4238,-4.2832,-4.2539,-4.2031,-4.1406,-4.1269,-4.1191,-4.1191,-4.1191,-4.1191,-4.1191,-4.1191,-4.1191,-4.1191,-4.1191,-4.1191,-4.1191,-4.1191,-4.1191,-4.117,-4.1116,-4.1085,-4.1064,-4.0941,-4.0907,-4.0883,-4.0808,-4.0797,-4.0797,-4.0797,-4.0797,-4.0797,-4.0797,-4.0797,-4.0797,-4.0797,-4.0797,-4.0797,-4.0797,-4.0797,-4.0797,-4.0797,-4.0797,-4.0797,-4.0797,-4.0797,-4.0797,-4.0797,-4.0797,-4.0797,-4.0797,-4.0797,-4.0797,-4.0797,-4.0797,-4.0797,-4.0797,-4.0797,-4.0797,-4.0797,-4.0797,-4.0797,-4.0797,-4.0797,-4.0797,-4.0797,-4.0797,-4.0797,-4.0797,-4.0797,-4.0797,-4.0797,-4.0797,-4.0797,-4.0797,-4.0797,-4.0797,-4.0797,-4.0797,-4.0797,-4.0797,-4.0797,-4.0797,-4.0797,-5.1406,-5.1406,-5.1406,-5.1406,-5.1406,-5.1367,-5.125,-5.0547,-4.9707,-4.8848,-4.7969,-4.7148,-4.6387,-4.6306,-4.6297,-4.6302,-4.63,-4.63,-4.63,-4.63,-4.63,-4.63,-4.6308,-4.6291,-4.6291,-4.6303,-4.6305,-4.6301,-4.6307,-4.623,-4.6113,-4.5351,-4.4863,-4.457,-4.3066,-4.2344,-4.2187,-4.1504,-4.1191,-4.1191,-4.1191,-4.1191,-4.1191,-4.1191,-4.1191,-4.1191,-4.1191,-4.1191,-4.1191,-4.1191,-4.1168,-4.1115,-4.1091,-4.1064,-4.099,-4.092,-4.0907,-4.0883,-4.0808,-4.0797,-4.0797,-4.0797,-4.0797,-4.0797,-4.0797,-4.0797,-4.0797,-4.0797,-4.0797,-4.0797,-4.0797,-4.0797,-4.0797,-4.0797,-4.0797,-4.0797,-4.0797,-4.0797,-4.0797,-4.0797,-4.0797,-4.0797,-4.0797,-4.0797,-4.0797,-4.0797,-4.0797,-4.0797,-4.0797,-4.0797,-4.0797,-4.0797,-4.0797,-4.0797,-4.0797,-4.0797,-4.0797,-4.0797,-4.0797,-4.0797,-4.0797,-4.0797,-4.0797,-4.0797,-4.0797,-4.0797,-4.0797,-4.0797,-4.0797,-4.0797,-4.0797,-4.0797,-4.0797,-4.0797,-4.0797,-4.0797,-5.1406,-5.1406,-5.1406,-5.1406,-5.1406,-5.1406,-5.1406,-5.0723,-5.0058,-4.9687,-4.8437,-4.7441,-4.707,-4.6599,-4.63,-4.6295,-4.6306,-4.6303,-4.6308,-4.6308,-4.6308,-4.6308,-4.6295,-4.6299,-4.6299,-4.6305,-4.6306,-4.6305,-4.6308,-4.6308,-4.6289,-4.5918,-4.5469,-4.4961,-4.4199,-4.3301,-4.2383,-4.2012,-4.1601,-4.1191,-4.1191,-4.1191,-4.1191,-4.1191,-4.1191,-4.1191,-4.1191,-4.1191,-4.1191,-4.1191,-4.1167,-4.1087,-4.1061,-4.099,-4.0932,-4.0853,-4.084,-4.0848,-4.0809,-4.0797,-4.0797,-4.0797,-4.0797,-4.0797,-4.0797,-4.0797,-4.0797,-4.0797,-4.0797,-4.0797,-4.0797,-4.0797,-4.0797,-4.0797,-4.0797,-4.0797,-4.0797,-4.0797,-4.0797,-4.0797,-4.0797,-4.0797,-4.0797,-4.0797,-4.0797,-4.0797,-4.0797,-4.0797,-4.0797,-4.0797,-4.0797,-4.0797,-4.0797,-4.0797,-4.0797,-4.0797,-4.0797,-4.0797,-4.0797,-4.0797,-4.0797,-4.0797,-4.0797,-4.0797,-4.0797,-4.0797,-4.0797,-4.0797,-4.0797,-4.0797,-4.0797,-4.0797,-4.0797,-4.0797,-4.0797,-4.0797]},{"header":{"parameterUnit":"m.s-1","parameterCategory":1,"la1":30.6,"la2":28.766,"lo1":-90.7593,"lo2":-88.6598,"dy":0.0162,"dx":0.0183,"nx":116,"ny":114,"refTime":"2023-11-03T00:00:00:Z","depth":0,"parameterNumber":3,"parameterNumberName":"V-component_of_WINDS"},"data":[0.0,0.0,0.0,0.0,0.0,0.0,0.0,0.0,0.0,0.0,0.0,0.0,0.0,0.0,0.0,0.0,0.0,0.0,0.0,0.0,0.0,0.0,0.0,0.0,0.0,0.0,0.0,0.0,0.0,0.0,0.0,0.0,0.0,0.0,0.0,0.0,0.0,0.0,0.0,0.0,0.0,0.0,0.0,0.0,0.0,0.0,0.0,0.0,0.0,0.0,0.0,0.0,0.0,0.0,0.0,0.0,0.0,0.0,0.0,0.0,0.0,0.0,0.0,0.0,0.0,0.0,0.0,0.0,0.0,0.0,0.0,0.0,0.0,0.0,0.0,0.0,0.0,0.0,0.0,0.0,0.0,0.0,0.0,0.0,0.0,0.0,0.0,0.0,0.0,0.0,0.0,0.0,0.0,0.0,0.0,0.0,0.0,0.0,0.0,0.0,0.0,0.0,0.0,0.0,0.0,0.0,0.0,0.0,0.0,0.0,0.0,0.0,0.0,0.0,0.0,0.0,0.0,0.0,0.0,0.0,0.0,0.0,0.0,0.0,0.0,0.0,0.0,0.0,0.0,0.0,0.0,0.0,0.0,0.0,0.0,0.0,0.0,0.0,0.0,0.0,0.0,0.0,0.0,0.0,0.0,0.0,0.0,0.0,0.0,0.0,0.0,0.0,0.0,0.0,0.0,0.0,0.0,0.0,0.0,0.0,0.0,0.0,0.0,0.0,0.0,0.0,0.0,0.0,0.0,0.0,0.0,0.0,0.0,0.0,0.0,0.0,0.0,0.0,0.0,0.0,0.0,0.0,0.0,0.0,0.0,0.0,0.0,0.0,0.0,0.0,0.0,0.0,0.0,0.0,0.0,0.0,0.0,0.0,0.0,0.0,0.0,0.0,0.0,0.0,0.0,0.0,0.0,0.0,0.0,0.0,0.0,0.0,0.0,0.0,0.0,0.0,0.0,0.0,0.0,0.0,0.0,0.0,0.0,0.0,0.0,0.0,0.0,0.0,0.0,0.0,0.0,0.0,0.0,0.0,0.0,0.0,0.0,0.0,0.0,0.0,0.0,0.0,0.0,0.0,0.0,0.0,0.0,0.0,0.0,0.0,0.0,0.0,0.0,0.0,0.0,0.0,0.0,0.0,0.0,0.0,0.0,0.0,0.0,0.0,0.0,0.0,0.0,0.0,0.0,0.0,0.0,0.0,0.0,0.0,0.0,0.0,0.0,0.0,0.0,0.0,0.0,0.0,0.0,0.0,0.0,0.0,0.0,0.0,0.0,0.0,0.0,0.0,0.0,0.0,0.0,0.0,0.0,0.0,0.0,0.0,0.0,0.0,0.0,0.0,0.0,0.0,0.0,0.0,0.0,0.0,0.0,0.0,0.0,0.0,0.0,0.0,0.0,0.0,0.0,0.0,0.0,0.0,0.0,0.0,0.0,0.0,0.0,0.0,0.0,0.0,0.0,0.0,0.0,0.0,0.0,0.0,0.0,0.0,0.0,0.0,0.0,0.0,0.0,0.0,0.0,0.0,0.0,0.0,0.0,0.0,0.0,0.0,0.0,0.0,0.0,0.0,0.0,0.0,0.0,0.0,0.0,0.0,0.0,0.0,0.0,0.0,0.0,0.0,0.0,0.0,0.0,0.0,0.0,0.0,0.0,0.0,0.0,0.0,0.0,0.0,0.0,0.0,0.0,0.0,0.0,0.0,0.0,0.0,0.0,0.0,0.0,0.0,0.0,0.0,0.0,0.0,0.0,0.0,0.0,0.0,0.0,0.0,0.0,0.0,0.0,0.0,0.0,0.0,0.0,0.0,0.0,0.0,0.0,0.0,0.0,0.0,0.0,0.0,0.0,0.0,0.0,0.0,0.0,0.0,0.0,0.0,0.0,0.0,0.0,0.0,0.0,0.0,0.0,0.0,0.0,0.0,0.0,0.0,0.0,0.0,0.0,0.0,0.0,0.0,0.0,0.0,0.0,0.0,0.0,0.0,0.0,0.0,0.0,0.0,0.0,0.0,0.0,0.0,0.0,0.0,0.0,0.0,0.0,0.0,0.0,0.0,0.0,0.0,0.0,0.0,0.0,0.0,0.0,0.0,0.0,0.0,0.0,0.0,0.0,0.0,0.0,0.0,0.0,0.0,0.0,0.0,0.0,0.0,0.0,0.0,0.0,0.0,0.0,0.0,0.0,0.0,0.0,0.0,0.0,0.0,0.0,0.0,0.0,0.0,0.0,0.0,0.0,0.0,0.0,0.0,0.0,0.0,0.0,0.0,0.0,0.0,0.0,0.0,0.0,0.0,0.0,0.0,0.0,0.0,0.0,0.0,0.0,0.0,0.0,0.0,0.0,0.0,0.0,0.0,0.0,0.0,0.0,0.0,0.0,0.0,0.0,0.0,0.0,0.0,0.0,0.0,0.0,0.0,0.0,0.0,0.0,0.0,0.0,0.0,0.0,0.0,0.0,0.0,0.0,0.0,0.0,0.0,0.0,0.0,0.0,0.0,0.0,0.0,0.0,0.0,0.0,0.0,0.0,0.0,0.0,0.0,0.0,0.0,0.0,0.0,0.0,0.0,0.0,0.0,0.0,0.0,0.0,0.0,0.0,0.0,0.0,0.0,0.0,0.0,0.0,0.0,0.0,0.0,0.0,0.0,0.0,0.0,0.0,0.0,0.0,0.0,0.0,0.0,0.0,0.0,0.0,0.0,0.0,0.0,0.0,0.0,0.0,0.0,0.0,0.0,0.0,0.0,0.0,0.0,0.0,0.0,0.0,0.0,0.0,0.0,0.0,0.0,0.0,0.0,0.0,0.0,0.0,0.0,0.0,0.0,0.0,0.0,0.0,0.0,0.0,0.0,0.0,0.0,0.0,0.0,0.0,0.0,0.0,0.0,0.0,0.0,0.0,0.0,0.0,0.0,0.0,0.0,0.0,0.0,0.0,0.0,0.0,0.0,0.0,0.0,0.0,0.0,0.0,0.0,0.0,0.0,0.0,0.0,0.0,0.0,0.0,0.0,0.0,0.0,0.0,0.0,0.0,0.0,0.0,0.0,0.0,0.0,0.0,0.0,0.0,0.0,0.0,0.0,0.0,0.0,0.0,0.0,0.0,0.0,0.0,0.0,0.0,0.0,0.0,0.0,0.0,0.0,0.0,0.0,0.0,0.0,0.0,0.0,0.0,0.0,0.0,0.0,0.0,0.0,0.0,0.0,0.0,0.0,0.0,0.0,0.0,0.0,0.0,0.0,0.0,0.0,0.0,0.0,0.0,0.0,0.0,0.0,0.0,0.0,0.0,0.0,0.0,0.0,0.0,0.0,0.0,0.0,0.0,0.0,0.0,0.0,0.0,0.0,0.0,0.0,0.0,0.0,0.0,0.0,0.0,0.0,0.0,0.0,0.0,0.0,0.0,0.0,0.0,0.0,0.0,0.0,0.0,0.0,0.0,0.0,0.0,0.0,0.0,0.0,0.0,0.0,0.0,0.0,0.0,0.0,0.0,0.0,0.0,0.0,0.0,0.0,0.0,0.0,0.0,0.0,0.0,0.0,0.0,0.0,0.0,0.0,0.0,0.0,0.0,0.0,0.0,0.0,0.0,0.0,0.0,0.0,0.0,0.0,0.0,0.0,0.0,0.0,0.0,0.0,0.0,0.0,0.0,0.0,0.0,0.0,0.0,0.0,0.0,0.0,0.0,0.0,0.0,0.0,0.0,0.0,0.0,0.0,0.0,0.0,0.0,0.0,0.0,0.0,0.0,0.0,0.0,0.0,0.0,0.0,0.0,0.0,0.0,0.0,0.0,0.0,0.0,0.0,0.0,0.0,0.0,0.0,0.0,0.0,0.0,0.0,0.0,0.0,0.0,0.0,0.0,0.0,0.0,0.0,0.0,0.0,0.0,0.0,0.0,0.0,0.0,0.0,0.0,0.0,0.0,0.0,0.0,0.0,0.0,0.0,0.0,0.0,0.0,0.0,0.0,0.0,0.0,0.0,0.0,0.0,0.0,0.0,0.0,0.0,0.0,0.0,0.0,0.0,0.0,0.0,0.0,0.0,0.0,0.0,0.0,0.0,0.0,0.0,0.0,0.0,0.0,0.0,0.0,0.0,0.0,0.0,0.0,0.0,0.0,0.0,0.0,0.0,0.0,0.0,0.0,0.0,0.0,0.0,0.0,0.0,0.0,0.0,0.0,0.0,0.0,0.0,0.0,0.0,0.0,0.0,0.0,0.0,0.0,0.0,0.0,0.0,0.0,0.0,0.0,0.0,0.0,0.0,0.0,0.0,0.0,0.0,0.0,0.0,0.0,0.0,0.0,0.0,0.0,0.0,0.0,0.0,0.0,0.0,0.0,0.0,0.0,0.0,0.0,0.0,0.0,0.0,0.0,0.0,0.0,0.0,0.0,0.0,0.0,0.0,0.0,0.0,0.0,0.0,0.0,0.0,0.0,0.0,0.0,0.0,0.0,0.0,0.0,0.0,0.0,0.0,0.0,0.0,0.0,0.0,0.0,0.0,0.0,0.0,0.0,0.0,0.0,0.0,0.0,0.0,0.0,0.0,0.0,0.0,0.0,0.0,0.0,0.0,0.0,0.0,0.0,0.0,0.0,0.0,0.0,0.0,0.0,0.0,0.0,0.0,0.0,0.0,0.0,0.0,0.0,0.0,0.0,0.0,0.0,0.0,0.0,0.0,0.0,0.0,0.0,0.0,0.0,0.0,0.0,0.0,0.0,0.0,0.0,0.0,0.0,0.0,0.0,0.0,0.0,0.0,0.0,0.0,0.0,0.0,0.0,0.0,0.0,0.0,0.0,0.0,0.0,0.0,0.0,0.0,0.0,0.0,0.0,0.0,0.0,0.0,0.0,0.0,0.0,0.0,0.0,0.0,0.0,0.0,0.0,0.0,0.0,0.0,0.0,0.0,0.0,0.0,0.0,0.0,0.0,0.0,0.0,0.0,0.0,0.0,0.0,0.0,0.0,0.0,0.0,0.0,0.0,0.0,0.0,0.0,0.0,0.0,0.0,0.0,0.0,0.0,0.0,0.0,0.0,0.0,0.0,0.0,0.0,0.0,0.0,0.0,0.0,0.0,0.0,0.0,0.0,0.0,0.0,0.0,0.0,0.0,0.0,0.0,0.0,0.0,0.0,0.0,0.0,0.0,0.0,0.0,0.0,0.0,0.0,0.0,0.0,0.0,0.0,0.0,0.0,0.0,0.0,0.0,0.0,0.0,0.0,0.0,0.0,0.0,0.0,0.0,0.0,0.0,0.0,0.0,0.0,0.0,0.0,0.0,0.0,0.0,0.0,0.0,0.0,0.0,0.0,0.0,0.0,0.0,0.0,0.0,0.0,0.0,0.0,0.0,0.0,0.0,0.0,0.0,0.0,0.0,0.0,0.0,0.0,0.0,0.0,0.0,0.0,0.0,0.0,0.0,0.0,0.0,0.0,0.0,0.0,0.0,0.0,0.0,0.0,0.0,0.0,0.0,0.0,0.0,0.0,0.0,0.0,0.0,0.0,0.0,0.0,0.0,0.0,0.0,0.0,0.0,0.0,0.0,0.0,0.0,0.0,0.0,0.0,0.0,0.0,0.0,0.0,0.0,0.0,0.0,0.0,0.0,0.0,0.0,0.0,0.0,0.0,0.0,0.0,0.0,0.0,0.0,0.0,0.0,0.0,0.0,0.0,0.0,0.0,0.0,0.0,0.0,0.0,0.0,0.0,0.0,0.0,0.0,0.0,0.0,0.0,0.0,0.0,0.0,0.0,0.0,0.0,0.0,0.0,0.0,0.0,0.0,0.0,0.0,0.0,0.0,0.0,0.0,0.0,0.0,0.0,0.0,0.0,0.0,0.0,0.0,0.0,0.0,0.0,0.0,0.0,0.0,0.0,0.0,0.0,0.0,0.0,0.0,0.0,0.0,0.0,0.0,0.0,0.0,0.0,0.0,0.0,0.0,0.0,0.0,0.0,0.0,0.0,0.0,0.0,0.0,0.0,0.0,0.0,0.0,0.0,0.0,0.0,0.0,0.0,0.0,0.0,0.0,0.0,0.0,0.0,0.0,0.0,0.0,0.0,0.0,0.0,0.0,0.0,0.0,0.0,0.0,-1.1003,-1.109,0.0,0.0,0.0,0.0,0.0,0.0,0.0,0.0,0.0,0.0,0.0,0.0,0.0,0.0,0.0,0.0,0.0,0.0,0.0,0.0,0.0,0.0,0.0,0.0,0.0,0.0,0.0,0.0,0.0,0.0,0.0,0.0,0.0,0.0,0.0,0.0,0.0,0.0,0.0,0.0,0.0,0.0,0.0,0.0,0.0,0.0,0.0,0.0,0.0,0.0,0.0,0.0,0.0,0.0,0.0,0.0,0.0,0.0,0.0,0.0,0.0,0.0,0.0,0.0,0.0,0.0,0.0,0.0,0.0,0.0,0.0,0.0,0.0,0.0,0.0,0.0,0.0,0.0,0.0,0.0,0.0,0.0,0.0,0.0,0.0,0.0,0.0,0.0,0.0,0.0,0.0,0.0,0.0,0.0,0.0,0.0,0.0,0.0,0.0,0.0,0.0,0.0,0.0,0.0,0.0,0.0,0.0,0.0,0.0,0.0,0.0,0.0,0.0,0.0,-1.1028,-1.0877,0.0,0.0,0.0,0.0,0.0,0.0,0.0,0.0,0.0,0.0,0.0,0.0,0.0,0.0,0.0,0.0,0.0,0.0,0.0,0.0,0.0,0.0,0.0,0.0,0.0,0.0,0.0,0.0,0.0,0.0,0.0,0.0,0.0,0.0,0.0,0.0,0.0,0.0,0.0,0.0,0.0,0.0,0.0,0.0,0.0,0.0,0.0,0.0,0.0,0.0,0.0,0.0,0.0,0.0,0.0,0.0,0.0,0.0,0.0,0.0,0.0,0.0,0.0,0.0,0.0,0.0,0.0,0.0,0.0,0.0,0.0,0.0,0.0,0.0,0.0,0.0,0.0,0.0,0.0,0.0,0.0,0.0,0.0,0.0,0.0,0.0,0.0,0.0,0.0,0.0,0.0,0.0,0.0,0.0,0.0,0.0,0.0,0.0,0.0,0.0,0.0,0.0,0.0,0.0,0.0,0.0,0.0,0.0,-1.1695,-1.1861,-1.1967,-1.2074,-1.2178,-1.2171,-1.1243,-1.0821,-1.0821,-1.0821,0.0,0.0,0.0,0.0,0.0,0.0,0.0,0.0,0.0,0.0,0.0,0.0,0.0,0.0,0.0,0.0,0.0,0.0,0.0,0.0,0.0,0.0,0.0,0.0,0.0,0.0,0.0,0.0,0.0,0.0,0.0,0.0,0.0,0.0,0.0,0.0,0.0,0.0,-0.5395,-0.5395,-0.5395,-0.5395,-0.5395,0.0,0.0,0.0,0.0,0.0,0.0,0.0,0.0,0.0,0.0,0.0,0.0,0.0,0.0,0.0,0.0,0.0,0.0,0.0,0.0,0.0,0.0,0.0,0.0,0.0,0.0,0.0,0.0,0.0,0.0,0.0,0.0,0.0,0.0,0.0,0.0,0.0,0.0,0.0,0.0,0.0,0.0,0.0,-1.0534,-1.0564,0.0,0.0,0.0,0.0,0.0,0.0,0.0,0.0,0.0,0.0,0.0,0.0,0.0,-1.1648,-1.1621,-1.1553,-1.1465,-1.1404,-1.145,-1.1483,-1.1483,-1.1523,-1.1683,-1.1953,-1.1799,0.0,-1.1732,-1.1732,0.0,0.0,0.0,0.0,0.0,0.0,0.0,0.0,0.0,0.0,0.0,0.0,0.0,0.0,0.0,0.0,0.0,0.0,0.0,0.0,0.0,0.0,0.0,0.0,0.0,0.0,0.0,0.0,0.0,0.0,0.0,0.0,0.0,0.0,0.0,0.0,-0.5395,-0.5395,-0.5395,-0.5395,-0.5395,-0.5395,-0.5395,-0.5395,-0.5395,-0.5395,0.0,0.0,0.0,0.0,0.0,0.0,0.0,0.0,0.0,0.0,0.0,0.0,0.0,0.0,0.0,0.0,0.0,0.0,0.0,0.0,0.0,0.0,0.0,0.0,0.0,0.0,0.0,0.0,0.0,0.0,0.0,0.0,0.0,0.0,0.0,0.0,0.0,0.0,0.0,-1.0673,-1.0763,-1.0856,-1.1068,-1.1185,0.0,0.0,0.0,0.0,0.0,0.0,0.0,0.0,0.0,-1.1605,-1.1247,-1.1289,-1.1817,-1.1582,-1.1709,-1.2208,-1.2474,-1.2634,-1.2641,-1.2846,-1.2993,-1.3159,-1.3159,-1.3019,-1.2812,-1.2144,-1.1697,-1.1409,0.0,0.0,0.0,0.0,-1.1917,-1.1917,0.0,0.0,0.0,0.0,0.0,0.0,0.0,0.0,0.0,0.0,0.0,0.0,0.0,0.0,0.0,-0.5156,0.0,0.0,0.0,0.0,0.0,0.0,0.0,0.0,0.0,0.0,0.0,-0.5395,-0.5395,-0.5416,-0.5453,-0.5453,-0.5474,-0.5508,-0.5508,-0.5467,-0.5395,-0.5395,-0.5395,0.0,0.0,0.0,0.0,0.0,0.0,0.0,0.0,0.0,0.0,0.0,0.0,0.0,0.0,0.0,0.0,0.0,0.0,0.0,0.0,0.0,0.0,0.0,0.0,0.0,0.0,0.0,0.0,0.0,0.0,0.0,0.0,0.0,0.0,0.0,0.0,0.0,0.0,-1.0933,-1.0866,-1.1044,-1.1114,-1.1174,0.0,0.0,0.0,0.0,0.0,0.0,-1.1895,-1.1888,-1.1893,-1.1975,-1.1404,-1.1473,-1.2248,-1.1933,-1.2145,-1.2911,-1.332,-1.3493,-1.35,-1.3761,-1.3901,-1.3975,-1.3975,-1.3848,-1.3533,-1.2685,-1.2151,-1.1904,-1.2124,-1.2211,-1.2275,-1.2458,-1.2532,-1.2532,0.0,0.0,0.0,0.0,0.0,0.0,0.0,0.0,0.0,0.0,0.0,0.0,0.0,0.0,-0.4964,-0.5362,-0.5395,-0.5395,0.0,0.0,0.0,0.0,0.0,0.0,0.0,0.0,0.0,-0.5395,-0.5395,-0.547,-0.5579,-0.5579,-0.565,-0.5779,-0.5779,-0.5623,-0.5395,-0.5395,-0.5395,-0.5395,0.0,0.0,0.0,0.0,0.0,0.0,0.0,0.0,0.0,0.0,0.0,0.0,0.0,0.0,0.0,0.0,0.0,0.0,0.0,0.0,0.0,0.0,0.0,0.0,0.0,0.0,0.0,0.0,0.0,0.0,0.0,0.0,0.0,0.0,0.0,0.0,0.0,0.0,0.0,-1.1001,-1.1126,0.0,0.0,0.0,0.0,-1.1717,-1.1676,-1.1744,-1.1901,-1.2147,-1.2422,-1.2748,-1.2966,-1.3087,-1.314,-1.3114,-1.3134,-1.3186,-1.322,-1.3233,-1.3233,-1.3247,-1.3367,-1.3626,-1.3626,-1.362,-1.36,-1.354,-1.334,-1.3126,-1.314,-1.314,-1.3146,-1.316,-1.316,-1.316,0.0,0.0,0.0,0.0,0.0,0.0,0.0,0.0,0.0,0.0,0.0,0.0,0.0,-0.4858,-0.5057,-0.519,-0.5326,-0.5395,-0.5395,0.0,0.0,0.0,0.0,0.0,0.0,0.0,-0.5542,-0.5542,-0.5599,-0.5674,-0.5725,-0.5725,-0.5752,-0.58,-0.58,-0.5742,-0.5637,-0.5583,-0.5484,-0.5395,-0.5395,-0.5395,0.0,0.0,0.0,0.0,0.0,0.0,0.0,0.0,0.0,0.0,0.0,0.0,0.0,0.0,0.0,0.0,0.0,0.0,0.0,0.0,0.0,0.0,0.0,0.0,0.0,0.0,0.0,0.0,0.0,0.0,0.0,0.0,0.0,0.0,0.0,0.0,0.0,-1.1107,-1.1356,0.0,-1.1823,-1.1955,-1.2148,-1.2398,-1.2425,-1.2486,-1.2712,-1.2832,-1.2933,-1.3039,-1.3153,-1.326,-1.3447,-1.3447,-1.364,-1.4055,-1.4055,-1.4155,-1.4342,-1.4342,-1.4396,-1.4482,-1.4289,-1.4166,-1.4153,-1.4008,-1.3647,-1.3227,-1.3373,-1.3447,-1.3467,-1.3701,-1.3774,-1.3774,0.0,0.0,0.0,0.0,0.0,0.0,0.0,0.0,0.0,0.0,0.0,-0.4528,-0.4661,-0.4858,-0.5057,-0.519,-0.5326,-0.5395,-0.5395,0.0,0.0,0.0,0.0,0.0,0.0,-0.5573,-0.5613,-0.5661,-0.5755,-0.5827,-0.5878,-0.5878,-0.5908,-0.5956,-0.5956,-0.5888,-0.5758,-0.5669,-0.5585,-0.5474,-0.5474,-0.544,-0.5395,0.0,0.0,0.0,0.0,0.0,0.0,0.0,0.0,0.0,0.0,0.0,0.0,0.0,0.0,0.0,0.0,0.0,0.0,0.0,0.0,0.0,0.0,0.0,0.0,0.0,0.0,0.0,0.0,0.0,0.0,0.0,0.0,0.0,0.0,-1.1276,-1.141,-1.1539,-1.1777,-1.1877,-1.1866,-1.2238,-1.2478,-1.2473,-1.2744,-1.3119,-1.3487,-1.3507,-1.3431,-1.3278,-1.3629,-1.3721,-1.3519,-1.387,-1.4282,-1.4669,-1.4669,-1.477,-1.5008,-1.5008,-1.5008,-1.4995,-1.4756,-1.4669,-1.4656,-1.4462,-1.4155,-1.3801,-1.3794,-1.3753,-1.3814,-1.4015,-1.4088,-1.4088,0.0,0.0,0.0,0.0,0.0,0.0,0.0,0.0,0.0,0.0,-0.4148,-0.4434,-0.4764,-0.4797,-0.4964,-0.5362,-0.5395,-0.5395,-0.5395,-0.5395,0.0,0.0,0.0,0.0,-0.5586,-0.5599,-0.5671,-0.581,-0.5817,-0.5898,-0.6006,-0.601,-0.6132,-0.6313,-0.6274,-0.6071,-0.5704,-0.5701,-0.5653,-0.561,-0.5599,-0.5504,-0.5402,0.0,0.0,0.0,0.0,0.0,0.0,0.0,0.0,0.0,0.0,0.0,0.0,0.0,0.0,0.0,0.0,0.0,0.0,0.0,0.0,0.0,0.0,0.0,0.0,0.0,0.0,0.0,0.0,0.0,0.0,0.0,0.0,0.0,-1.1081,-1.1505,-1.1845,-1.2281,-1.2288,-1.2144,-1.1832,-1.2624,-1.275,-1.191,-1.2689,-1.3473,-1.4082,-1.4115,-1.3881,-1.3414,-1.436,-1.4405,-1.3432,-1.445,-1.497,-1.5022,-1.5022,-1.5028,-1.5035,-1.5035,-1.5035,-1.5035,-1.5028,-1.5022,-1.5022,-1.5015,-1.5008,-1.4955,-1.4378,-1.4115,-1.4115,-1.4115,-1.4115,-1.4115,0.0,0.0,0.0,0.0,0.0,0.0,0.0,0.0,0.0,0.0,-0.4148,-0.4434,-0.4764,-0.4797,-0.4964,-0.5362,-0.5395,-0.5395,-0.5395,0.0,0.0,0.0,0.0,0.0,-0.5589,-0.58,-0.5892,-0.5929,-0.6183,-0.6308,-0.6352,-0.6268,-0.6259,-0.6298,-0.6131,-0.6025,-0.5901,-0.5799,-0.5699,-0.5566,-0.54,-0.5304,-0.5316,0.0,0.0,0.0,0.0,0.0,0.0,0.0,0.0,0.0,0.0,0.0,0.0,0.0,0.0,0.0,0.0,0.0,0.0,0.0,0.0,0.0,0.0,0.0,0.0,0.0,0.0,0.0,0.0,0.0,0.0,0.0,-1.0526,-1.0851,-1.1587,-1.1443,-1.1611,-1.2541,-1.2235,-1.1982,-1.2168,-1.1867,-1.1957,-1.2667,-1.312,-1.3743,-1.4716,-1.4034,-1.3511,-1.3381,-1.2984,-1.2939,-1.3387,-1.3709,-1.432,-1.5277,-1.5277,-1.5391,-1.5591,-1.5591,-1.5591,-1.5578,-1.5364,-1.5277,-1.5257,-1.5095,-1.5008,-1.4995,-1.4827,-1.4767,-1.4767,-1.4767,-1.4767,-1.4767,0.0,0.0,0.0,0.0,0.0,0.0,0.0,0.0,0.0,0.0,-0.3853,-0.4092,-0.4731,-0.4797,-0.4964,-0.5362,-0.5395,-0.5395,-0.5395,0.0,0.0,0.0,0.0,-0.5647,-0.5772,-0.5905,-0.6054,-0.6217,-0.6386,-0.6465,-0.641,-0.6331,-0.6248,-0.6162,-0.6034,-0.5951,-0.5865,-0.5788,-0.5641,-0.5429,-0.5275,-0.5221,-0.5246,-0.5294,-0.5323,-0.5379,-0.5382,-0.5395,-0.5395,-0.5395,0.0,0.0,0.0,0.0,0.0,0.0,0.0,0.0,0.0,0.0,0.0,0.0,0.0,0.0,0.0,0.0,0.0,0.0,0.0,0.0,0.0,0.0,0.0,0.0,-1.0213,-1.0488,-1.1866,-1.1693,-1.1701,-1.249,-1.228,-1.1922,-1.1454,-1.1821,-1.2065,-1.1991,-1.2852,-1.3532,-1.3835,-1.3285,-1.2818,-1.2494,-1.2318,-1.2323,-1.2499,-1.3345,-1.4179,-1.4916,-1.5391,-1.5665,-1.5784,-1.5784,-1.5784,-1.5771,-1.5651,-1.5578,-1.5565,-1.5398,-1.5331,-1.5304,0.0,0.0,0.0,0.0,-1.5008,-1.5008,0.0,0.0,0.0,0.0,0.0,0.0,0.0,0.0,0.0,0.0,0.0,-0.3606,-0.4661,-0.4764,-0.4927,-0.5329,-0.5362,-0.5362,0.0,0.0,0.0,-0.5548,-0.5606,-0.5745,-0.5986,-0.601,-0.6193,-0.6511,-0.6528,-0.6454,-0.6315,-0.6328,-0.6209,-0.5996,-0.5996,-0.5874,-0.5709,-0.5694,-0.5487,-0.5205,-0.5192,-0.5209,-0.5198,-0.5294,-0.5297,-0.5324,-0.54,-0.5409,-0.5395,-0.5395,0.0,0.0,0.0,0.0,0.0,0.0,0.0,0.0,0.0,0.0,0.0,0.0,0.0,0.0,0.0,0.0,0.0,0.0,0.0,0.0,0.0,0.0,0.0,0.0,-0.9754,-0.9662,-1.1869,-1.1846,-1.1805,-1.2331,-1.2323,-1.1734,-1.0353,-1.1874,-1.2334,-1.083,-1.2224,-1.298,-1.2551,-1.2278,0.0,0.0,0.0,-1.1999,-1.1219,-1.3028,-1.4052,-1.4298,-1.5207,-1.5689,-1.5784,-1.5683,-1.5689,-1.5778,-1.5683,-1.5683,-1.5784,-1.5784,-1.5784,-1.5731,-1.5264,-1.5109,-1.5109,-1.5109,-1.5109,-1.5109,0.0,0.0,0.0,0.0,0.0,0.0,0.0,0.0,0.0,-0.3801,-0.3491,-0.3566,-0.455,-0.4628,-0.4791,-0.5123,-0.5156,-0.5156,0.0,0.0,-0.5222,-0.5369,-0.5627,-0.5844,-0.599,-0.6152,-0.634,-0.6511,-0.6597,-0.6607,-0.6541,-0.6437,-0.6271,-0.6054,-0.5835,-0.5753,-0.5701,-0.5602,-0.549,-0.5366,-0.5224,-0.5182,-0.5124,-0.5325,-0.5362,-0.5337,-0.5487,-0.5501,-0.5395,-0.5395,-0.5395,-0.5395,-0.5395,0.0,0.0,0.0,0.0,0.0,0.0,0.0,0.0,0.0,0.0,0.0,0.0,0.0,0.0,0.0,0.0,0.0,0.0,0.0,0.0,-1.0559,-0.9948,-0.9853,-1.1305,-1.0942,-1.1089,-1.2667,-1.1702,-1.0776,-1.0453,-1.0271,-1.0712,-1.2026,-1.1813,-1.2272,-1.3831,-1.2325,-1.1327,-1.1219,-1.0547,-1.0498,-1.117,-1.1609,-1.2635,-1.4298,-1.449,0.0,-1.5784,-1.4968,-1.5016,-1.5737,-1.4921,-1.5064,-1.5784,-1.5784,-1.5784,-1.5771,-1.5705,-1.5665,-1.5665,-1.5665,-1.5665,-1.5665,0.0,0.0,0.0,0.0,0.0,0.0,0.0,0.0,0.0,0.0,-0.2473,-0.2618,-0.3898,-0.4056,-0.4323,-0.5054,-0.519,0.0,0.0,-0.5087,-0.515,-0.5259,-0.5405,-0.5579,-0.5797,-0.5912,-0.6051,-0.6257,-0.6331,-0.6349,-0.6337,-0.6272,-0.6127,-0.5908,-0.5777,-0.5688,-0.5686,-0.5623,-0.5537,-0.5405,-0.5344,-0.5214,-0.5067,-0.5191,-0.5268,-0.5259,-0.5405,-0.542,-0.5395,-0.5395,-0.5395,-0.5395,-0.5395,-0.5395,-0.5395,0.0,0.0,0.0,0.0,0.0,0.0,0.0,0.0,0.0,0.0,0.0,0.0,0.0,0.0,-0.9437,-0.9675,0.0,-0.9837,-1.0628,-0.9866,-0.9673,-1.1215,-1.0498,-1.0288,-1.1594,-1.1046,-1.0435,-0.9973,-1.0145,-1.0492,-1.1023,-1.1162,-1.1419,-1.1917,-1.0935,-1.04,-1.04,-0.9867,-0.9871,-1.04,-1.093,-1.1712,-1.2732,-1.327,-1.4046,-1.5016,-1.4538,-1.4586,-1.5064,-1.5064,-1.5064,-1.5112,-1.5588,-1.5784,-1.5784,-1.5784,-1.5784,-1.5798,-1.5999,-1.5959,-1.5804,0.0,0.0,0.0,0.0,0.0,0.0,0.0,0.0,0.0,0.0,-0.1474,-0.1651,-0.3079,-0.3346,-0.3865,0.0,0.0,0.0,0.0,-0.4855,-0.4897,-0.5107,-0.5177,-0.5307,-0.5591,-0.5586,-0.5717,-0.5995,-0.5981,-0.6032,-0.6045,-0.6071,-0.5952,-0.5688,-0.5508,-0.5419,-0.5419,-0.5395,-0.5178,-0.4905,-0.5217,-0.5122,-0.4807,-0.5015,-0.5143,-0.5212,-0.5316,-0.5375,-0.5395,-0.5395,-0.5395,-0.5395,-0.5395,-0.5395,-0.5395,-0.5395,-0.5395,0.0,0.0,0.0,0.0,0.0,0.0,0.0,0.0,-0.8508,-0.8598,-0.8679,-0.9047,-0.9354,-0.9401,-0.9335,-0.9578,-1.0588,-0.964,-0.9425,-1.1161,-1.0235,-0.9646,-1.0238,-1.0403,-1.0215,-0.9501,-1.0307,-1.0641,-0.9965,-1.0498,-1.0596,-0.9965,-0.9723,-0.9579,-0.9579,-0.9579,-0.9579,-0.9579,-1.0449,-1.0979,-1.1219,-1.1999,-1.2974,-1.4004,-1.3806,-1.3806,-1.4052,-1.5064,-1.5159,-1.4634,-1.5493,-1.5784,-1.5784,-1.5784,-1.5784,-1.5811,-1.6099,-1.6039,-1.5865,0.0,0.0,0.0,0.0,0.0,0.0,0.0,0.0,0.0,0.0,0.0,0.0,0.0,0.0,0.0,0.0,0.0,0.0,-0.4625,-0.4054,-0.4045,-0.4801,-0.5057,-0.5298,-0.5491,-0.5576,-0.5707,-0.5894,-0.5973,-0.5984,-0.5912,-0.6028,-0.5952,-0.5644,-0.4837,-0.4478,-0.4427,-0.4343,-0.3776,-0.3141,-0.4635,-0.4686,-0.4027,-0.4724,-0.5078,-0.5225,-0.5395,-0.5429,-0.5395,-0.5395,-0.5395,-0.5395,-0.5395,-0.5395,-0.5395,-0.5395,0.0,-0.5395,-0.5395,-0.5425,-0.5526,-0.5931,-0.6013,-0.6168,0.0,-0.7021,-0.7224,-0.7576,-0.7858,-0.8102,-0.8388,-0.8459,-0.882,-1.0072,-0.9463,-0.9246,-1.0599,-0.9988,-0.9453,-0.9698,-0.9731,-0.9694,-0.9596,-0.971,-1.0113,-1.0979,-1.0256,-1.0158,-1.0979,-1.0113,-0.9579,-0.9579,-0.9579,-0.9579,-0.9579,-0.9723,-1.0256,-1.1219,-1.1317,-1.1901,-1.2829,-1.195,-1.2047,-1.2926,-1.3998,-1.4921,-1.5635,-1.5737,-1.5784,-1.5784,-1.5784,-1.5784,-1.5784,-1.5818,-1.5811,-1.5832,0.0,0.0,0.0,0.0,0.0,0.0,0.0,0.0,0.0,0.0,0.0,0.0,0.0,0.0,0.0,0.0,0.0,0.0,-0.332,-0.3017,-0.3022,-0.3315,-0.3846,-0.4272,-0.449,-0.492,-0.5231,-0.5508,-0.5522,-0.5573,-0.5614,-0.5664,-0.5347,-0.4744,-0.4355,-0.4183,-0.4138,-0.3629,-0.3695,-0.4188,-0.4351,-0.4475,-0.4533,-0.4783,-0.5024,-0.5228,-0.53,-0.537,0.0,0.0,-0.5395,-0.5395,-0.5395,-0.5395,-0.5395,-0.5395,-0.5395,-0.5416,-0.5504,-0.5662,-0.5881,-0.6117,-0.6347,-0.658,-0.6912,-0.7217,-0.7475,-0.763,-0.791,-0.8113,-0.8264,-0.8377,-0.8834,-1.0018,-0.9494,-0.9389,-1.0536,-1.0018,-0.9543,-0.9571,-0.9579,-0.9579,-0.9579,-0.9579,-0.9772,-1.0256,-0.9871,-0.9772,-1.0256,-0.9817,-0.9579,-0.9579,-0.9579,-0.9579,-0.9579,-0.9579,-0.9723,-1.006,-1.006,-1.0493,-1.1365,-1.093,-1.1428,-1.268,-1.3182,-1.4152,-1.5387,-1.6039,-1.6339,-1.6339,-1.6339,-1.6233,-1.6086,-1.6086,-1.5979,-1.5804,0.0,0.0,0.0,0.0,0.0,0.0,0.0,0.0,0.0,0.0,0.0,0.0,0.0,0.0,0.0,0.0,0.0,0.0,0.0,-0.2149,-0.21,-0.2244,-0.2993,-0.3486,-0.3698,-0.4201,-0.4686,-0.5089,-0.4711,-0.4659,-0.4986,-0.4809,-0.4362,-0.3775,-0.3482,-0.3357,-0.3312,-0.2709,-0.2964,-0.3764,-0.3796,-0.3975,-0.4296,-0.4643,-0.4927,-0.5137,-0.5137,-0.5268,0.0,0.0,-0.5395,-0.5395,-0.5395,-0.5395,-0.5402,-0.5446,-0.5521,-0.561,-0.5655,-0.587,-0.6144,-0.6324,-0.6606,-0.6868,-0.7195,-0.7492,-0.7745,-0.7886,-0.8113,-0.8304,-0.8357,-0.8518,-0.8903,-0.9754,-0.9464,-0.9409,-1.0249,-0.993,-0.9579,-0.9579,-0.9579,-0.9579,-0.9579,-0.9579,-0.9579,-0.9579,-0.9579,-0.9579,-0.9579,-0.9579,-0.9579,-0.9579,-0.9529,-0.948,-0.948,-0.9426,-0.9278,-0.9084,-0.9084,-0.9373,-0.9953,-1.0003,-1.087,-1.2264,-1.2319,-1.3377,-1.5071,-1.589,-1.64,-1.6707,-1.6707,-1.6573,-1.6393,-1.6393,-1.6152,-1.5811,0.0,0.0,0.0,0.0,0.0,0.0,0.0,0.0,0.0,0.0,0.0,0.0,0.0,0.0,0.0,0.0,0.0,0.0,0.0,-0.1511,-0.1445,-0.2082,-0.2928,-0.3391,-0.3397,-0.3571,-0.4006,-0.4806,-0.3448,-0.3162,-0.3936,-0.328,-0.298,-0.2896,-0.1932,-0.147,-0.1469,-0.1395,-0.0894,-0.0365,-0.2663,-0.3104,-0.2565,-0.4115,-0.4835,-0.5007,-0.5007,0.0,0.0,0.0,-0.5395,-0.5395,-0.5395,-0.5395,0.0,-0.5538,-0.5825,-0.6047,-0.5832,-0.5946,-0.6133,-0.6279,-0.6318,-0.6513,-0.7218,-0.7418,-0.7563,-0.8161,-0.828,-0.8345,-0.8567,-0.8608,-0.8726,-0.9077,-0.9096,-0.9218,-0.9571,-0.9624,-0.9579,-0.9579,-0.9579,-0.9579,-0.9579,-0.9579,-0.9579,-0.9579,-0.9579,-0.9579,-0.9579,-0.9579,-0.9579,-0.9579,-0.9331,-0.9236,-0.9236,-0.8977,-0.8825,-0.8825,-0.8825,-0.8825,-0.8878,-0.9043,-0.9969,-1.1315,-1.1315,-1.2756,-1.502,-1.502,-1.5683,-1.6707,-1.6707,-1.67,-1.6693,-1.6693,-1.6326,-1.5784,0.0,0.0,0.0,0.0,0.0,0.0,0.0,0.0,0.0,0.0,0.0,0.0,0.0,0.0,0.0,0.0,0.0,0.0,0.0,-0.0505,-0.0471,-0.0706,-0.1458,-0.1923,-0.1994,-0.2491,-0.2897,-0.3279,-0.2811,-0.272,-0.2984,-0.2745,-0.2335,-0.1839,-0.1494,-0.1341,-0.1302,-0.0683,-0.0908,-0.1737,-0.2449,-0.291,-0.327,-0.4219,-0.4754,-0.4988,0.0,0.0,0.0,-0.5395,-0.5395,-0.5395,-0.5395,-0.5395,-0.5426,-0.5545,-0.5798,-0.6029,-0.5952,-0.6176,-0.6493,-0.6654,-0.6861,-0.7129,-0.7569,-0.7853,-0.8058,-0.8264,-0.839,-0.8535,-0.86,-0.8612,-0.8731,-0.9039,-0.9096,-0.9222,-0.9575,-0.9579,-0.9579,-0.9579,-0.9579,-0.9579,-0.9579,-0.9579,-0.9579,-0.9579,-0.9579,-0.9579,-0.9579,-0.9579,-0.9529,-0.9331,-0.9236,-0.9133,-0.8928,-0.8825,-0.8781,-0.8744,-0.8644,-0.8587,-0.8587,-0.8695,-0.9167,-0.9955,-1.0892,-1.1962,-1.3158,-1.4902,-1.5805,-1.6229,-1.7022,-1.7168,-1.7052,-1.7052,-1.6754,-1.6386,0.0,0.0,0.0,0.0,0.0,0.0,0.0,0.0,0.0,0.0,0.0,0.0,0.0,0.0,0.0,0.0,0.0,0.0,0.0,0.0,0.0,0.0,-0.0706,-0.1152,-0.1242,-0.1636,-0.2046,-0.244,-0.1883,-0.1783,-0.2075,-0.1747,-0.1347,-0.0838,-0.0838,-0.0838,-0.0802,-0.0255,-0.0619,-0.1637,-0.1838,-0.244,-0.3254,-0.3966,-0.458,0.0,0.0,0.0,0.0,-0.5395,-0.5395,-0.5395,-0.5395,-0.5467,-0.5583,-0.5701,-0.5955,-0.6184,-0.6112,-0.6332,-0.6651,-0.6822,-0.7072,-0.7381,-0.7797,-0.8084,-0.8308,-0.8377,-0.8526,-0.8612,-0.8612,-0.8612,-0.8731,-0.9039,-0.9096,-0.9222,-0.9575,-0.9579,-0.9579,-0.9579,-0.9579,-0.9579,-0.9579,-0.9579,-0.9579,-0.9579,-0.9685,-0.9721,-0.9721,-0.9782,-0.9668,-0.9365,-0.9268,-0.9112,-0.8852,-0.8747,-0.8649,-0.8601,-0.8543,-0.8509,-0.8564,-0.8564,-0.8859,-0.9439,-1.0343,-1.1266,-1.2304,-1.4406,-1.5535,-1.6021,-1.7147,-1.7468,-1.7353,-1.7353,-1.7233,-1.6961,0.0,0.0,0.0,0.0,0.0,0.0,0.0,0.0,0.0,0.0,0.0,0.0,0.0,0.0,0.0,0.0,0.0,0.0,0.0,0.0,0.0,0.0,-0.0673,-0.1042,-0.1042,-0.1035,-0.1433,-0.2198,-0.0717,-0.0436,-0.1198,-0.0399,0.0,0.0,0.0,0.0,0.0,0.0,0.0,-0.0072,-0.0954,-0.1746,-0.2505,-0.3423,0.0,0.0,0.0,0.0,0.0,-0.5395,-0.5395,-0.5395,-0.5402,-0.5607,-0.583,-0.5946,-0.6287,-0.6563,-0.6377,-0.6454,-0.6648,-0.6802,-0.6969,-0.7303,-0.7881,-0.8172,-0.8353,-0.8575,-0.8612,-0.8612,-0.8612,-0.8612,-0.8722,-0.9027,-0.9092,-0.9218,-0.9563,-0.9571,-0.9579,-0.9579,-0.9579,-0.9579,-0.9579,-0.9587,-0.9591,-0.9591,-0.9791,-0.9888,-0.9896,-1.0118,-1.0056,-0.969,-0.9433,-0.9175,-0.886,-0.865,-0.8492,-0.8492,-0.8503,-0.8581,-0.8723,-0.8723,-0.907,-0.9761,-0.9761,-1.0739,-1.2363,-1.3599,-1.4781,-1.5914,-1.7153,-1.7582,-1.7582,-1.7582,-1.7582,-1.7502,0.0,0.0,0.0,0.0,0.0,0.0,0.0,0.0,0.0,0.0,0.0,0.0,0.0,0.0,0.0,0.0,0.0,0.0,0.0,0.0,0.0,0.0,0.0,0.0,0.0,0.0,0.0,0.0,0.0,-0.0103,-0.031,-0.0103,0.0,0.0,0.0,0.0,0.0,0.0,0.0,-0.0069,0.0,-0.1663,-0.2473,0.0,0.0,0.0,0.0,0.0,0.0,-0.5395,-0.5395,-0.5416,-0.5528,-0.5654,-0.583,-0.5946,-0.6177,-0.6412,-0.6486,-0.6652,-0.6828,-0.7179,-0.7505,-0.7846,-0.8144,-0.8398,-0.8555,-0.86,-0.8612,-0.8612,-0.8612,-0.8612,-0.8637,-0.8857,-0.9007,-0.9173,-0.9393,-0.9543,-0.9579,-0.9579,-0.9579,-0.9579,-0.9579,-0.9742,-0.9819,-0.9819,-0.986,-0.9945,-1.0135,-1.0188,-0.9951,-0.9433,-0.9328,-0.9066,-0.8591,-0.8647,-0.8652,-0.8655,-0.8767,-0.8842,-0.8824,-0.8824,-0.8954,-0.9158,-0.9379,-0.9868,-1.0629,-1.2896,-1.4078,-1.4781,-1.6823,-1.7582,-1.7582,-1.7582,-1.7582,-1.7562,0.0,0.0,0.0,0.0,0.0,0.0,0.0,0.0,0.0,0.0,0.0,0.0,0.0,0.0,0.0,0.0,0.0,0.0,0.0,0.0,0.0,0.0,0.0,0.0,0.0,0.0,0.0,0.0,0.0,0.0,0.0,0.0,0.0,0.0,0.0,0.0,0.0,0.0,0.0,0.0,0.0,0.0,0.0,0.0,0.0,0.0,0.0,0.0,0.0,-0.5395,-0.5395,-0.5423,-0.5542,-0.5688,-0.583,-0.6057,-0.6211,-0.6377,-0.6637,-0.6756,-0.6936,-0.7406,-0.7749,-0.806,-0.8351,-0.8535,-0.8612,-0.8612,-0.8612,-0.8612,-0.8612,-0.8612,-0.8621,-0.8792,-0.8909,-0.9064,-0.9367,-0.9441,-0.9539,-0.9616,-0.9579,-0.9579,-0.9579,-0.9782,-0.992,-1.0053,-1.0079,-1.0172,-1.0274,-1.0249,-1.0022,-0.954,-0.9383,-0.9115,-0.8682,-0.8767,-0.8811,-0.8811,-0.8844,-0.8885,-0.8885,-0.8885,-0.8992,-0.9158,-0.9434,-0.9761,-1.0198,-1.2788,-1.397,-1.4347,-1.6664,-1.7582,-1.7582,-1.7582,-1.7582,-1.7582,0.0,0.0,0.0,0.0,0.0,0.0,0.0,0.0,0.0,0.0,0.0,0.0,0.0,0.0,0.0,0.0,0.0,0.0,0.0,0.0,0.0,0.0,0.0,0.0,0.0,0.0,0.0,0.0,0.0,0.0,0.0,0.0,0.0,0.0,0.0,0.0,0.0,0.0,0.0,0.0,0.0,0.0,0.0,0.0,0.0,0.0,0.0,0.0,0.0,0.0,-0.5395,-0.5423,-0.5542,-0.5688,-0.5866,-0.6198,-0.6325,-0.6412,-0.6826,-0.6909,-0.7035,-0.7579,-0.7875,-0.8087,-0.8459,-0.8535,-0.8535,-0.8535,-0.8535,-0.8535,-0.8535,-0.8559,-0.858,-0.8727,-0.8787,-0.8938,-0.9322,-0.9388,-0.9469,-0.9608,-0.9579,-0.9579,-0.9579,-0.9807,-0.9989,-1.02,-1.0298,-1.0415,-1.0415,-1.0342,-1.0147,-0.9761,-0.9489,-0.9213,-0.8885,-0.8885,-0.8885,-0.8885,-0.8885,-0.8885,-0.8885,-0.8885,-0.9047,-0.9323,-0.9596,-0.9871,-1.0417,-1.2788,-1.3809,-1.4137,-1.6452,-1.7364,-1.7364,-1.7529,-1.7582,-1.7582,0.0,0.0,0.0,0.0,0.0,0.0,0.0,0.0,0.0,0.0,0.0,0.0,0.0,0.0,0.0,0.0,0.0,0.0,0.0,0.0,0.0,0.0,0.0,0.0,0.0,0.0,0.0,0.0,0.0,0.0,0.0,0.0,0.0,0.0,0.0,0.0,0.0,0.0,0.0,0.0,0.0,0.0,0.0,0.0,0.0,0.0,0.0,0.0,0.0,0.0,-0.5395,-0.5423,-0.5542,-0.5688,-0.5866,-0.6198,-0.6435,-0.6641,-0.7026,-0.7223,-0.7358,-0.7713,-0.7894,-0.8027,-0.8101,-0.8109,-0.8109,-0.8109,-0.8109,-0.8109,-0.8109,-0.8235,-0.8349,-0.8377,-0.8629,-0.8893,-0.9112,-0.931,-0.9469,-0.9608,-0.9579,-0.9579,-0.9579,-0.9925,-1.018,-1.0212,-1.025,-1.0319,-1.0319,-1.0296,-1.0036,-0.9489,-0.9158,-0.894,-0.8885,-0.8885,-0.8885,-0.8885,-0.8885,-0.8885,-0.8885,-0.8885,-0.8937,-0.8992,-0.9047,-0.9379,-0.9978,-1.1383,-1.2245,-1.2955,-1.5269,-1.618,-1.6293,-1.7259,-1.7582,-1.7582,0.0,0.0,0.0,0.0,0.0,0.0,0.0,0.0,0.0,0.0,0.0,0.0,0.0,0.0,0.0,0.0,0.0,0.0,0.0,0.0,0.0,0.0,0.0,0.0,0.0,0.0,0.0,0.0,0.0,0.0,0.0,0.0,0.0,0.0,0.0,0.0,0.0,0.0,0.0,0.0,0.0,0.0,0.0,0.0,0.0,0.0,0.0,0.0,0.0,0.0,-0.5395,-0.5405,-0.5481,-0.5623,-0.5888,-0.6252,-0.6484,-0.6718,-0.7219,-0.7375,-0.7465,-0.7716,-0.7886,-0.8012,-0.8012,-0.8012,-0.8012,-0.8012,-0.8012,-0.8012,-0.8012,-0.8166,-0.8292,-0.8292,-0.8515,-0.8751,-0.893,-0.9108,-0.9287,-0.9462,-0.9567,-0.9579,-0.9579,-0.9953,-1.0212,-1.0212,-1.0278,-1.0312,-1.0312,-0.9981,-0.9599,-0.9158,-0.8992,-0.8885,-0.8885,-0.8885,-0.8885,-0.8885,-0.8885,-0.8885,-0.8885,-0.8885,-0.8885,-0.8885,-0.9103,-0.9323,-0.9706,-1.1164,-1.1923,-1.2413,-1.4948,-1.5914,-1.6021,-1.7206,-1.7582,-1.7582,0.0,0.0,0.0,0.0,0.0,0.0,0.0,0.0056,0.0028,0.0,0.0,0.0,0.0,0.0,0.0,0.0,0.0,0.0,0.0,0.0,0.0,0.0,0.0,0.0,0.0,0.0,0.0,0.0,0.0,0.0,0.0,0.0,0.0,0.0,0.0,0.0,0.0,0.0,0.0,0.0,0.0,-0.0196,0.0,0.0,0.0,0.0,0.0,0.0,0.0,0.0,-0.5395,-0.5395,-0.5395,-0.5576,-0.5866,-0.6294,-0.6511,-0.6785,-0.7357,-0.7465,-0.7494,-0.7699,-0.7801,-0.7898,-0.7898,-0.7898,-0.7898,-0.7898,-0.7898,-0.7898,-0.7898,-0.8052,-0.8187,-0.8223,-0.8385,-0.858,-0.8792,-0.8978,-0.9161,-0.938,-0.9514,-0.9579,-0.9579,-0.9953,-1.0164,-1.0108,-1.0116,-1.0091,-1.0091,-0.9599,-0.9158,-0.8885,-0.8885,-0.8885,-0.8885,-0.8885,-0.8885,-0.8885,-0.8885,-0.8885,-0.8885,-0.8885,-0.8885,-0.894,-0.9158,-0.9323,-0.9489,-1.0899,-1.1496,-1.1873,-1.4191,-1.5269,-1.5642,-1.6829,-1.7364,-1.7582,0.0,0.0,0.0,0.0,0.0,0.0,0.0,0.0168,0.014,0.0028,0.0,0.0,0.0,0.0,0.0,0.0,0.0,0.0,0.0,0.0,0.0,0.0,0.0,0.0,0.0,0.0,0.0,0.0,0.0,0.0,0.0,0.0,0.0,0.0,0.0,0.0,0.0,0.0,0.0,0.0,0.0,0.0,0.0,0.0,0.0,0.0,0.0,0.0,-0.5395,0.0,-0.5395,-0.5395,-0.5395,-0.5572,-0.587,-0.6296,-0.6613,-0.6974,-0.7397,-0.7496,-0.7508,-0.7508,-0.7521,-0.7533,-0.7533,-0.7533,-0.7533,-0.7533,-0.7533,-0.7533,-0.7533,-0.7722,-0.7898,-0.8012,-0.8195,-0.8434,-0.8775,-0.8978,-0.9161,-0.938,-0.9514,-0.9579,-0.9579,-0.9953,-1.006,-0.9743,-0.9576,-0.9489,-0.9489,-0.9158,-0.8937,-0.8885,-0.8885,-0.8885,-0.8885,-0.8885,-0.8885,-0.8885,-0.8885,-0.8885,-0.8885,-0.8885,-0.8885,-0.8885,-0.8937,-0.9103,-0.9434,-0.9596,-0.9978,-1.0582,-1.1873,-1.3112,-1.44,-1.5589,-1.6717,-1.7582,0.0,0.0,0.0,0.0,0.0,0.0,0.0,0.0308,0.028,0.014,0.0112,0.0084,0.0,0.0,0.0,0.0,0.0,0.0,0.0,0.0,0.0,0.0,0.0,0.0,0.0,0.0,0.0,0.0,0.0,0.0,0.0,0.0,0.0,0.0,0.0,0.0,0.0,0.0,0.0,0.0,0.0,0.0,0.0,0.0,0.0,0.0,0.0,0.0,-0.5395,-0.5395,-0.5458,-0.5521,-0.5428,-0.57,0.0,-0.6221,-0.6674,-0.7109,-0.7262,-0.7403,-0.7484,-0.7484,-0.7484,-0.7484,-0.7484,-0.7484,-0.7484,-0.7484,-0.7484,-0.7484,-0.7484,-0.7673,-0.7853,-0.7983,0.0,0.0,-0.8633,-0.8917,-0.9125,-0.9194,-0.9453,-0.9579,-0.9579,-0.9953,-1.0092,-0.9765,-0.9527,-0.9323,-0.9103,-0.8995,-0.8885,-0.8885,-0.8885,-0.8885,-0.8885,-0.8885,-0.8885,-0.8885,-0.8885,-0.8885,-0.8885,-0.8885,-0.8885,-0.8885,-0.8885,-0.8992,-0.9103,-0.9323,-0.9651,-1.0143,-1.1496,-1.2413,-1.3329,-1.5215,-1.6187,-1.6664,0.0,0.0,0.0,0.0,0.0,0.0,0.0505,0.0449,0.0364,0.0224,0.0168,0.0112,0.0,0.0,0.0,0.0,0.0,0.0,0.0,0.0,0.0,0.0,0.0,0.0,0.0,0.0,0.0,0.0,0.0,0.0,0.0,0.0,0.0,0.0,0.0,0.0,0.0,0.0,0.0,0.0,0.0,0.0,0.0,0.0,0.0,0.0,0.0,0.0,0.0,0.0,0.0,-0.5521,0.0,0.0,0.0,0.0,-0.6641,-0.7074,-0.7256,-0.7354,-0.7419,-0.7472,-0.7484,-0.7484,-0.7484,-0.7484,-0.7484,-0.7484,-0.7484,-0.7484,-0.7484,-0.7629,-0.7792,0.0,0.0,-0.8292,-0.8575,-0.8873,-0.9096,-0.9096,-0.9413,-0.9579,-0.9579,-0.98,-0.9887,-0.968,-0.9434,-0.9158,-0.894,-0.8885,-0.8885,-0.8885,-0.8885,-0.8885,-0.8885,-0.8885,-0.8885,-0.8885,-0.8885,-0.8885,-0.8885,-0.8885,-0.8885,-0.8885,-0.8885,-0.8885,-0.894,-0.9158,-0.9489,-0.9923,-1.0954,-1.1764,-1.2575,-1.4245,-1.5102,-1.5535,0.0,0.0,0.0,0.0,0.0,0.0,0.0,0.0533,0.0364,0.0224,0.0084,0.0,0.0,0.0,0.0,0.0,0.0,0.0,0.0,0.0,0.0,0.0,0.0,0.0,0.0,0.0,0.0,0.0,0.0,0.0,0.0,0.0,0.0,0.0,0.0,0.0,0.0,0.0,0.0,0.0,0.0,0.0,0.0,0.0,0.0,0.0,0.0,0.0,0.0,0.0,0.0,0.0,0.0,-0.5771,-0.6241,0.0,-0.655,-0.6818,-0.7338,-0.7358,-0.7269,-0.7439,-0.7484,-0.7484,-0.7484,-0.7484,-0.7484,-0.7484,-0.7484,-0.7484,-0.7484,-0.7484,-0.7602,-0.7955,-0.8016,0.0,-0.8559,-0.8873,-0.9096,-0.9096,-0.9413,-0.9579,-0.9579,-0.9442,-0.936,-0.9409,-0.9103,-0.8885,-0.8885,-0.8885,-0.8885,-0.8885,-0.8885,-0.8885,-0.8885,-0.8885,-0.8885,-0.8885,-0.8885,-0.8885,-0.8885,-0.8885,-0.8885,-0.8885,-0.8885,-0.8885,-0.8885,-0.8885,-0.9268,-0.9816,-0.9816,-1.0899,-1.2417,-1.2413,-1.3166,-1.4298,0.0,0.0,0.0,0.0,0.0,0.0,0.0,0.0785,0.0645,0.0364,0.0308,0.0196,0.0028,0.0,0.0,0.0,0.0,0.0,0.0,0.0,0.0,0.0,0.0,0.0,0.0,0.0,0.0,0.0,0.0,0.0,0.0,0.0,0.0,0.0,0.0,0.0,0.0,0.0,0.0,0.0,0.0,0.0,-0.1035,0.0,0.0,0.0,0.0,0.0,0.0,0.0,0.0,0.0,0.0,0.0,0.0,-0.6237,-0.6577,-0.6918,-0.6932,-0.6993,-0.709,-0.7143,-0.7216,-0.7305,-0.7305,-0.7399,-0.7484,-0.7484,-0.7484,-0.7484,-0.7484,-0.7484,-0.7598,-0.7955,-0.8012,0.0,0.0,-0.8873,-0.9096,-0.9096,-0.922,-0.9379,-0.9493,-0.9201,-0.9104,-0.9255,-0.9044,-0.8885,-0.8885,-0.8885,-0.8885,-0.8885,-0.8885,-0.8885,-0.8885,-0.8885,-0.8885,-0.8885,-0.8885,-0.8885,-0.8885,-0.8885,-0.8885,-0.8885,-0.8885,-0.8885,-0.8885,-0.8885,-0.9158,-0.9541,-0.9706,-1.0308,-1.1067,-1.2037,-1.263,-1.3112,0.0,0.0,0.0,0.0,0.0,0.0,0.0,0.0809,0.0705,0.0439,0.0358,0.0249,0.0028,0.0,0.0,0.0,0.0,0.0,0.0,0.0,0.0,0.0,0.0,0.0,0.0,0.0,0.0,0.0,0.0,0.0,0.0,0.0,0.0,0.0,0.0,0.0,0.0,0.0,0.0,0.0,0.0,0.0,-0.1052,0.0,0.0,0.0,0.0,0.0,0.0,0.0,0.0,0.0,0.0,0.0,0.0,0.0,-0.6428,-0.6792,-0.682,-0.6861,-0.6906,-0.6971,-0.709,-0.7187,-0.7187,-0.7358,-0.7484,-0.7484,-0.7484,-0.7484,-0.7484,-0.7484,-0.7598,-0.7955,-0.7934,-0.8016,-0.838,-0.8728,-0.9,-0.914,-0.9153,-0.9203,-0.9212,-0.9024,-0.8924,-0.9022,-0.8961,-0.8885,-0.8885,-0.8885,-0.8885,-0.8885,-0.8885,-0.8885,-0.8885,-0.8885,-0.8885,-0.8885,-0.8885,-0.8885,-0.8885,-0.8885,-0.8885,-0.8885,-0.8885,-0.8885,0.0,-0.8885,-0.9103,-0.9434,-0.9596,-0.9926,-1.0417,-1.1282,-1.166,-1.1932,0.0,0.0,0.0,0.0,0.0,0.0,0.0,0.0,0.0,0.0,0.0292,0.0161,0.0028,0.0,0.0,0.0,0.0,0.0,0.0,0.0,0.0,0.0,0.0,0.0,0.0,0.0,0.0,0.0,0.0,0.0,0.0,0.0,0.0,0.0,0.0,0.0,-0.0028,-0.014,-0.0393,-0.0701,-0.0701,-0.0817,0.0,0.0,0.0,0.0,0.0,0.0,0.0,0.0,0.0,0.0,0.0,0.0,0.0,0.0,0.0,0.0,0.0,-0.6798,-0.6717,-0.691,-0.7062,-0.7171,-0.7171,-0.735,0.0,-0.7484,-0.7484,-0.7484,-0.7484,-0.7492,-0.7614,-0.7959,-0.7822,-0.7827,-0.8154,-0.8493,-0.8792,-0.914,-0.9133,-0.8999,-0.8693,-0.8813,-0.8814,-0.8686,-0.8845,-0.8885,-0.8885,-0.8885,-0.8885,-0.8885,-0.8885,-0.8885,-0.8885,-0.8885,-0.8885,-0.8885,-0.8885,-0.8885,-0.8885,-0.8885,-0.8885,-0.8885,-0.8885,-0.8885,-0.8885,-0.8885,-0.9103,-0.9379,-0.9379,-0.9761,-1.0257,-1.0312,-1.0476,-1.0857,0.0,0.0,0.0,0.0,0.0,0.0,0.0,0.0,0.0,0.0,0.0434,0.0311,0.0161,0.0054,0.0,0.0,0.0,0.0,0.0,0.0,0.0,0.0,0.0,0.0,0.0,0.0,0.0,0.0,0.0,0.0,0.0,0.0,0.0,0.0,0.0,-0.0056,-0.0168,-0.0196,-0.0393,-0.0701,-0.0701,-0.0817,0.0,0.0,0.0,0.0,-0.3149,-0.4051,0.0,0.0,0.0,0.0,0.0,0.0,0.0,0.0,-0.6119,-0.6403,-0.6384,0.0,-0.6493,-0.6534,-0.6781,-0.7053,0.0,-0.7294,-0.7484,-0.7484,-0.7484,-0.7484,-0.7484,-0.7637,-0.7804,-0.7979,-0.7925,-0.792,-0.8169,-0.8314,-0.8503,-0.8837,-0.873,-0.8546,-0.8485,-0.8536,-0.8604,-0.8533,-0.8784,-0.8885,-0.8885,-0.8885,-0.8885,-0.8885,-0.8885,-0.8885,-0.8885,-0.8885,-0.8885,-0.8885,-0.8885,-0.8885,-0.8885,-0.8885,-0.8885,-0.8885,-0.8885,-0.8885,-0.8885,-0.8885,-0.8937,-0.9047,-0.9323,-0.9599,-0.9926,-1.0202,-1.0476,-1.0747,0.0,0.0,0.0,0.0,0.0,0.0,0.0,0.0,0.0,0.0,0.0,0.0,0.0,0.0,0.0,0.0,0.0,0.0,0.0,0.0,0.0,0.0,0.0,0.0,0.0,0.0,0.0,0.0,0.0,0.0,0.0,0.0,0.0,0.0,0.0,-0.0168,-0.0421,-0.0336,-0.0477,-0.0785,-0.0785,0.0,0.0,0.0,0.0,0.0,-0.2982,-0.3718,0.0,-0.5256,-0.5458,-0.5425,0.0,0.0,0.0,0.0,-0.6119,-0.6383,-0.6247,-0.6247,-0.6337,-0.6384,-0.6645,-0.6905,-0.7058,-0.7289,-0.7484,-0.7369,-0.7446,-0.7508,-0.7469,-0.7533,-0.7725,-0.8101,-0.7843,-0.7718,-0.8076,-0.8203,-0.8357,-0.8598,-0.8482,-0.8333,-0.8233,-0.835,-0.8411,-0.8476,-0.8699,-0.8811,-0.8878,-0.8885,-0.8885,-0.8885,-0.8885,-0.8885,-0.8885,-0.8885,-0.8885,-0.8885,-0.8885,-0.8885,-0.8885,-0.8885,-0.8885,-0.8885,-0.8885,-0.8885,-0.8885,-0.8885,-0.8885,-0.894,-0.9103,-0.9379,-0.9651,-0.9981,-1.0253,-1.0527,0.0,0.0,0.0,0.0,0.0,0.0,0.0,0.0,0.0,0.0,0.0,0.0,0.0,0.0,0.0,0.0,0.0,0.0,0.0,0.0,0.0,0.0,0.0,0.0,0.0,0.0,0.0,0.0,0.0,0.0,0.0,0.0,0.0,-0.0028,-0.0056,-0.0308,-0.0701,-0.0505,-0.0617,-0.0898,-0.0898,0.0,0.0,0.0,0.0,0.0,0.0,0.0,0.0,-0.5084,-0.5488,-0.5428,-0.5521,0.0,0.0,0.0,0.0,0.0,-0.6181,-0.6131,-0.6189,-0.6302,-0.6542,-0.6753,-0.7036,0.0,0.0,0.0,0.0,-0.7414,-0.7359,-0.7396,-0.7616,-0.8112,-0.769,-0.7441,-0.7866,-0.806,-0.8167,-0.8315,-0.8333,-0.8237,-0.8038,-0.818,-0.8381,-0.8472,-0.8625,-0.8777,-0.8875,-0.8885,-0.8885,-0.8885,-0.8885,-0.8885,-0.8885,-0.8885,-0.8885,-0.8885,-0.8885,-0.8885,-0.8885,-0.8885,-0.8885,-0.8885,-0.8885,-0.8885,-0.8885,-0.8885,-0.8885,-0.8885,-0.8885,-0.9103,-0.9434,-0.9706,-1.0036,-1.0366,0.0,0.0,0.0,0.0,0.0,0.0,0.0,0.0,0.0,0.0,0.0,0.0,0.0,0.0,0.0,0.0,0.0,0.0,0.0,0.0,0.0,0.0,0.0,0.0,0.0,0.0,0.0,0.0,0.0,0.0,0.0,0.0,-0.0056,-0.0168,-0.028,-0.0477,-0.0701,-0.0673,-0.0757,-0.0898,-0.0898,0.0,0.0,0.0,0.0,0.0,0.0,0.0,0.0,-0.5123,-0.5425,-0.5395,-0.5428,0.0,0.0,0.0,0.0,0.0,-0.5987,-0.5922,-0.5895,-0.6096,-0.644,-0.6685,-0.6704,0.0,0.0,0.0,0.0,0.0,0.0,-0.7379,-0.7585,-0.7677,-0.7658,-0.764,-0.7664,-0.777,-0.7917,-0.8071,-0.8038,-0.8038,-0.7988,-0.818,-0.8381,-0.8472,-0.8625,-0.8777,-0.8875,-0.8885,-0.8885,-0.8885,-0.8885,-0.8885,-0.8885,-0.8885,-0.8885,-0.8885,-0.8885,-0.8885,-0.8885,-0.8885,-0.8885,-0.8885,-0.8885,-0.8885,-0.8885,-0.8885,-0.8885,-0.8885,-0.8885,-0.9103,-0.9434,-0.9706,-1.0036,-1.0366,0.0,0.0,0.0,0.0,0.0,0.0,0.0,0.0,0.0,0.0,0.0,0.0,0.0,0.0,0.0,0.0,0.0,0.0,0.0,0.0,0.0,0.0,0.0,0.0,0.0,0.0,0.0,0.0,0.0,0.0,0.0,-0.0084,-0.0224,-0.0477,-0.0421,-0.0561,-0.0813,-0.0729,-0.0785,-0.0899,0.0,0.0,0.0,0.0,0.0,0.0,0.0,0.0,0.0,0.0,-0.5458,-0.5425,-0.5491,0.0,0.0,0.0,0.0,0.0,-0.5954,-0.5839,-0.5807,-0.5927,-0.6212,-0.6541,-0.6793,0.0,0.0,0.0,0.0,0.0,0.0,-0.7291,-0.7375,-0.7328,-0.7607,-0.7745,-0.7634,-0.7794,-0.7911,-0.7982,-0.7988,-0.7988,-0.7988,-0.8102,-0.8208,-0.8357,-0.8431,-0.8574,-0.8804,-0.8815,-0.8815,-0.8815,-0.8815,-0.8774,-0.8693,-0.8693,-0.8774,-0.8885,-0.8885,-0.8885,-0.8885,-0.8885,-0.8885,-0.8885,-0.8885,-0.8885,-0.8885,-0.8885,-0.8885,-0.8885,-0.8885,-0.8992,-0.9158,-0.9651,-0.9921,-1.0167,0.0,0.0,0.0,0.0,0.0,0.0,0.0,0.0,0.0,0.0,0.0,0.0,0.0,0.0,0.0,0.0,0.0,0.0,0.0,0.0,0.0,0.0,0.0,0.0,0.0,0.0,0.0,0.0,0.0,-0.0028,-0.0056,-0.0224,-0.0449,-0.0701,-0.0561,-0.0673,-0.0898,-0.0785,-0.0817,-0.091,0.0,0.0,0.0,0.0,0.0,0.0,0.0,0.0,0.0,0.0,0.0,0.0,0.0,0.0,0.0,-0.5888,-0.5984,-0.6046,-0.5921,-0.5868,-0.5807,-0.5853,0.0,0.0,0.0,0.0,0.0,0.0,0.0,0.0,0.0,-0.7211,-0.7194,-0.717,-0.7555,-0.7795,-0.7645,-0.7875,-0.7988,-0.7988,-0.7988,-0.7988,-0.7988,-0.7988,-0.8102,-0.831,-0.8323,-0.8384,-0.8645,-0.8659,-0.8659,-0.8659,-0.8659,-0.8601,-0.8482,-0.8482,-0.8601,-0.8832,-0.8832,-0.8832,-0.8832,-0.8832,-0.8832,-0.8832,-0.8832,-0.8832,-0.8832,-0.8832,-0.8832,-0.8832,-0.8832,-0.8832,-0.8941,-0.9428,-0.9727,-0.9987,0.0,0.0,0.0,0.0,0.0,0.0,0.0,0.0,0.0,0.0,0.0,0.0,0.0,0.0,0.0,0.0,0.0,0.0,0.0,0.0,0.0,0.0,0.0,0.0,0.0,0.0,0.0,0.0,0.0,-0.0056,-0.0196,-0.0505,-0.0673,-0.0701,-0.0814,-0.087,-0.0898,-0.0898,-0.0886,-0.0911,-0.0913,0.0,0.0,0.0,0.0,0.0,0.0,0.0,0.0,0.0,0.0,0.0,0.0,0.0,-0.565,-0.5855,-0.5785,-0.5683,-0.5855,-0.5844,-0.5823,-0.5939,-0.6277,0.0,-0.6557,-0.6773,0.0,-0.6778,0.0,0.0,-0.6926,-0.7034,-0.7173,-0.7329,-0.7492,-0.7645,-0.7777,-0.7887,-0.7988,-0.7988,-0.7988,-0.7988,-0.7988,-0.7988,-0.8102,-0.831,-0.8323,-0.8336,-0.8489,-0.8499,-0.8499,-0.8499,-0.8499,-0.8492,-0.8482,-0.8482,-0.8492,-0.8516,-0.8516,-0.8516,-0.8516,-0.8516,-0.8516,-0.8516,-0.8516,-0.8516,-0.8516,-0.8516,-0.8516,-0.8516,-0.8516,-0.8671,-0.893,-0.893,-0.935,-0.9818,0.0,0.0,0.0,0.0,0.0,0.0,0.0,0.0,0.0,0.0,0.0,0.0,0.0,0.0,0.0,0.0,0.0,0.0,0.0,0.0,0.0,0.0,0.0,0.0,0.0,0.0,0.0,0.0,-0.0084,-0.0252,-0.0505,-0.0645,-0.0757,-0.0814,-0.087,-0.0908,-0.0897,-0.0897,-0.0914,-0.0973,-0.0961,-0.1266,0.0,0.0,0.0,0.0,0.0,0.0,0.0,0.0,-0.5395,-0.5395,0.0,-0.5488,-0.5617,-0.5683,-0.565,-0.5638,-0.5809,-0.5472,-0.5095,-0.5229,-0.512,0.0,0.0,-0.5922,-0.5987,-0.6073,-0.6039,-0.6282,-0.7078,-0.7248,-0.7333,-0.7489,-0.7634,-0.775,-0.7804,-0.7894,-0.7988,-0.7988,-0.7988,-0.7988,-0.7988,-0.7988,-0.8015,-0.8123,-0.8126,-0.8191,-0.8343,-0.8402,-0.8402,-0.8402,-0.8402,-0.8303,-0.8208,-0.8208,-0.8208,-0.8208,-0.8394,-0.8482,-0.8482,-0.8482,-0.8482,-0.8482,-0.8482,-0.8482,-0.8482,-0.8482,-0.8482,-0.8482,-0.8482,-0.8584,-0.8689,-0.8846,-0.9098,-0.9377,0.0,0.0,0.0,0.0,0.0,0.0,0.0,0.0,0.0,0.0,0.0,0.0,0.0,0.0,0.0,0.0,0.0,0.0,0.0,0.0,0.0,0.0,0.0,0.0,0.0,-0.0028,-0.0056,-0.0056,-0.0252,-0.0477,-0.0701,-0.0757,-0.0813,-0.0898,-0.0907,-0.0895,-0.0914,-0.0923,-0.1096,-0.1347,-0.1344,-0.1781,0.0,0.0,0.0,0.0,0.0,0.0,0.0,0.0,-0.5395,0.0,0.0,0.0,0.0,0.0,-0.5416,-0.5241,-0.5374,-0.4858,-0.432,-0.446,0.0,0.0,-0.4569,-0.4839,-0.5042,-0.524,-0.5458,-0.5954,-0.7088,-0.7377,-0.7478,-0.7584,-0.7719,-0.7828,-0.7875,-0.7924,-0.7988,-0.7988,-0.7988,-0.7988,-0.7988,-0.7988,-0.7988,-0.7988,-0.7988,-0.8035,-0.8194,-0.8197,-0.8197,-0.8197,-0.8197,-0.8147,-0.7992,-0.7988,-0.7988,-0.7992,-0.8245,-0.8343,-0.8343,-0.8343,-0.8343,-0.8343,-0.8343,-0.8343,-0.8343,-0.8343,-0.8343,-0.8343,-0.8343,-0.8343,-0.8343,-0.8546,-0.8736,-0.8899,0.0,0.0,0.0,0.0,0.0,0.0,0.0,0.0,0.0,0.0,0.0,0.0,0.0,0.0,0.0,0.0,0.0,0.0,0.0,0.0,0.0,0.0,0.0,0.0,0.0,-0.014,-0.0196,-0.0196,-0.0533,-0.0701,-0.0701,-0.0842,-0.0898,-0.0899,-0.09,-0.0914,-0.0916,-0.0976,-0.1443,-0.2089,-0.2121,-0.2549,-0.3215,0.0,0.0,0.0,0.0,0.0,0.0,0.0,-0.5395,-0.5395,0.0,0.0,0.0,-0.555,-0.4981,-0.4362,-0.4564,-0.4095,-0.3616,-0.3744,0.0,0.0,-0.3075,-0.3623,-0.4287,-0.4289,-0.5172,-0.6128,-0.6948,-0.7394,-0.76,-0.7604,-0.7723,-0.7865,-0.7968,-0.7988,-0.7988,-0.7988,-0.7988,-0.7988,-0.7988,-0.7988,-0.7988,-0.7988,-0.7988,-0.7988,-0.7988,-0.7988,-0.7988,-0.7988,-0.7988,-0.7988,-0.7988,-0.7988,-0.7988,-0.7988,-0.7988,-0.7988,-0.7988,-0.7988,-0.7988,-0.7988,-0.7988,-0.7988,-0.7988,-0.7988,-0.7988,-0.7988,-0.7988,-0.7988,-0.7988,-0.7988,-0.8187,-0.8432,0.0,0.0,0.0,0.0,0.0,0.0,0.0,0.0,0.0,0.0,0.0,0.0,0.0,0.0,0.0,0.0,0.0,0.0,0.0,0.0,0.0,0.0,0.0,0.0,0.0,-0.0224,-0.0421,-0.0561,-0.0645,-0.0757,-0.0842,-0.087,-0.0909,-0.0901,-0.0909,-0.0936,-0.1007,-0.1554,-0.1908,-0.2153,-0.268,-0.3326,-0.3984,0.0,0.0,0.0,0.0,0.0,0.0,0.0,0.0,0.0,0.0,0.0,0.0,-0.5458,-0.5332,-0.512,-0.4714,-0.4119,-0.3512,-0.3084,0.0,0.0,0.0,-0.2597,0.0,0.0,-0.5072,-0.6085,-0.7247,-0.7539,-0.7668,-0.7826,-0.7894,-0.7938,-0.7982,-0.7988,-0.7988,-0.7988,-0.7988,-0.7988,-0.7988,-0.7988,-0.7988,-0.7988,-0.7988,-0.7988,-0.7988,-0.7988,-0.7988,-0.7988,-0.7988,-0.7988,-0.7988,-0.7988,-0.7988,-0.7988,-0.7988,-0.7988,-0.7988,-0.7988,-0.7988,-0.7988,-0.7988,-0.7988,-0.7988,-0.7988,-0.7988,-0.7988,-0.7988,-0.7988,-0.7988,-0.7988,-0.8187,-0.8432,0.0,0.0,0.0,0.0,0.0,0.0,0.0,0.0,0.0,0.0,0.0,0.0,0.0,0.0,0.0,0.0,0.0,0.0,0.0,0.0,0.0,0.0,0.0,-0.0056,-0.0168,-0.0393,-0.0617,-0.0785,-0.0785,-0.0814,-0.0898,-0.091,-0.0897,-0.0915,-0.1238,-0.1402,-0.1483,-0.2216,-0.2708,-0.3015,-0.3451,-0.4087,-0.4722,0.0,0.0,0.0,0.0,0.0,0.0,0.0,0.0,0.0,-0.5395,0.0,0.0,-0.506,-0.4826,-0.4531,-0.3885,-0.32,-0.2595,-0.217,-0.1721,-0.1412,-0.1386,0.0,0.0,0.0,-0.4228,-0.5151,-0.6629,-0.7032,-0.7308,-0.7821,-0.7948,-0.7988,-0.7988,-0.7988,-0.7988,-0.7988,-0.7988,-0.7988,-0.7988,-0.7988,-0.7988,-0.7988,-0.7988,-0.7988,-0.7988,-0.7988,-0.7988,-0.7988,-0.7988,-0.7988,-0.7988,-0.7988,-0.7988,-0.7988,-0.7988,-0.7988,-0.7988,-0.7988,-0.7988,-0.7988,-0.7988,-0.7988,-0.7988,-0.7988,-0.7988,-0.7988,-0.7988,-0.7988,-0.7988,-0.7988,-0.8088,-0.8283,0.0,0.0,0.0,0.0,0.0,0.0,0.0,0.0,0.0,0.0,0.0,0.0,0.0,0.0,0.0,0.0,0.0,0.0,0.0,0.0,0.0,0.0,0.0,-0.014,-0.0421,-0.0617,-0.0757,-0.0898,-0.0898,-0.0899,-0.0902,-0.0901,-0.0945,-0.1042,-0.1759,-0.2124,-0.2262,-0.2983,-0.3685,-0.432,-0.4386,-0.4788,-0.5395,-0.5395,0.0,0.0,0.0,0.0,0.0,0.0,0.0,0.0,-0.5395,-0.5402,-0.5272,-0.4608,-0.3956,-0.3298,-0.2591,-0.1915,-0.139,-0.1305,-0.1348,-0.1391,-0.1391,-0.1391,-0.1704,-0.2688,-0.2998,-0.3636,-0.544,-0.6042,-0.6537,-0.7534,-0.7799,-0.7889,-0.7988,-0.7988,-0.7988,-0.7988,-0.7988,-0.7988,-0.7988,-0.7988,-0.7988,-0.7988,-0.7988,-0.7988,-0.7988,-0.7988,-0.7988,-0.7988,-0.7988,-0.7988,-0.7988,-0.7988,-0.7988,-0.7988,-0.7988,-0.7988,-0.7988,-0.7988,-0.7988,-0.7988,-0.7988,-0.7988,-0.7988,-0.7988,-0.7988,-0.7988,-0.7988,-0.7988,-0.7988,-0.7988,-0.7988,-0.8038,0.0,0.0,0.0,0.0,0.0,0.0,0.0,0.0,0.0,0.0,0.0,0.0,0.0,0.0,0.0,0.0,0.0,0.0,0.0,0.0,0.0,0.0,-0.0112,-0.0308,-0.0617,-0.0673,-0.0757,-0.0898,-0.0898,-0.091,-0.0904,-0.0911,-0.124,-0.1836,-0.2018,-0.2411,-0.3023,-0.3742,-0.4154,-0.4353,-0.4924,-0.5259,-0.5395,-0.5395,-0.5395,0.0,0.0,0.0,0.0,0.0,0.0,0.0,-0.5395,-0.5477,-0.5511,-0.5369,-0.4908,-0.4303,-0.3467,-0.2788,0.0,-0.1473,-0.1348,-0.1391,-0.1391,-0.1391,-0.1704,-0.2688,-0.2922,-0.3322,-0.4646,-0.4942,-0.536,-0.6514,-0.6716,-0.7036,-0.7889,-0.7988,-0.7988,-0.7988,-0.7988,-0.7988,-0.7988,-0.7988,-0.7988,-0.7988,-0.7988,-0.7988,-0.7988,-0.7988,-0.7988,-0.7988,-0.7988,-0.7988,-0.7988,-0.7988,-0.7988,-0.7988,-0.7988,-0.7988,-0.7988,-0.7988,-0.7988,-0.7988,-0.7988,-0.7988,-0.7988,-0.7988,-0.7988,-0.7988,-0.7988,-0.7988,-0.7988,-0.7988,-0.7988,-0.8038,0.0,0.0,0.0,0.0,0.0,0.0,0.0,0.0,0.0,0.0,0.0,0.0,0.0,0.0,0.0,0.0,0.0,0.0,0.0,0.0,0.0,-0.0196,-0.0364,-0.0533,-0.0701,-0.0769,-0.0833,-0.089,-0.0934,-0.0941,-0.0914,-0.0942,-0.1347,-0.2128,-0.2483,-0.3043,-0.3785,-0.4522,-0.4824,-0.4858,-0.5322,-0.5458,-0.5395,-0.5455,-0.5458,-0.5395,-0.5395,0.0,0.0,0.0,0.0,0.0,0.0,0.0,-0.5477,-0.4789,-0.4397,-0.3933,-0.276,-0.2212,0.0,-0.1469,0.0,-0.1391,-0.1391,-0.1391,-0.1569,-0.2062,-0.2196,-0.2541,-0.368,-0.3898,-0.4282,-0.5447,-0.6082,-0.6587,-0.7138,-0.769,-0.7988,-0.7988,-0.7988,-0.7988,-0.7988,-0.7988,-0.7988,-0.7988,-0.7988,-0.7988,-0.7988,-0.7988,-0.7988,-0.7988,-0.7988,-0.7988,-0.7988,-0.7988,-0.7988,-0.7988,-0.7988,-0.7988,-0.7988,-0.7988,-0.7988,-0.7988,-0.7988,-0.7988,-0.7988,-0.7988,-0.7988,-0.7988,-0.7988,-0.7988,-0.7988,-0.7988,-0.7988,-0.8041,0.0,0.0,0.0,0.0,0.0,0.0,0.0,0.0,0.0,0.0,0.0,0.0,0.0,0.0,0.0,0.0,0.0,0.0,0.0,0.0,0.0,0.0,-0.0626,-0.0742,-0.0742,-0.085,-0.0921,-0.0921,-0.0982,-0.0984,-0.093,-0.0979,-0.1456,-0.2306,-0.292,-0.3685,-0.4522,-0.5126,-0.5395,-0.5395,-0.5521,-0.5488,-0.5425,-0.5521,-0.5488,-0.5395,-0.5395,-0.5395,-0.5399,-0.5426,0.0,0.0,0.0,0.0,-0.5248,-0.4064,-0.3523,-0.3057,-0.1844,-0.1431,-0.1324,-0.1371,-0.1387,0.0,-0.1391,-0.1391,-0.1391,-0.1391,-0.1391,-0.1678,-0.2633,-0.2846,-0.3174,-0.4329,-0.5418,-0.6184,-0.6387,-0.7338,-0.7988,-0.7988,-0.7988,-0.7988,-0.7988,-0.7988,-0.7988,-0.7988,-0.7988,-0.7988,-0.7988,-0.7988,-0.7988,-0.7988,-0.7988,-0.7988,-0.7988,-0.7988,-0.7988,-0.7988,-0.7988,-0.7988,-0.7988,-0.7988,-0.7988,-0.7988,-0.7988,-0.7988,-0.7988,-0.7988,-0.7988,-0.7988,-0.7988,-0.7988,-0.7988,-0.7988,-0.7988,-0.7988,0.0,0.0,0.0,0.0,0.0,0.0,0.0,0.0,0.0,0.0,0.0,0.0,0.0,0.0,0.0,0.0,0.0,0.0,0.0,0.0,0.0,0.0,-0.0751,-0.0854,-0.0946,-0.098,-0.0982,-0.0982,-0.0981,-0.0994,-0.099,-0.0998,-0.1731,-0.3066,-0.3145,-0.3951,-0.5259,-0.5359,-0.5395,-0.5395,-0.5428,-0.5425,-0.5395,-0.5428,-0.5425,-0.5395,-0.5395,-0.5395,-0.5416,-0.5549,-0.5559,0.0,0.0,0.0,-0.4856,-0.4699,-0.3677,-0.2588,-0.2448,0.0,-0.1386,0.0,-0.1416,-0.1391,0.0,0.0,-0.1391,-0.1391,-0.1391,-0.1446,-0.1665,-0.1696,-0.2063,-0.3231,-0.4329,-0.5327,-0.6284,-0.7338,-0.7988,-0.7988,-0.7988,-0.7988,-0.7988,-0.7988,-0.7988,-0.7988,-0.7988,-0.7988,-0.7988,-0.7988,-0.7988,-0.7988,-0.7988,-0.7988,-0.7988,-0.7988,-0.7988,-0.7988,-0.7988,-0.7988,-0.7988,-0.7988,-0.7988,-0.7988,-0.7988,-0.7988,-0.7988,-0.7988,-0.7988,-0.7988,-0.7988,-0.7988,-0.7988,-0.7988,-0.7988,-0.7988,0.0,0.0,0.0,0.0,0.0,0.0,0.0,0.0,0.0,0.0,0.0,0.0,0.0,0.0,0.0,0.0,0.0,0.0,0.0,0.0,0.0,0.0,-0.0889,-0.0927,-0.0988,-0.1005,-0.1014,-0.1014,-0.1043,-0.1057,0.0,-0.1057,-0.1826,0.0,0.0,0.0,0.0,-0.5395,-0.5395,-0.5395,-0.5491,-0.5223,-0.4831,0.0,0.0,0.0,0.0,0.0,-0.562,-0.5684,-0.5425,-0.5057,-0.5183,0.0,0.0,0.0,-0.3031,-0.2405,-0.1978,-0.1624,-0.137,0.0,-0.1413,-0.1391,-0.1391,-0.1391,-0.1391,-0.1391,-0.1391,-0.1399,-0.1475,-0.1491,-0.1652,-0.2164,-0.3152,-0.419,-0.5262,-0.633,-0.7233,-0.7801,-0.7913,-0.7894,-0.7982,-0.7988,-0.7988,-0.7988,-0.7988,-0.7988,-0.7988,-0.7988,-0.7988,-0.7988,-0.7988,-0.7988,-0.7988,-0.7988,-0.7988,-0.7988,-0.7988,-0.7988,-0.7988,-0.7988,-0.7988,-0.7988,-0.7988,-0.7988,-0.7988,-0.7988,-0.7988,-0.7988,-0.7988,-0.7988,-0.7988,-0.7988,-0.7988,-0.7988,0.0,0.0,0.0,0.0,0.0,0.0,0.0,0.0,0.0,0.0,0.0,0.0,0.0,0.0,0.0,0.0,0.0,0.0,0.0,0.0,0.0,0.0,0.0,-0.1011,-0.1011,-0.1033,-0.1012,-0.1012,0.0,0.0,-0.1109,-0.1109,-0.1846,0.0,-0.3215,-0.3918,0.0,-0.5329,-0.5292,-0.5123,-0.5219,-0.4785,0.0,0.0,0.0,0.0,0.0,-0.515,-0.5156,-0.5189,-0.4801,-0.435,-0.449,-0.396,0.0,0.0,0.0,-0.2065,0.0,0.0,-0.1311,-0.1374,-0.1401,-0.1381,0.0,0.0,-0.1391,-0.1391,-0.1391,-0.1397,-0.1465,-0.1476,-0.1488,-0.151,-0.242,-0.3374,-0.4135,-0.5365,-0.6487,-0.7308,-0.7612,-0.7801,-0.7867,-0.7877,-0.7877,-0.7877,-0.7911,-0.7931,-0.7931,-0.7968,-0.7988,-0.7988,-0.7988,-0.7988,-0.7988,-0.7988,-0.7988,-0.7988,-0.7988,-0.7988,-0.7988,-0.7988,-0.7988,-0.7988,-0.7988,-0.7988,-0.7988,-0.7988,-0.7988,-0.7988,-0.7988,-0.7988,-0.7988,-0.7988,-0.7988,-0.7988,0.0,0.0,0.0,0.0,0.0,0.0,0.0,0.0,0.0,0.0,0.0,0.0,0.0,0.0,-0.0294,-0.0294,0.0,0.0,0.0,0.0,0.0,0.0,0.0,0.0,0.0,-0.1106,-0.1107,0.0,0.0,0.0,-0.1109,-0.1109,-0.1846,-0.3215,-0.3215,-0.3618,-0.4386,0.0,0.0,0.0,0.0,0.0,0.0,0.0,-0.3387,0.0,-0.3418,-0.3415,-0.3465,-0.3589,-0.358,-0.3596,-0.3795,-0.3242,-0.2546,0.0,0.0,0.0,0.0,-0.1303,0.0,-0.1307,-0.1371,-0.1399,0.0,0.0,-0.1391,-0.1391,-0.1391,-0.1391,-0.1393,-0.1461,-0.1481,-0.1483,-0.2398,-0.3137,-0.3185,-0.4935,-0.6217,-0.6272,-0.7083,-0.7614,-0.7621,-0.7624,-0.7624,-0.7624,-0.7746,-0.7824,-0.7824,-0.7911,-0.7988,-0.7988,-0.7988,-0.7988,-0.7988,-0.7988,-0.7988,-0.7988,-0.7988,-0.7988,-0.7988,-0.7988,-0.7988,-0.7988,-0.7988,-0.7988,-0.7988,-0.7988,-0.7988,-0.7988,-0.7988,-0.7988,-0.7988,-0.7988,-0.7988,-0.7988,0.0,0.0,0.0,0.0,0.0,0.0,0.0,0.0,0.0,0.0,0.0,0.0,0.0,-0.0146,-0.0238,-0.0243,-0.0531,0.0,0.0,0.0,0.0,0.0,0.0,0.0,0.0,-0.1109,0.0,0.0,0.0,-0.1109,-0.1109,-0.1109,-0.1612,-0.2514,-0.2982,-0.3885,-0.499,-0.4791,0.0,-0.4264,-0.3819,-0.3199,-0.2622,-0.3201,-0.3161,-0.2878,-0.3438,-0.3618,-0.3625,-0.3657,-0.3324,-0.2868,-0.293,-0.2392,-0.1727,-0.1727,0.0,0.0,0.0,0.0,0.0,-0.1301,-0.1369,-0.1398,-0.1383,-0.1391,-0.1391,-0.1391,-0.1391,-0.1391,-0.1391,-0.1399,-0.1452,-0.1452,-0.1779,-0.2243,-0.2884,-0.3614,-0.4545,-0.5852,-0.6282,-0.6783,-0.7543,-0.76,-0.76,-0.76,-0.7648,-0.7675,-0.7675,-0.7729,-0.7756,-0.7756,-0.7756,-0.7801,-0.7892,-0.7941,-0.7988,-0.7988,-0.7988,-0.7988,-0.7988,-0.7988,-0.7988,-0.7988,-0.7988,-0.7988,-0.7988,-0.7988,-0.7988,-0.7988,-0.7988,-0.7988,-0.7988,-0.7988,-0.7988,-0.7988,0.0,0.0,0.0,0.0,0.0,0.0,0.0,0.0,0.0,0.0,0.0,0.0,0.0,0.0,-0.0369,-0.0476,-0.068,-0.0825,-0.0908,-0.1043,0.0,0.0,0.0,0.0,0.0,0.0,0.0,0.0,0.0,0.0,0.0,-0.1109,-0.1578,-0.248,-0.2714,-0.3516,0.0,-0.4397,-0.4017,-0.3563,-0.3104,-0.2506,-0.1937,-0.2531,-0.2488,-0.2189,-0.2752,-0.2972,-0.2967,-0.2943,-0.2586,-0.208,-0.208,-0.1727,-0.1296,0.0,0.0,0.0,-0.1296,0.0,0.0,0.0,-0.1312,-0.1384,-0.1413,-0.1383,-0.1391,-0.1391,-0.1391,-0.1391,-0.1391,-0.1391,-0.1391,-0.1391,-0.1391,-0.1614,-0.2286,-0.2688,-0.3374,-0.4734,-0.5468,-0.6139,-0.6879,-0.726,-0.7444,-0.7444,-0.7495,-0.7522,-0.7522,-0.757,-0.76,-0.76,-0.76,-0.7645,-0.774,-0.7841,-0.7867,-0.7914,-0.7914,-0.7941,-0.7988,-0.7988,-0.7988,-0.7988,-0.7988,-0.7988,-0.7988,-0.7988,-0.7988,-0.7988,-0.7988,-0.7988,-0.7988,-0.7988,-0.7988,-0.7988,0.0,0.0,0.0,0.0,0.0,0.0,0.0,0.0,0.0,0.0,0.0,0.0,0.0,0.0,0.0,-0.1039,-0.0909,-0.0876,-0.1076,-0.1109,0.0,0.0,0.0,0.0,0.0,0.0,0.0,0.0,0.0,0.0,0.0,0.0,-0.1846,-0.3182,-0.2417,-0.2517,-0.3259,-0.3934,-0.3459,-0.2213,-0.2165,-0.1788,-0.1213,-0.1275,-0.1298,-0.1302,-0.1293,-0.1304,-0.1299,-0.1308,-0.1298,-0.1298,-0.1297,0.0,0.0,0.0,0.0,0.0,0.0,0.0,0.0,-0.1295,-0.1284,-0.1312,-0.1383,-0.1412,-0.1389,-0.139,-0.1391,-0.1391,-0.1391,-0.1391,-0.1391,-0.1391,-0.1391,-0.1391,-0.1391,-0.224,-0.2867,-0.2911,-0.4516,-0.563,-0.5675,-0.6517,-0.7051,-0.7051,-0.7282,-0.7409,-0.7409,-0.7506,-0.7587,-0.7587,-0.759,-0.7594,-0.7594,-0.7597,-0.7668,-0.7804,-0.7804,-0.7885,-0.7982,-0.7982,-0.7985,-0.7988,-0.7988,-0.7988,-0.7988,-0.7988,-0.7988,-0.7988,-0.7988,-0.7988,-0.7988,-0.7988,-0.7988,-0.7988,0.0,0.0,0.0,0.0,0.0,0.0,0.0,0.0,0.0,0.0,0.0,0.0,0.0,0.0,-0.0535,-0.064,-0.0741,-0.0809,-0.0876,-0.1009,-0.1109,-0.1109,-0.1109,0.0,0.0,0.0,0.0,0.0,0.0,0.0,0.0,0.0,0.0,0.0,-0.2466,-0.259,-0.3247,-0.2926,-0.2573,-0.2225,-0.1752,-0.1424,-0.1277,-0.13,-0.1309,-0.1294,-0.1283,-0.1294,-0.1289,-0.13,-0.129,-0.1286,-0.1304,0.0,0.0,0.0,0.0,0.0,-0.1296,0.0,0.0,0.0,0.0,0.0,-0.1378,-0.1397,-0.1409,-0.1386,-0.1391,-0.1391,-0.1391,-0.1391,-0.1391,-0.1391,-0.1391,-0.1391,-0.1391,-0.1659,-0.2106,-0.2823,-0.3358,-0.3937,-0.4601,-0.5539,-0.6074,0.0,-0.6777,-0.7204,-0.7204,-0.72,-0.7223,-0.7223,-0.7377,-0.7434,-0.7434,-0.7543,-0.7617,-0.7658,-0.7658,-0.7733,-0.7875,-0.7875,-0.7884,-0.7988,-0.7988,-0.7988,-0.7988,-0.7988,-0.7988,-0.7988,-0.7988,-0.7988,-0.7988,-0.7988,-0.7988,-0.7988,0.0,0.0,0.0,0.0,0.0,0.0,0.0,0.0,0.0,0.0,0.0,0.0,0.0,0.0,-0.0573,-0.074,-0.0775,-0.0843,-0.0909,-0.1043,-0.1109,-0.1109,-0.1109,-0.1109,0.0,0.0,0.0,0.0,0.0,0.0,0.0,0.0,0.0,0.0,0.0,0.0,0.0,-0.2494,-0.2368,-0.2422,-0.201,-0.1882,-0.1866,-0.1473,-0.1305,-0.1282,-0.13,-0.1298,-0.1283,-0.1294,-0.1284,-0.1281,-0.1303,-0.1296,0.0,0.0,0.0,0.0,0.0,0.0,0.0,-0.1319,0.0,0.0,-0.1361,-0.1382,-0.1399,-0.1384,-0.1391,-0.1391,-0.1391,-0.1391,-0.1391,-0.1391,-0.1391,-0.1391,-0.1391,-0.1391,-0.1614,-0.2196,-0.2644,-0.3135,-0.3667,-0.4559,-0.5272,-0.5675,-0.6207,-0.6697,-0.7095,-0.7095,-0.7095,-0.7095,-0.7227,-0.7275,-0.7275,-0.7363,-0.7441,-0.7506,-0.7413,-0.749,-0.7723,-0.7624,-0.7704,-0.7894,-0.7894,-0.7931,-0.7988,-0.7988,-0.7988,-0.7988,-0.7988,-0.7988,-0.7988,-0.7988,-0.7988,-0.7988,0.0,0.0,0.0,0.0,0.0,0.0,0.0,0.0,0.0,0.0,0.0,0.0,0.0,0.0,0.0,0.0,-0.0945,-0.0912,-0.1076,-0.1113,0.0,0.0,-0.1109,-0.1109,0.0,0.0,0.0,0.0,0.0,0.0,0.0,0.0,0.0,0.0,0.0,0.0,0.0,-0.2426,-0.2579,-0.2676,-0.2612,-0.2624,-0.2549,-0.1715,-0.1367,-0.1302,-0.1305,-0.1289,-0.1303,-0.1312,-0.1299,-0.1296,-0.1296,-0.1296,-0.1296,0.0,-0.1296,0.0,0.0,0.0,0.0,0.0,-0.1317,0.0,-0.1294,-0.1363,-0.1388,-0.1375,-0.1381,-0.1382,-0.1385,-0.1385,-0.1387,-0.139,-0.1391,-0.1391,-0.1391,-0.1391,-0.1391,-0.1391,-0.2196,-0.2732,-0.2732,-0.3578,-0.4514,-0.5319,-0.5497,-0.5897,-0.6738,-0.6782,-0.6782,-0.6782,-0.6782,-0.6782,-0.6782,-0.6782,-0.6895,-0.7161,-0.68,-0.6922,-0.748,-0.7189,-0.7266,-0.7739,-0.7804,-0.7889,-0.7965,-0.7982,-0.7988,-0.7988,-0.7988,-0.7988,-0.7988,-0.7988,-0.7988,-0.7988,0.0,0.0,0.0,0.0,0.0,0.0,0.0,0.0,0.0,0.0,0.0,0.0,0.0,0.0,0.0,0.0,-0.1064,-0.1068,-0.1111,-0.1099,-0.1101,-0.1111,-0.1109,-0.1109,-0.1109,0.0,0.0,0.0,0.0,0.0,0.0,0.0,0.0,0.0,0.0,0.0,0.0,-0.2433,-0.2565,-0.2698,-0.263,-0.2213,-0.156,-0.1377,-0.1296,-0.1315,-0.1298,-0.1302,-0.1292,-0.1304,-0.1317,-0.1296,-0.1296,-0.1296,-0.1296,-0.1296,-0.1296,0.0,0.0,0.0,0.0,-0.1296,-0.1301,0.0,-0.1304,-0.1316,-0.1328,-0.1316,-0.1323,-0.1329,-0.1395,-0.1399,-0.1407,-0.1387,-0.1391,-0.1391,-0.1391,-0.1391,-0.1391,-0.1391,-0.1569,-0.1704,-0.1704,-0.2598,-0.3269,-0.3446,-0.4158,-0.4645,-0.4823,-0.4868,-0.4868,-0.4868,-0.4868,-0.4868,-0.4868,-0.4641,-0.4964,-0.5796,-0.4759,-0.5177,-0.6863,-0.621,-0.6418,-0.7354,-0.7664,-0.7828,-0.7865,-0.7938,-0.7988,-0.7988,-0.7988,-0.7988,-0.7988,-0.7988,-0.7988,-0.7988,0.0,0.0,0.0,0.0,0.0,0.0,0.0,0.0,0.0,0.0,0.0,0.0,0.0,0.0,0.0,0.0,0.0,0.0,0.0,0.0,-0.1137,-0.1157,-0.1156,-0.1156,-0.1156,-0.1156,0.0,0.0,0.0,0.0,0.0,0.0,0.0,0.0,0.0,0.0,0.0,-0.2303,-0.2291,-0.2037,-0.2422,-0.2393,-0.1995,-0.1502,-0.1288,-0.1307,-0.1296,-0.1305,-0.1304,-0.1289,-0.1315,-0.13,-0.1285,-0.132,-0.1317,-0.1301,-0.1296,-0.1296,-0.1296,-0.1296,-0.1296,-0.1296,-0.1296,0.0,0.0,-0.1303,-0.1311,-0.13,-0.1305,-0.131,-0.1324,-0.1369,-0.1331,-0.1346,-0.136,-0.1408,-0.135,-0.1372,-0.1391,-0.1391,-0.1391,-0.1391,-0.1391,-0.1838,-0.2376,-0.2867,-0.3757,-0.4289,-0.4289,-0.4289,-0.4289,-0.4289,-0.4154,-0.4107,-0.4107,-0.3883,-0.4016,-0.4508,-0.3751,-0.4086,-0.5305,-0.5305,-0.5778,-0.6592,-0.7276,-0.7634,-0.7719,-0.7865,-0.7877,-0.7884,-0.7961,-0.7988,-0.7988,-0.7988,-0.7988,-0.7988,0.0,0.0,0.0,0.0,0.0,0.0,0.0,0.0,0.0,0.0,0.0,0.0,0.0,0.0,0.0,0.0,0.0,0.0,0.0,-0.1208,-0.1209,-0.1203,0.0,-0.1203,-0.1203,-0.1203,0.0,0.0,0.0,0.0,0.0,0.0,0.0,0.0,0.0,0.0,0.0,0.0,-0.1884,-0.1377,-0.2081,-0.2411,-0.242,-0.1589,-0.1286,-0.1314,-0.1298,-0.1305,-0.1305,-0.1305,-0.1305,-0.1302,-0.1319,-0.1311,-0.1305,-0.1314,-0.1305,-0.1304,-0.1298,-0.1296,-0.1296,-0.1296,-0.1296,-0.1303,0.0,0.0,0.0,-0.1284,-0.1289,-0.129,-0.1296,-0.1298,-0.1298,-0.1298,-0.1363,-0.1371,0.0,-0.1342,0.0,-0.1374,-0.1383,-0.1388,-0.1383,-0.1387,-0.1749,-0.2553,-0.331,-0.3755,-0.3755,-0.3755,-0.3755,-0.3755,-0.3486,-0.335,-0.335,-0.3126,-0.308,-0.326,-0.2816,-0.2996,-0.3708,-0.4196,-0.4775,-0.5537,-0.6575,-0.7115,-0.7282,-0.7614,-0.7787,-0.7828,-0.7931,-0.7988,-0.7988,-0.7988,-0.7988,-0.7988,0.0,0.0,0.0,0.0,0.0,0.0,0.0,0.0,0.0,0.0,0.0,0.0,-0.1197,-0.1201,-0.1203,-0.1203,-0.1191,-0.1195,-0.1205,-0.1191,0.0,0.0,-0.1203,-0.1203,-0.1203,-0.1203,0.0,0.0,0.0,0.0,0.0,0.0,0.0,0.0,-0.1279,0.0,0.0,-0.1414,-0.1375,-0.1297,-0.1418,-0.144,-0.1471,-0.1348,-0.1281,-0.1302,-0.1304,-0.1305,-0.1305,-0.1305,-0.1305,-0.1305,-0.1302,-0.1301,-0.1295,-0.1307,-0.1297,-0.1292,-0.1304,-0.1296,-0.1296,-0.1296,-0.1296,-0.1298,-0.1301,0.0,-0.1303,-0.1306,0.0,-0.1316,-0.1303,0.0,0.0,-0.1308,-0.1291,-0.13,-0.1312,-0.1295,-0.1315,-0.1315,-0.136,-0.138,-0.1397,-0.142,-0.1436,-0.1569,-0.1659,-0.1749,-0.1749,-0.1749,-0.1749,-0.1749,-0.1524,-0.1434,-0.1434,-0.0986,-0.1164,-0.2013,-0.0897,-0.13,-0.3001,-0.2416,-0.2776,-0.3952,-0.5259,-0.5904,-0.6153,-0.7179,-0.7699,-0.7828,-0.7931,-0.7988,-0.7988,-0.7988,-0.7988,-0.7988,-0.0186,-0.0094,0.0,0.0,0.0,0.0,0.0,0.0,0.0,0.0,0.0,0.0,-0.1193,-0.1246,-0.1258,-0.1258,-0.1269,-0.1272,-0.1258,-0.1269,0.0,0.0,-0.1258,-0.1258,-0.1258,-0.1258,0.0,0.0,-0.1258,0.0,0.0,0.0,0.0,0.0,-0.1291,-0.1296,-0.1296,-0.1296,-0.1307,-0.1284,-0.1284,-0.1311,-0.135,-0.1316,-0.1331,-0.1372,-0.1372,-0.134,-0.1355,-0.1355,-0.1355,-0.1352,-0.1378,-0.1372,-0.1367,-0.1296,-0.1287,-0.1281,-0.1292,-0.1284,-0.1319,-0.1301,-0.1296,-0.1296,-0.1296,-0.1296,-0.1296,-0.1296,0.0,0.0,0.0,0.0,0.0,0.0,-0.1302,-0.1311,-0.1281,-0.1318,-0.1305,-0.1305,-0.1327,-0.1342,-0.139,-0.1343,-0.1355,-0.1388,-0.1418,-0.1416,-0.1389,-0.13,-0.1211,-0.1211,-0.0897,-0.0673,-0.0673,-0.0359,-0.0359,-0.0763,-0.0225,-0.0494,-0.1479,-0.1701,-0.2148,-0.282,-0.4059,-0.4658,-0.48,-0.5504,-0.6139,-0.6714,-0.69,-0.7394,-0.7988,-0.7988,-0.7988,-0.7988,-0.0481,0.0,0.0,0.0,0.0,0.0,0.0,0.0,-0.1031,-0.1179,-0.1206,-0.1228,-0.1236,-0.1288,-0.13,-0.1309,-0.1302,-0.1296,-0.1296,-0.1296,-0.1296,-0.1296,-0.1296,-0.1296,-0.1296,-0.1296,0.0,0.0,0.0,0.0,0.0,0.0,0.0,0.0,0.0,-0.1296,-0.1296,-0.1296,-0.1314,-0.1303,-0.1303,-0.1337,-0.1386,-0.1352,-0.1365,-0.1402,-0.1402,-0.1416,-0.1391,-0.1391,-0.1391,-0.1387,-0.141,-0.1402,-0.1397,-0.1325,-0.1317,-0.1311,-0.1323,-0.1315,-0.1308,-0.1317,-0.131,-0.1307,-0.1298,-0.1296,-0.1296,-0.1296,-0.1296,0.0,0.0,0.0,0.0,0.0,0.0,-0.1279,-0.1288,-0.129,-0.1282,-0.1282,-0.1289,-0.1305,0.0,-0.1317,-0.1326,-0.1375,-0.1402,-0.1359,-0.1299,-0.1166,-0.1076,-0.0987,-0.0628,-0.0403,-0.0403,-0.0135,0.0,0.0,0.0,-0.009,-0.0314,-0.0986,-0.1433,-0.1701,-0.2816,-0.3395,-0.3578,-0.4087,-0.4813,-0.5532,-0.5663,-0.6441,-0.7527,-0.7812,-0.7955,-0.7988,-0.0833,-0.065,0.0,0.0,-0.0769,-0.0953,-0.116,-0.1191,-0.1211,-0.1211,-0.1276,-0.1307,-0.1296,-0.1314,-0.1309,-0.1299,-0.1314,-0.1296,-0.1296,-0.1296,-0.1296,-0.1296,-0.1296,-0.1296,-0.1296,-0.1296,-0.1296,0.0,0.0,0.0,0.0,0.0,0.0,0.0,-0.1296,-0.1296,-0.1296,-0.1296,-0.1314,-0.1303,-0.1303,-0.1337,-0.1393,-0.1376,-0.1387,-0.1389,-0.1389,-0.139,-0.1391,-0.1391,-0.1391,-0.1391,-0.1389,-0.1389,-0.1383,-0.1397,-0.1388,-0.1382,-0.1312,-0.1304,-0.1298,-0.1309,-0.1301,-0.1294,-0.1303,-0.1296,-0.1296,-0.1296,-0.1296,-0.1296,-0.1296,0.0,0.0,0.0,0.0,0.0,0.0,-0.1241,-0.1299,-0.1299,-0.1286,-0.1316,-0.1304,-0.1306,-0.1317,-0.1389,-0.1391,-0.1315,-0.112,-0.1121,-0.0987,-0.0718,-0.0493,-0.0403,-0.0403,-0.0135,0.0,0.0,0.0,0.0,0.0,-0.0045,-0.0224,-0.0493,-0.1478,-0.2104,-0.2597,-0.3532,-0.4162,-0.4564,-0.4566,-0.5232,-0.6384,-0.7427,-0.7913,-0.7988,0.0,0.0,0.0,-0.1006,-0.0935,-0.0979,-0.1154,-0.1222,-0.1249,-0.1269,-0.1281,-0.1299,-0.1288,-0.1282,-0.128,-0.129,-0.1282,-0.1317,-0.1317,-0.1317,-0.1308,-0.1288,-0.1287,-0.1318,-0.1297,-0.1296,-0.1296,-0.1296,0.0,0.0,0.0,0.0,0.0,0.0,0.0,-0.1296,-0.1298,-0.1319,-0.1305,-0.1294,-0.1332,-0.1358,-0.1421,-0.1387,-0.1391,-0.1391,-0.1391,-0.1391,-0.1391,-0.1391,-0.1391,-0.1391,-0.1391,-0.1391,-0.1388,-0.1379,-0.142,-0.1414,-0.1384,-0.1376,-0.1369,-0.1298,-0.1291,-0.1283,-0.1294,-0.1287,-0.1281,-0.1301,-0.1296,-0.1296,-0.1296,0.0,0.0,0.0,0.0,0.0,0.0,-0.129,-0.1296,-0.1296,-0.1306,-0.1284,-0.1315,-0.13,-0.1309,-0.1316,-0.1343,-0.1227,-0.1053,-0.0923,-0.0752,-0.0493,-0.0269,-0.0135,-0.0135,-0.0045,0.0,0.0,0.0,0.0,0.0,0.0,-0.0045,-0.018,-0.0673,-0.103,-0.1344,-0.1836,-0.2607,-0.3437,-0.3437,-0.412,-0.5225,-0.6328,-0.7171,-0.776,-0.1217,-0.1183,-0.1183,-0.1183,-0.1117,-0.1095,-0.12,-0.126,-0.1284,-0.1315,-0.1318,-0.1288,-0.1317,-0.1311,-0.131,-0.1319,-0.1311,-0.1305,-0.1305,-0.1305,-0.1298,-0.132,-0.1318,-0.1304,-0.1314,-0.1313,-0.1307,-0.1296,-0.1296,-0.1296,0.0,0.0,0.0,0.0,0.0,-0.1303,-0.1314,-0.1294,-0.1326,-0.1325,-0.1372,-0.1391,-0.1391,-0.1391,-0.1391,-0.1391,-0.1391,-0.1391,-0.1391,-0.1391,-0.1391,-0.1391,-0.1391,-0.1391,-0.1391,-0.1391,-0.1391,-0.1386,-0.1323,-0.1274,-0.1268,-0.1114,-0.1108,-0.1102,-0.116,-0.1195,-0.1187,-0.1199,-0.1234,-0.123,-0.1062,0.0,0.0,0.0,0.0,0.0,0.0,-0.1296,-0.1296,-0.1296,-0.1296,-0.1305,-0.1284,-0.1308,-0.1318,-0.1286,-0.1313,-0.1163,-0.0912,-0.0783,-0.0571,-0.0269,-0.009,0.0,0.0,0.0,0.0,0.0,0.0,0.0,0.0,0.0,0.0,0.0,-0.018,-0.0404,-0.0628,-0.0852,-0.1479,-0.2285,-0.2331,-0.3025,-0.4116,-0.5547,-0.6745,-0.7611,-0.1209,-0.1215,-0.1217,-0.1218,-0.1241,-0.131,-0.13,-0.1305,-0.1316,-0.1304,-0.1308,-0.1318,-0.1389,-0.1325,-0.132,-0.139,-0.1325,-0.131,-0.131,-0.131,-0.1309,-0.1308,-0.1308,-0.1294,-0.1305,-0.1305,-0.129,-0.1298,-0.1298,0.0,0.0,0.0,0.0,0.0,-0.1298,0.0,-0.1303,-0.1306,-0.134,-0.1395,-0.1379,-0.1391,-0.1391,-0.1391,-0.1391,-0.1391,-0.1391,-0.1391,-0.1391,-0.1391,-0.1391,-0.1391,-0.1391,-0.1391,-0.1391,-0.139,-0.139,-0.1345,-0.1121,-0.1076,-0.1027,-0.0788,-0.0697,-0.0737,-0.0933,-0.097,-0.0964,-0.0983,-0.114,-0.1132,-0.0711,0.0,0.0,0.0,0.0,0.0,0.0,0.0,-0.1296,-0.1296,-0.1296,-0.1296,-0.1296,-0.1296,-0.1309,-0.1298,-0.1301,-0.1119,-0.0736,-0.0695,-0.0483,0.0,0.0,0.0,0.0,0.0,0.0,0.0,0.0,0.0,0.0,0.0,0.0,0.0,0.0,-0.0135,-0.0403,-0.0628,-0.0852,-0.1121,-0.13,-0.2017,-0.3142,-0.5113,-0.6519,-0.7446,-0.1283,-0.1264,-0.1286,-0.1269,-0.1301,-0.1301,-0.129,-0.1295,-0.1304,-0.1375,-0.1379,-0.1391,-0.1376,-0.1373,-0.1372,-0.1379,-0.1373,-0.1369,-0.1369,-0.1369,-0.1359,-0.138,-0.1379,-0.1366,-0.1295,-0.1295,-0.128,-0.1291,-0.1291,0.0,-0.1296,0.0,0.0,0.0,0.0,-0.1295,-0.1305,-0.1349,-0.1389,-0.138,-0.1387,-0.1391,-0.1391,-0.1391,-0.13,-0.1211,-0.1345,-0.13,-0.1211,-0.1345,-0.13,-0.1166,-0.1166,-0.1166,-0.1121,-0.0942,-0.1031,-0.1121,-0.0852,-0.0942,-0.103,-0.0757,-0.0712,-0.0708,-0.0781,-0.0777,-0.0772,-0.0713,-0.0741,-0.0772,-0.0807,0.0,0.0,0.0,0.0,0.0,0.0,0.0,-0.1296,-0.1296,-0.1296,-0.1296,-0.1296,-0.1296,-0.13,-0.1308,-0.1308,-0.1085,-0.0662,-0.0631,-0.0429,0.0,0.0,0.0,0.0,0.0,0.0,0.0,0.0,0.0,0.0,0.0,0.0,0.0,0.0,-0.0135,-0.0403,-0.0448,-0.0718,-0.1121,-0.1166,-0.1882,-0.3047,-0.4271,-0.4972,-0.5296,-0.1297,-0.1311,-0.129,-0.1319,-0.1352,-0.1346,-0.1364,-0.1323,-0.1376,-0.1406,-0.141,-0.1416,-0.1389,-0.1391,-0.1391,-0.1391,-0.1391,-0.1391,-0.1391,-0.1391,-0.1383,-0.141,-0.141,-0.1396,-0.1324,-0.1323,-0.1309,-0.1281,-0.1281,0.0,-0.1297,0.0,0.0,0.0,0.0,-0.1329,-0.1343,-0.1391,-0.142,-0.1391,-0.13,-0.1256,0.0,-0.1121,-0.1031,-0.0942,-0.1031,-0.1031,-0.0942,-0.1076,-0.1031,-0.0942,-0.0942,-0.0942,-0.0897,-0.0762,-0.0807,-0.0852,-0.0628,-0.0673,-0.0718,-0.0449,-0.0404,-0.0403,-0.053,-0.0573,-0.057,-0.0515,-0.0592,-0.0625,-0.0531,-0.0725,0.0,0.0,0.0,0.0,0.0,-0.1296,-0.1296,-0.1296,-0.1296,-0.1296,-0.1296,-0.1296,-0.1296,-0.1296,-0.1296,-0.1111,-0.0609,-0.0618,-0.0421,0.0,0.0,0.0,0.0,0.0,0.0,0.0,0.0,0.0,0.0,0.0,0.0,0.0,0.0,-0.009,-0.0224,-0.0359,-0.0538,-0.0807,-0.1031,-0.1569,-0.233,-0.2819,-0.3604,-0.441,-0.1311,-0.1311,-0.1319,-0.1391,-0.1396,-0.1396,-0.1396,-0.1396,-0.1406,-0.1387,-0.1391,-0.1391,-0.1391,-0.1391,-0.1391,-0.1391,-0.1391,-0.1391,-0.1391,-0.1391,-0.1391,-0.1391,-0.1391,-0.1379,-0.1397,-0.1396,-0.1382,-0.1311,-0.1311,0.0,0.0,0.0,0.0,0.0,0.0,0.0,0.0,-0.1379,-0.1391,-0.1391,-0.1166,-0.1121,-0.1076,-0.0807,-0.0673,-0.0673,-0.0673,-0.0673,-0.0673,-0.0673,-0.0673,-0.0673,-0.0673,-0.0673,-0.0673,-0.0628,-0.0628,-0.0628,-0.0404,-0.0359,-0.0314,-0.0045,0.0,-0.0045,-0.0314,-0.0359,-0.0357,-0.0351,-0.048,-0.0473,-0.0124,-0.049,0.0,0.0,0.0,0.0,-0.1218,-0.1218,-0.1257,-0.1257,-0.1257,0.0,-0.1296,-0.1296,-0.1296,-0.1296,-0.1296,-0.111,-0.0607,0.0,-0.0415,0.0,0.0,0.0,0.0,0.0,0.0,0.0,0.0,0.0,0.0,0.0,0.0,0.0,0.0,0.0,0.0,-0.0269,-0.0359,-0.0448,-0.0897,-0.1211,-0.1345,-0.1391,-0.2462,-0.3933,-0.1378,-0.1382,-0.1392,-0.1377,-0.1383,-0.1383,-0.1383,-0.1383,-0.1385,-0.139,-0.1391,-0.1391,-0.1391,-0.1391,-0.1391,-0.1391,-0.1391,-0.1391,-0.1391,-0.1391,-0.1391,-0.1391,-0.1391,-0.1388,-0.1383,-0.1383,-0.1412,-0.1382,-0.1382,0.0,0.0,0.0,0.0,0.0,0.0,0.0,-0.1383,-0.1388,0.0,-0.1391,-0.1166,-0.1121,-0.1076,-0.0807,-0.0583,-0.0448,-0.0448,-0.0448,-0.0493,-0.0628,-0.0583,-0.0448,-0.0448,-0.0448,-0.0404,-0.018,-0.0269,-0.0404,-0.0135,-0.0224,-0.0314,-0.0045,0.0,0.0,-0.0045,-0.009,-0.009,-0.0089,-0.0088,-0.013,-0.0215,-0.0459,0.0,0.0,0.0,-0.0904,-0.0746,-0.0864,-0.0982,-0.0982,-0.0982,-0.1061,-0.1296,-0.1296,-0.1296,-0.1296,-0.1296,-0.1102,-0.0632,0.0,-0.0412,0.0,0.0,0.0,0.0,0.0,0.0,0.0,0.0,0.0,0.0,0.0,0.0,0.0,0.0,0.0,0.0,-0.0045,-0.018,-0.0448,-0.0897,-0.1121,-0.1166,-0.1345,-0.1614,-0.1927,-0.1411,-0.1413,-0.1418,-0.1388,-0.1391,-0.1391,-0.1391,-0.1391,-0.1391,-0.1391,-0.1391,-0.1391,-0.1391,-0.1391,-0.1391,-0.1391,-0.1391,-0.1391,-0.1391,-0.1391,-0.1391,-0.1391,-0.1391,-0.1391,-0.1391,-0.1391,-0.1383,-0.1413,-0.1413,-0.1363,0.0,0.0,0.0,0.0,0.0,-0.1422,0.0,0.0,-0.1256,-0.1211,-0.0852,-0.0718,-0.0718,-0.0449,-0.0269,-0.018,-0.018,-0.018,-0.0224,-0.0314,-0.0269,-0.018,-0.018,-0.018,-0.018,-0.0045,-0.009,-0.018,-0.0045,-0.009,-0.018,-0.0045,0.0,0.0,0.0,0.0,0.0,0.0,0.0,-0.0044,-0.0262,-0.0378,-0.0487,-0.0601,-0.0673,-0.0707,-0.0628,-0.0668,-0.0746,-0.0746,-0.0746,-0.0825,-0.1061,-0.11,-0.11,-0.11,-0.1218,-0.1061,-0.0471,0.0,-0.0406,0.0,0.0,0.0,0.0,0.0,0.0,0.0,0.0,0.0,0.0,0.0,0.0,0.0,0.0,0.0,0.0,0.0,-0.018,-0.0403,-0.0628,-0.0897,-0.1121,-0.1211,-0.13,-0.1391,-0.1391,-0.1391,-0.1391,-0.1391,-0.1391,-0.1391,-0.1391,-0.1391,-0.1391,-0.1391,-0.1391,-0.1391,-0.1391,-0.1391,-0.1391,-0.1391,-0.1391,-0.1391,-0.1391,-0.1391,-0.1391,-0.1391,-0.1391,-0.1391,-0.1391,-0.1391,-0.1391,-0.1391,-0.1391,-0.1387,0.0,0.0,0.0,0.0,0.0,0.0,0.0,-0.1121,-0.1031,-0.0987,-0.0583,-0.0403,-0.0359,-0.009,0.0,0.0,0.0,0.0,0.0,0.0,0.0,0.0,0.0,0.0,0.0,0.0,0.0,0.0,0.0,0.0,0.0,0.0,0.0,0.0,0.0,0.0,0.0,0.0,0.0,-0.0045,-0.0218,-0.0254,-0.0288,-0.0448,-0.0521,-0.0513,-0.0472,-0.051,-0.055,-0.055,-0.055,-0.0628,-0.0825,-0.0864,-0.0864,-0.0825,-0.1061,-0.0982,-0.0393,0.0,0.0,0.0,-0.0042,0.0,-0.0045,0.0,0.0,0.0,0.0,0.0,0.0,0.0,0.0,0.0,0.0,0.0,0.0,0.0,-0.0135,-0.0314,-0.0359,-0.0628,-0.0942,-0.0987,-0.1166,-0.1345,-0.1391,-0.1391,-0.1391,-0.1391,-0.1391,-0.1391,-0.1391,-0.1391,-0.1391,-0.1391,-0.1391,-0.1391,-0.1391,-0.1391,-0.1391,-0.1391,-0.1391,-0.1391,-0.1391,-0.1391,-0.1391,-0.1391,-0.1391,-0.1391,-0.1391,-0.1391,-0.1391,-0.1391,-0.1391,-0.1421,-0.1395,0.0,0.0,0.0,0.0,-0.1121,-0.1121,-0.0852,-0.0718,-0.0718,-0.0493,-0.0403,-0.0359,-0.009,0.0,0.0,0.0,0.0,0.0,0.0,0.0,0.0,0.0,0.0,0.0,0.0,0.0,0.0,0.0,0.0,0.0,0.0,0.0,0.0,0.0,0.0,0.0,0.0,0.0,0.0,-0.0044,-0.0043,-0.0043,-0.0041,-0.0203,-0.0282,-0.0079,-0.0196,-0.0314,-0.0314,-0.0314,-0.0393,-0.0589,-0.0786,-0.0825,-0.0628,-0.0825,-0.0825,-0.0589,0.0,0.0,-0.0285,-0.0083,-0.0085,-0.0262,-0.0089,0.0,0.0,0.0,0.0,0.0,0.0,0.0,0.0,0.0,0.0,0.0,0.0,0.0,-0.0045,-0.0314,-0.0448,-0.0493,-0.0673,-0.0897,-0.1121,-0.1391,-0.1391,-0.1391,-0.1391,-0.1451,-0.1463,-0.1463,-0.1478,-0.1443,-0.1443,-0.1474,-0.147,-0.1441,-0.1443,-0.1443,-0.1443,-0.1473,-0.1463,-0.1463,-0.14,-0.1391,-0.1391,-0.1391,-0.1391,-0.1391,-0.1391,-0.1391,-0.1391,-0.1391,-0.1384,-0.1417,0.0,0.0,0.0,-0.1121,-0.1031,-0.0852,-0.0628,-0.0538,-0.0493,-0.0269,-0.018,-0.0135,-0.0045,0.0,0.0,0.0,0.0,0.0,0.0,0.0,0.0,0.0,0.0,0.0,0.0,0.0,0.0,0.0,0.0,0.0,0.0,0.0,0.0,0.0,0.0,0.0,0.0,0.0,0.0,0.0,0.0,0.0,0.0,-0.0083,-0.0081,0.0,-0.0079,-0.0118,-0.0118,-0.0118,-0.0196,-0.0393,-0.0589,-0.0746,-0.0786,-0.1021,-0.0943,-0.0432,0.0,0.0,-0.0125,0.0,-0.0043,-0.0133,-0.0045,0.0,0.0,0.0,0.0,0.0,0.0,0.0,0.0,0.0,0.0,0.0,0.0,0.0,0.0,-0.0135,-0.0269,-0.0403,-0.0493,-0.0673,-0.0852,-0.1446,-0.1448,-0.1451,-0.1414,-0.148,-0.1494,-0.1494,-0.1512,-0.1529,-0.1538,-0.1521,-0.1512,-0.1525,-0.1478,-0.1478,-0.1478,-0.1506,-0.149,-0.1481,-0.146,-0.1399,-0.1391,-0.1391,-0.1391,-0.1391,-0.1391,-0.1391,-0.1391,-0.1391,-0.1386,-0.1422,-0.1422,-0.1338,-0.1166,-0.1031,-0.0897,-0.0673,-0.0404,-0.0269,-0.0269,-0.009,0.0,0.0,0.0,0.0,0.0,0.0,0.0,0.0,0.0,0.0,0.0,0.0,0.0,0.0,0.0,0.0,0.0,0.0,0.0,0.0,0.0,0.0,0.0,0.0,0.0,0.0,0.0,0.0,0.0,0.0,0.0,0.0,0.0,0.0,0.0,0.0,0.0,0.0,0.0,0.0,-0.0039,-0.0196,-0.0393,-0.0589,-0.0707,-0.0943,-0.0904,-0.0432,-0.0395,-0.0322,0.0,0.0,0.0,-0.0089,-0.0045,0.0,0.0,0.0,0.0,0.0,0.0,0.0,0.0,0.0,0.0,0.0,0.0,0.0,0.0,0.0,-0.0135,-0.0269,-0.0269,-0.0404,-0.0628,-0.1474,-0.148,-0.149,-0.152,-0.1478,-0.1478,-0.1478,-0.1478,-0.1537,-0.1567,-0.162,-0.1559,-0.1529,-0.1478,-0.1478,-0.1478,-0.1478,-0.1513,-0.1483,-0.148,-0.1467,-0.1392,-0.1391,-0.1391,-0.1391,-0.1391,-0.1391,-0.1391,-0.1391,-0.142,-0.1391,-0.1391,-0.1407,-0.139,-0.0897,-0.0718,-0.0673,-0.0225,0.0,0.0,0.0,0.0,0.0,0.0,0.0,0.0,0.0,0.0,0.0,0.0,0.0,0.0,0.0,0.0,0.0,0.0,0.0,0.0,0.0,0.0,0.0,0.0,0.0,0.0,0.0,0.0,0.0,0.0,0.0,0.0,0.0,0.0,0.0,0.0,0.0,0.0,0.0,0.0,0.0,0.0,0.0,0.0,0.0,-0.0196,-0.0314,-0.0314,-0.051,-0.0589,-0.0589,-0.0241,-0.0081,-0.0285,-0.0085,-0.0087,-0.0305,-0.0089,0.0,0.0,0.0,0.0,0.0,0.0,0.0,0.0,0.0,0.0,0.0,0.0,0.0,0.0,0.0,0.0,0.0,0.0,-0.018,-0.0403,-0.151,-0.1512,-0.1515,-0.1477,-0.1543,-0.1557,-0.1557,-0.1575,-0.1592,-0.1601,-0.1603,-0.1598,-0.1589,-0.1588,-0.1588,-0.1588,-0.1569,-0.1553,-0.1591,-0.1504,-0.1476,-0.1467,-0.1446,-0.1391,-0.1391,-0.1391,-0.1391,-0.1391,-0.1391,-0.1385,-0.1421,-0.1421,-0.1247,-0.0897,-0.0762,-0.0538,-0.0225,-0.0045,0.0,0.0,0.0,0.0,0.0,0.0,0.0,0.0,0.0,0.0,0.0,0.0,0.0,0.0,0.0,0.0,0.0,0.0,0.0,0.0,0.0,0.0,0.0,0.0,0.0,0.0,0.0,0.0,0.0,0.0,0.0,0.0,0.0,0.0,0.0,0.0,0.0,0.0,0.0,0.0,0.0,0.0,0.0,0.0,0.0,-0.0196,-0.0314,-0.0314,-0.0353,-0.0393,-0.0393,-0.0281,-0.0164,-0.0083,-0.0043,0.0,-0.0089,-0.0045,0.0,0.0,0.0,0.0,0.0,0.0,0.0,0.0,0.0,0.0,0.0,0.0,0.0,0.0,0.0,0.0,0.0,0.0,-0.0045,-0.0135,-0.154,-0.1543,-0.1498,-0.1412,-0.1527,-0.1588,-0.1489,-0.1554,-0.1617,-0.1617,-0.1617,-0.1617,-0.1617,-0.1617,-0.1617,-0.1617,-0.1599,-0.1583,-0.1621,-0.1584,-0.1504,-0.1482,-0.1463,-0.1447,-0.1391,-0.1391,-0.1391,-0.1391,-0.1391,-0.1391,-0.1391,-0.13,-0.1121,-0.0852,-0.0673,-0.0404,-0.0135,-0.0045,0.0,0.0,0.0,0.0,0.0,0.0,0.0,0.0,0.0,0.0,0.0,0.0,0.0,0.0,0.0,0.0,0.0,0.0,0.0,0.0,0.0,0.0,0.0,0.0,0.0,0.0,0.0,0.0,0.0,0.0,0.0,0.0,0.0,0.0,0.0,0.0,0.0,0.0,0.0,0.0,0.0,0.0,0.0,0.0,0.0,-0.0121,-0.0202,-0.0202,-0.0202,-0.0202,-0.0202,-0.0205,-0.0125,0.0,0.0,0.0,0.0,0.0,0.0,0.0,0.0,0.0,0.0,0.0,0.0,0.0,0.0,0.0,0.0,0.0,0.0,0.0,0.0,0.0,0.0,0.0,0.0,0.0,-0.1569,-0.1575,-0.1484,-0.1259,-0.1415,-0.1465,-0.1212,-0.1415,-0.1566,-0.1566,-0.1566,-0.1617,-0.1617,-0.1617,-0.1617,-0.1617,-0.1617,-0.1605,-0.1577,-0.1622,-0.1595,-0.1489,-0.1483,-0.1468,-0.1394,-0.1391,-0.1391,-0.1391,-0.1391,-0.1391,-0.1391,-0.1211,-0.1076,-0.1031,-0.0583,-0.0403,-0.0359,-0.009,0.0,0.0,0.0,0.0,0.0,0.0,0.0,0.0,0.0,0.0,0.0,0.0,0.0,0.0,0.0,0.0,0.0,0.0,0.0,0.0,0.0,0.0,0.0,0.0,0.0,0.0,0.0,0.0,0.0,0.0,0.0,0.0,0.0,0.0,0.0,0.0,0.0,0.0,0.0,0.0,0.0,0.0,0.0,0.0,0.0,0.0,0.0,0.0,0.0,0.0,0.0,0.0,0.0,0.0,0.0,0.0,0.0,0.0,0.0,0.0,0.0,0.0,0.0,0.0,0.0,0.0,0.0,0.0,0.0,0.0,0.0,0.0,0.0,0.0,0.0,0.0,0.0,0.0,-0.1605,-0.1455,-0.1256,-0.1211,-0.1061,-0.096,-0.0909,-0.1111,-0.1313,-0.1313,-0.1465,-0.1617,-0.1617,-0.1617,-0.1617,-0.1617,-0.1617,-0.1613,-0.1607,-0.1584,-0.1614,-0.1599,-0.1506,-0.1477,-0.147,-0.1447,-0.1391,-0.1391,-0.1391,-0.1391,-0.1391,-0.1211,-0.0987,-0.0762,-0.0538,-0.0269,-0.009,-0.0045,0.0,0.0,0.0,0.0,0.0,0.0,0.0,0.0,0.0,0.0,0.0,0.0,0.0,0.0,0.0,0.0,0.0,0.0,0.0,0.0,0.0,0.0,0.0,0.0,0.0,0.0,0.0,0.0,0.0,0.0,0.0,0.0,0.0,0.0,0.0,0.0,0.0,0.0,0.0,0.0,0.0,0.0,0.0,0.0,0.0,0.0,0.0,0.0,0.0,0.0,0.0,0.0,0.0,0.0,0.0,0.0,0.0,0.0,0.0,0.0,0.0,0.0,0.0,0.0,0.0,0.0,0.0,0.0,0.0,0.0,0.0,0.0,0.0,0.0,0.0,0.0,0.0,0.0,-0.1465,-0.1313,-0.1111,-0.0859,-0.0808,-0.0758,-0.0657,-0.096,-0.1212,-0.1212,-0.1415,-0.1617,-0.1617,-0.1617,-0.1617,-0.1617,-0.1617,-0.1617,-0.1617,-0.1601,-0.1586,-0.1621,-0.1588,-0.1509,-0.1481,-0.1465,-0.1449,-0.1391,-0.1391,-0.1345,-0.1256,-0.1031,-0.0807,-0.0538,-0.0314,-0.0135,0.0,0.0,0.0,0.0,0.0,0.0,0.0,0.0,0.0,0.0,0.0,0.0,0.0,0.0,0.0,0.0,0.0,0.0,0.0,0.0,0.0,0.0,0.0,0.0,0.0,0.0,0.0,0.0,0.0,0.0,0.0,0.0,0.0,0.0,0.0,0.0,0.0,0.0,0.0,0.0,0.0,0.0,0.0,0.0,0.0,0.0,0.0,0.0,0.0,0.0,0.0,0.0,0.0,0.0,0.0,0.0,0.0,0.0,0.0,0.0,0.0,0.0,0.0,0.0,0.0,0.0,0.0,0.0,0.0,0.0,0.0,0.0,0.0,0.0,0.0,0.0,0.0,0.0,0.0,0.0,-0.1212,-0.1111,-0.096,-0.0455,-0.0556,-0.0606,-0.0354,-0.0808,-0.1162,-0.1162,-0.1415,-0.1617,-0.1617,-0.1617,-0.1617,-0.1617,-0.1617,-0.1617,-0.1617,-0.1617,-0.1605,-0.1579,-0.1623,-0.1545,-0.1489,-0.1478,-0.1461,-0.1391,-0.1391,-0.13,-0.1076,-0.0807,-0.0583,-0.0403,-0.0135,0.0,0.0,0.0,0.0,0.0,0.0,0.0,0.0,0.0,0.0,0.0,0.0,0.0,0.0,0.0,0.0,0.0,0.0,0.0,0.0,0.0,0.0,0.0,0.0,0.0,0.0,0.0,0.0,0.0,0.0,0.0,0.0,0.0,0.0,0.0045,0.018,0.009,0.0045,0.018,0.0225,0.0225,0.0225,0.0359,0.0449,0.0449,0.0449,0.0449,0.0449,0.0449,0.0449,0.0449,0.0449,0.0449,0.0449,0.0314,0.0269,0.0449,0.0135,0.009,0.0225,0.009,0.009,0.0225,0.009,0.0,0.0,0.0,0.0,0.0,0.0,0.0,0.0,0.0,0.0,0.0,0.0,0.0,0.0,0.0,0.0,0.0,-0.0909,-0.0657,-0.0505,-0.0404,-0.0253,-0.0101,-0.0051,-0.0505,-0.0859,-0.0859,-0.1313,-0.1617,-0.1617,-0.1617,-0.1617,-0.1617,-0.1617,-0.1617,-0.1617,-0.1617,-0.1615,-0.161,-0.1585,-0.1555,-0.152,-0.1423,-0.1395,-0.1391,-0.1391,-0.13,-0.1076,-0.0807,-0.0583,-0.0403,-0.0135,0.0,0.0,0.0,0.0,0.0,0.0,0.0,0.0,0.0,0.0,0.0,0.0,0.0,0.0,0.0,0.0,0.0,0.0,0.0,0.0,0.0,0.0,0.0,0.0,0.0,0.0,0.0,0.0,0.0,0.0,0.0,0.0,0.0,0.0,0.0225,0.1032,0.0539,0.0269,0.1032,0.1166,0.1166,0.1166,0.1928,0.2464,0.2464,0.2464,0.2464,0.2464,0.2464,0.2464,0.2464,0.2464,0.2464,0.2464,0.1659,0.1569,0.2419,0.0853,0.0359,0.1166,0.0404,0.0404,0.1166,0.0359,0.0,0.0,0.0,0.0,0.0,0.0,0.0,0.0,0.0,0.0,0.0,0.0,0.0,0.0,0.0,0.0,0.0,-0.0657,-0.0505,-0.0354,-0.0202,-0.0101,0.0,0.0,-0.0354,-0.0606,-0.0606,-0.1061,-0.1364,-0.1364,-0.1516,-0.1617,-0.1617,-0.1617,-0.1617,-0.1617,-0.1617,-0.1617,-0.1617,-0.1603,-0.1574,-0.1479,-0.1483,-0.1452,-0.1391,-0.13,-0.1121,-0.0897,-0.0628,-0.0404,-0.018,-0.0045,0.0,0.0,0.0,0.0,0.0,0.0,0.0,0.0,0.0,0.0,0.0,0.0,0.0,0.0,0.0,0.0,0.0,0.0,0.0,0.0,0.0,0.0,0.0,0.0,0.0,0.0,0.0,0.0,0.0,0.0,0.0,0.0135,0.0628,0.0763,0.1032,0.2017,0.1838,0.1704,0.2152,0.2196,0.2196,0.2196,0.2598,0.2911,0.2911,0.2911,0.2911,0.2911,0.2911,0.2911,0.2911,0.2911,0.2911,0.2911,0.2465,0.2419,0.2867,0.2017,0.1749,0.2196,0.1793,0.1793,0.2196,0.1749,0.1569,0.1569,0.1569,0.1569,0.1524,0.0987,0.0763,0.0718,0.0225,0.0,0.0,0.0,0.0,0.0,0.0,0.0,0.0,-0.0404,-0.0303,-0.0253,-0.0051,0.0,0.0,0.0,-0.0253,-0.0404,-0.0404,-0.0808,-0.1111,-0.1212,-0.1364,-0.1516,-0.1617,-0.1617,-0.1617,-0.1617,-0.1617,-0.1617,-0.1617,-0.161,-0.1584,-0.1538,-0.15,-0.1469,-0.1401,-0.1214,-0.0942,-0.0718,-0.0493,-0.0269,0.0,0.0,0.0,0.0,0.0,0.0,0.0,0.0,0.0,0.0,0.0,0.0,0.0,0.0,0.0,0.0,0.0,0.0,0.0,0.0,0.0,0.0,0.0,0.0,0.0,0.0,0.0,0.0,0.0,0.0,0.0,0.0,0.018,0.0539,0.1256,0.1569,0.2062,0.3045,0.3045,0.2956,0.3181,0.3226,0.3226,0.3226,0.3403,0.3539,0.3539,0.3539,0.3539,0.3539,0.3539,0.3539,0.3539,0.3539,0.3539,0.3539,0.336,0.3226,0.3226,0.3001,0.3001,0.3226,0.3001,0.3001,0.3226,0.3001,0.2911,0.2911,0.2911,0.2911,0.2867,0.2106,0.1749,0.1659,0.0718,0.0314,0.0314,0.009,0.0,0.0,0.0,0.0,0.0,-0.0101,-0.0051,0.0,0.0,0.0,0.0,0.0,-0.0253,-0.0404,-0.0404,-0.0657,-0.0909,-0.1162,-0.1212,-0.1314,-0.1566,-0.1617,-0.1617,-0.1617,-0.1617,-0.1617,-0.1617,-0.159,-0.1622,-0.1617,-0.151,-0.148,-0.1477,-0.1223,-0.0942,-0.0718,-0.0493,-0.0269,0.0,0.0,0.0,0.0,0.0,0.0,0.0,0.0,0.0,0.0,0.0,0.0,0.0,0.0,0.0,0.0,0.0,0.0,0.0,0.0,0.0,0.0,0.0,0.0,0.0,0.0,0.0,0.0,0.0,0.0,0.0,0.0,0.0673,0.1301,0.1391,0.2152,0.3092,0.403,0.3494,0.3181,0.4074,0.421,0.421,0.421,0.4926,0.5508,0.5508,0.5508,0.5508,0.5508,0.5508,0.5508,0.5508,0.5508,0.5508,0.5508,0.4656,0.421,0.421,0.336,0.3315,0.421,0.3315,0.3315,0.4166,0.3315,0.2911,0.2911,0.2911,0.2911,0.2911,0.2823,0.2778,0.2732,0.1704,0.1301,0.1211,0.0359,0.0,0.0,0.0,0.0,0.0,-0.0051,0.0,0.0,0.0,0.0,0.0,0.0,-0.0101,-0.0152,-0.0152,-0.0505,-0.0859,-0.096,-0.1263,-0.1465,-0.1566,-0.1617,-0.1617,-0.1617,-0.1617,-0.1617,-0.1617,-0.1606,-0.1591,-0.1621,-0.1597,-0.1519,-0.148,-0.1102,-0.0863,-0.0673,-0.0314,-0.009,0.0,0.0,0.0,0.0,0.0,0.0,0.0,0.0,0.0,0.0,0.0,0.0,0.0,0.0,0.0,0.0,0.0,0.0,0.0,0.0,0.0,0.0,0.0,0.0,0.0,0.0,0.0,0.0135,0.0718,0.0853,0.1032,0.166,0.2062,0.251,0.309,0.3494,0.4074,0.5015,0.4882,0.4748,0.5104,0.5151,0.5151,0.5151,0.5466,0.5688,0.5688,0.5688,0.5688,0.5688,0.5688,0.5688,0.5688,0.5688,0.5688,0.5688,0.5374,0.5151,0.5151,0.4837,0.479,0.5151,0.4837,0.4837,0.5151,0.479,0.4656,0.4656,0.4656,0.4656,0.4612,0.403,0.3762,0.3673,0.2732,0.2331,0.2286,0.1928,0.1793,0.1793,0.1793,0.1793,0.1704,-0.0051,0.0,0.0,0.0,0.0,0.0,0.0,0.0,0.0,0.0,-0.0404,-0.0707,-0.0808,-0.1212,-0.1516,-0.1617,-0.1617,-0.1617,-0.1617,-0.1617,-0.1617,-0.1617,-0.1617,-0.1607,-0.1586,-0.1577,-0.1547,-0.1495,-0.1114,-0.0824,-0.0673,-0.0314,-0.009,0.0,0.0,0.0,0.0,0.0,0.0,0.0,0.0,0.0,0.0,0.0,0.0,0.0,0.0,0.0,0.0,0.0,0.0,0.0,0.0,0.0,0.0,0.0,0.0,0.0,0.0,0.0225,0.0584,0.1256,0.1659,0.2062,0.2732,0.3135,0.3539,0.4164,0.4523,0.4926,0.5599,0.5688,0.5688,0.5688,0.5688,0.5688,0.5688,0.5688,0.5688,0.5688,0.5688,0.5688,0.5688,0.5688,0.5688,0.5688,0.5688,0.5688,0.5688,0.5688,0.5688,0.5688,0.5688,0.5688,0.5688,0.5688,0.5688,0.5688,0.5688,0.5688,0.5688,0.5688,0.5688,0.5644,0.5015,0.4748,0.4656,0.3717,0.336,0.3314,0.3001,0.2911,0.2911,0.2911,0.2911,0.2823,0.0,0.0,0.0,0.0,0.0,0.0,0.0,0.0,0.0,0.0,-0.0253,-0.0505,-0.0758,-0.1061,-0.1314,-0.1566,-0.1617,-0.1617,-0.1617,-0.1617,-0.1617,-0.1617,-0.1617,-0.1617,-0.1617,-0.1587,-0.1557,-0.1478,-0.1215,-0.0961,-0.0718,-0.0493,-0.0269,0.0,0.0,0.0,0.0,0.0,0.0,0.0,0.0,0.0,0.0,0.0,0.0,0.0,0.0,0.0,0.0,0.0,0.0,0.0,0.0,0.0,0.0,0.0,0.0,0.0,0.0,0.0718,0.1391,0.1391,0.2152,0.2911,0.2913,0.3628,0.43,0.43,0.506,0.5688,0.5688,0.5688,0.5688,0.5688,0.5688,0.5688,0.5688,0.5688,0.5688,0.5688,0.5688,0.5688,0.5688,0.5688,0.5688,0.5688,0.5688,0.5688,0.5688,0.5688,0.5688,0.5688,0.5688,0.5688,0.5688,0.5688,0.5688,0.5688,0.5688,0.5688,0.5688,0.5688,0.5688,0.5688,0.5688,0.5688,0.5644,0.4701,0.43,0.421,0.3269,0.2913,0.2913,0.2913,0.2913,0.2913,0.0,0.0,0.0,0.0,0.0,0.0,0.0,0.0,0.0,0.0,-0.0253,-0.0505,-0.0758,-0.1061,-0.1314,-0.1566,-0.1617,-0.1617,-0.1617,-0.1617,-0.1617,-0.1617,-0.1617,-0.1617,-0.1617,-0.1608,-0.1589,-0.1558,-0.1098,-0.0842,-0.0779,-0.0316,-0.009,0.0,0.0,0.0,0.0,0.0,0.0,0.0,0.0,0.0,0.0,0.0,0.0,0.0,0.0,0.0,0.0,0.0,0.0,0.0,0.0,0.0,0.0,0.0,0.0,0.0135,0.0808,0.1704,0.2464,0.2464,0.3179,0.4074,0.4701,0.506,0.5285,0.5285,0.5508,0.5688,0.5688,0.5688,0.5688,0.5688,0.5688,0.5688,0.5688,0.5688,0.5688,0.5688,0.5688,0.5688,0.5688,0.5688,0.5688,0.5688,0.5688,0.5688,0.5688,0.5688,0.5688,0.5688,0.5688,0.5688,0.5688,0.5688,0.5688,0.5688,0.5688,0.5688,0.5688,0.5688,0.5688,0.5688,0.5688,0.5688,0.5688,0.5419,0.5285,0.524,0.4971,0.4882,0.4882,0.4882,0.4882,0.4792,0.0,0.0,0.0,0.0,0.0,0.0,0.0,0.0,0.0,0.0,-0.0253,-0.0505,-0.0758,-0.1061,-0.1314,-0.1566,-0.1617,-0.1617,-0.1617,-0.1617,-0.1617,-0.1617,-0.1617,-0.1617,-0.1617,-0.1617,-0.1552,-0.1424,-0.1116,-0.0856,-0.0648,-0.032,-0.0091,0.0,0.0,0.0,0.0,0.0,0.0,0.0,0.0,0.0,0.0,0.0,0.0,0.0,0.0,0.0,0.0,0.0,0.0,0.0,0.0,0.0,0.009,0.0449,0.0539,0.0763,0.1749,0.2688,0.3449,0.3449,0.4164,0.5015,0.5555,0.5688,0.5688,0.5688,0.5688,0.5688,0.5688,0.5688,0.5688,0.5688,0.5688,0.5688,0.5688,0.5688,0.5688,0.5688,0.5688,0.5688,0.5688,0.5688,0.5688,0.5688,0.5688,0.5688,0.5688,0.5688,0.5688,0.5688,0.5688,0.5688,0.5688,0.5688,0.5688,0.5688,0.5688,0.5688,0.5688,0.5688,0.5688,0.5688,0.5688,0.5688,0.5688,0.5688,0.5688,0.5688,0.5688,0.5688,0.5688,0.5688,0.5688,0.5599,0.0,0.0,0.0,0.0,0.0,0.0,0.0,0.0,0.0,0.0,-0.0202,-0.0455,-0.0758,-0.101,-0.1263,-0.1566,-0.1566,-0.1617,-0.1617,-0.1617,-0.1617,-0.1617,-0.1617,-0.1617,-0.1617,-0.1566,-0.1453,-0.1182,-0.113,-0.0868,-0.0419,-0.0371,-0.0229,0.0,0.0,0.0,0.0,0.0,0.0,0.0,0.0,0.0,0.0,0.0,0.0,0.0,0.0,0.0,0.0,0.0,0.0,0.0,0.0,0.0,0.018,0.1122,0.1391,0.1659,0.2732,0.3628,0.43,0.4389,0.5062,0.5688,0.5688,0.5688,0.5688,0.5688,0.5688,0.5688,0.5688,0.5688,0.5688,0.5688,0.5688,0.5688,0.5688,0.5688,0.5688,0.5688,0.5688,0.5688,0.5688,0.5688,0.5688,0.5688,0.5688,0.5688,0.5688,0.5688,0.5688,0.5688,0.5688,0.5688,0.5688,0.5688,0.5688,0.5688,0.5688,0.5688,0.5688,0.5688,0.5688,0.5688,0.5688,0.5688,0.5688,0.5688,0.5688,0.5688,0.5688,0.5688,0.5688,0.5688,0.5688,0.5688,0.0,0.0,0.0,0.0,0.0,0.0,0.0,0.0,0.0,0.0,-0.0051,-0.0202,-0.0455,-0.0707,-0.101,-0.1263,-0.1465,-0.1617,-0.1617,-0.1617,-0.1617,-0.1617,-0.1617,-0.1617,-0.1617,-0.1415,-0.1261,-0.1205,-0.0791,-0.0538,-0.0388,-0.0188,-0.0046,0.0,0.0,0.0,0.0,0.0,0.0,0.0,0.0,0.0,0.0,0.0,0.0,0.0,0.0,0.0,0.0,0.0,0.0,0.0,0.0,0.0,0.018,0.1122,0.1391,0.1793,0.3537,0.4164,0.4478,0.5193,0.5555,0.5688,0.5688,0.5688,0.5688,0.5688,0.5688,0.5688,0.5688,0.5688,0.5688,0.5688,0.5688,0.5688,0.5688,0.5688,0.5688,0.5688,0.5688,0.5688,0.5688,0.5688,0.5688,0.5688,0.5688,0.5688,0.5688,0.5688,0.5688,0.5688,0.5688,0.5688,0.5688,0.5688,0.5688,0.5688,0.5688,0.5688,0.5688,0.5688,0.5688,0.5688,0.5688,0.5688,0.5688,0.5688,0.5688,0.5688,0.5688,0.5688,0.5688,0.5688,0.5688,0.5688,0.0,0.0,0.0,0.0,0.0,0.0,0.0,0.0,0.0,0.0,0.0,-0.0101,-0.0354,-0.0657,-0.096,-0.1364,-0.1516,-0.1617,-0.1617,-0.1617,-0.1617,-0.1617,-0.1617,-0.1617,-0.1617,-0.1212,-0.101,-0.101,-0.06,-0.0347,-0.0196,-0.0048,0.0,0.0,0.0,0.0,0.0,0.0,0.0,0.0,0.0,0.0,0.0,0.0,0.0,0.0,0.0,0.0,0.0,0.0,0.0,0.009,0.0539,0.0673,0.0942,0.2374,0.2777,0.309,0.4567,0.4971,0.5104,0.5599,0.5688,0.5688,0.5688,0.5688,0.5688,0.5688,0.5688,0.5688,0.5688,0.5688,0.5688,0.5688,0.5688,0.5688,0.5688,0.5688,0.5688,0.5688,0.5688,0.5688,0.5688,0.5688,0.5688,0.5688,0.5688,0.5688,0.5688,0.5688,0.5688,0.5688,0.5688,0.5688,0.5688,0.5688,0.5688,0.5688,0.5688,0.5688,0.5688,0.5688,0.5688,0.5688,0.5688,0.5688,0.5688,0.5688,0.5688,0.5688,0.5688,0.5688,0.5688,0.5688,0.5688,0.5688,0.0,0.0,0.0,0.0,0.0,0.0,0.0,0.0,0.0,0.0,0.0,-0.0101,-0.0303,-0.0606,-0.101,-0.1566,-0.1617,-0.1617,-0.1617,-0.1617,-0.1617,-0.1617,-0.1566,-0.1516,-0.1516,-0.101,-0.0758,-0.0808,-0.0505,-0.02,0.0,0.0,0.0,0.0,0.0,0.0,0.0,0.0,0.0,0.0,0.0,0.0,0.0,0.0,0.0,0.0,0.0,0.0,0.0,0.0,0.009,0.0359,0.1166,0.1524,0.2017,0.3762,0.43,0.4523,0.5463,0.5688,0.5688,0.5688,0.5688,0.5688,0.5688,0.5688,0.5688,0.5688,0.5688,0.5688,0.5688,0.5688,0.5688,0.5688,0.5688,0.5688,0.5688,0.5688,0.5688,0.5688,0.5688,0.5688,0.5688,0.5688,0.5688,0.5688,0.5688,0.5688,0.5688,0.5688,0.5688,0.5688,0.5688,0.5688,0.5688,0.5688,0.5688,0.5688,0.5688,0.5688,0.5688,0.5688,0.5688,0.5688,0.5688,0.5688,0.5688,0.5688,0.5688,0.5688,0.5688,0.5688,0.5688,0.5688,0.5688,0.5688,0.0,0.0,0.0,0.0,0.0,0.0,0.0,0.0,0.0,0.0,0.0,0.0,-0.0051,-0.0505,-0.101,-0.1566,-0.1617,-0.1617,-0.1617,-0.1617,-0.1617,-0.1617,-0.1364,-0.1263,-0.1263,-0.0707,-0.0556,-0.0808,-0.0303,-0.005,0.0,0.0,0.0,0.0,0.0,0.0,0.0,0.0,0.0,0.0,0.0,0.0,0.0,0.0,0.0,0.0,0.0,0.0,0.0,0.0,0.0539,0.1211,0.1345,0.2017,0.2911,0.3985,0.43,0.4523,0.5463,0.5688,0.5688,0.5688,0.5688,0.5688,0.5688,0.5688,0.5688,0.5688,0.5688,0.5688,0.5688,0.5688,0.5688,0.5688,0.5688,0.5688,0.5688,0.5688,0.5688,0.5688,0.5688,0.5688,0.5688,0.5688,0.5688,0.5688,0.5688,0.5688,0.5688,0.5688,0.5688,0.5688,0.5688,0.5688,0.5688,0.5688,0.5688,0.5688,0.5688,0.5688,0.5688,0.5688,0.5688,0.5688,0.5688,0.5688,0.5688,0.5688,0.5688,0.5688,0.5688,0.5688,0.5688,0.5688,0.5688,0.5688,0.0,0.0,0.0,0.0,0.0,0.0,0.0,0.0,0.0,0.0,0.0,0.0,0.0,-0.0458,-0.0909,-0.1111,-0.1415,-0.1516,-0.1364,-0.1364,-0.1364,-0.1364,-0.1111,-0.096,-0.096,-0.0606,-0.0455,-0.0556,-0.0202,0.0,0.0,0.0,0.0,0.0,0.0,0.0,0.0,0.0,0.0,0.0,0.0,0.0,0.0,0.0,0.0,0.0,0.0,0.0,0.0,0.0,0.0629,0.148,0.2062,0.2911,0.3851,0.479,0.506,0.5151,0.5599,0.5688,0.5688,0.5688,0.5688,0.5688,0.5688,0.5688,0.5688,0.5688,0.5688,0.5688,0.5688,0.5688,0.5688,0.5688,0.5688,0.5688,0.5688,0.5688,0.5688,0.5688,0.5688,0.5688,0.5688,0.5688,0.5688,0.5688,0.5688,0.5688,0.5688,0.5688,0.5688,0.5688,0.5688,0.5688,0.5688,0.5688,0.5688,0.5688,0.5688,0.5688,0.5688,0.5688,0.5688,0.5688,0.5688,0.5688,0.5688,0.5688,0.5688,0.5688,0.5688,0.5688,0.5688,0.5688,0.5688,0.5688]}]]